<?xml version="1.0" encoding="UTF-8" standalone="no" ?>
<gpx xmlns="http://www.topografix.com/GPX/1/1" xmlns:xsi="http://www.w3.org/2001/XMLSchema-instance" xsi:schemaLocation="http://www.topografix.com/GPX/1/1 http://www.topografix.com/GPX/1/1/gpx.xsd" version="1.1" creator="VisuGPX - https://www.visugpx.com">
  <metadata>
    <name>Trail des Cabornis 2018 - 23 km sur TraceDeTrail.fr</name>
  </metadata>
  <trk>
    <name><![CDATA[Trail des Cabornis 2018 - 23 km sur TraceDeTrail.fr]]></name>
    <trkseg>
      <trkpt lat="45.87462" lon="4.76994">
        <ele>231</ele>
        <time>2000-01-01T00:25:21.000Z</time>
      </trkpt>
      <trkpt lat="45.87463" lon="4.76999">
        <ele>229</ele>
        <time>2000-01-01T00:25:31.000Z</time>
      </trkpt>
      <trkpt lat="45.87463" lon="4.77001">
        <ele>229</ele>
        <time>2000-01-01T00:25:41.000Z</time>
      </trkpt>
      <trkpt lat="45.87464" lon="4.77023">
        <ele>229.5</ele>
        <time>2000-01-01T00:25:51.000Z</time>
      </trkpt>
      <trkpt lat="45.87458" lon="4.77036">
        <ele>229.2</ele>
        <time>2000-01-01T00:26:01.000Z</time>
      </trkpt>
      <trkpt lat="45.87446" lon="4.77039">
        <ele>228</ele>
        <time>2000-01-01T00:26:11.000Z</time>
      </trkpt>
      <trkpt lat="45.87432" lon="4.77042">
        <ele>230.2</ele>
        <time>2000-01-01T00:26:21.000Z</time>
      </trkpt>
      <trkpt lat="45.87425" lon="4.77043">
        <ele>229</ele>
        <time>2000-01-01T00:26:31.000Z</time>
      </trkpt>
      <trkpt lat="45.87418" lon="4.77045">
        <ele>230.9</ele>
        <time>2000-01-01T00:26:41.000Z</time>
      </trkpt>
      <trkpt lat="45.87413" lon="4.77048">
        <ele>231.1</ele>
        <time>2000-01-01T00:26:51.000Z</time>
      </trkpt>
      <trkpt lat="45.87403" lon="4.7706">
        <ele>230</ele>
        <time>2000-01-01T00:27:01.000Z</time>
      </trkpt>
      <trkpt lat="45.87392" lon="4.7707">
        <ele>231.9</ele>
        <time>2000-01-01T00:27:11.000Z</time>
      </trkpt>
      <trkpt lat="45.8738" lon="4.77076">
        <ele>231</ele>
        <time>2000-01-01T00:27:21.000Z</time>
      </trkpt>
      <trkpt lat="45.87367" lon="4.77079">
        <ele>232.8</ele>
        <time>2000-01-01T00:27:31.000Z</time>
      </trkpt>
      <trkpt lat="45.87361" lon="4.77081">
        <ele>232</ele>
        <time>2000-01-01T00:27:41.000Z</time>
      </trkpt>
      <trkpt lat="45.87353" lon="4.7709">
        <ele>233.5</ele>
        <time>2000-01-01T00:27:51.000Z</time>
      </trkpt>
      <trkpt lat="45.87348" lon="4.77102">
        <ele>233</ele>
        <time>2000-01-01T00:28:01.000Z</time>
      </trkpt>
      <trkpt lat="45.87345" lon="4.77108">
        <ele>234</ele>
        <time>2000-01-01T00:28:11.000Z</time>
      </trkpt>
      <trkpt lat="45.87342" lon="4.77129">
        <ele>237</ele>
        <time>2000-01-01T00:28:21.000Z</time>
      </trkpt>
      <trkpt lat="45.87342" lon="4.7714">
        <ele>235</ele>
        <time>2000-01-01T00:28:31.000Z</time>
      </trkpt>
      <trkpt lat="45.87341" lon="4.77148">
        <ele>234.9</ele>
        <time>2000-01-01T00:28:41.000Z</time>
      </trkpt>
      <trkpt lat="45.87342" lon="4.77159">
        <ele>242</ele>
        <time>2000-01-01T00:28:51.000Z</time>
      </trkpt>
      <trkpt lat="45.87342" lon="4.77165">
        <ele>234.7</ele>
        <time>2000-01-01T00:29:01.000Z</time>
      </trkpt>
      <trkpt lat="45.87341" lon="4.77166">
        <ele>234.7</ele>
        <time>2000-01-01T00:29:11.000Z</time>
      </trkpt>
      <trkpt lat="45.87329" lon="4.77169">
        <ele>235.2</ele>
        <time>2000-01-01T00:29:21.000Z</time>
      </trkpt>
      <trkpt lat="45.87323" lon="4.77169">
        <ele>242</ele>
        <time>2000-01-01T00:29:31.000Z</time>
      </trkpt>
      <trkpt lat="45.87316" lon="4.77175">
        <ele>235.6</ele>
        <time>2000-01-01T00:29:41.000Z</time>
      </trkpt>
      <trkpt lat="45.87309" lon="4.77182">
        <ele>235.9</ele>
        <time>2000-01-01T00:29:51.000Z</time>
      </trkpt>
      <trkpt lat="45.87308" lon="4.77197">
        <ele>247</ele>
        <time>2000-01-01T00:30:01.000Z</time>
      </trkpt>
      <trkpt lat="45.87308" lon="4.77214">
        <ele>235.9</ele>
        <time>2000-01-01T00:30:11.000Z</time>
      </trkpt>
      <trkpt lat="45.87304" lon="4.77233">
        <ele>250</ele>
        <time>2000-01-01T00:30:21.000Z</time>
      </trkpt>
      <trkpt lat="45.87304" lon="4.77239">
        <ele>236.8</ele>
        <time>2000-01-01T00:30:31.000Z</time>
      </trkpt>
      <trkpt lat="45.87305" lon="4.77261">
        <ele>252</ele>
        <time>2000-01-01T00:30:41.000Z</time>
      </trkpt>
      <trkpt lat="45.87303" lon="4.7728">
        <ele>237.6</ele>
        <time>2000-01-01T00:30:51.000Z</time>
      </trkpt>
      <trkpt lat="45.87302" lon="4.773">
        <ele>254</ele>
        <time>2000-01-01T00:31:01.000Z</time>
      </trkpt>
      <trkpt lat="45.87302" lon="4.77315">
        <ele>238.7</ele>
        <time>2000-01-01T00:31:11.000Z</time>
      </trkpt>
      <trkpt lat="45.873" lon="4.77333">
        <ele>254</ele>
        <time>2000-01-01T00:31:21.000Z</time>
      </trkpt>
      <trkpt lat="45.87299" lon="4.77352">
        <ele>239.4</ele>
        <time>2000-01-01T00:31:31.000Z</time>
      </trkpt>
      <trkpt lat="45.87301" lon="4.77364">
        <ele>252</ele>
        <time>2000-01-01T00:31:41.000Z</time>
      </trkpt>
      <trkpt lat="45.873" lon="4.77381">
        <ele>240.1</ele>
        <time>2000-01-01T00:31:51.000Z</time>
      </trkpt>
      <trkpt lat="45.87298" lon="4.77397">
        <ele>250</ele>
        <time>2000-01-01T00:32:01.000Z</time>
      </trkpt>
      <trkpt lat="45.87299" lon="4.77415">
        <ele>241.4</ele>
        <time>2000-01-01T00:32:11.000Z</time>
      </trkpt>
      <trkpt lat="45.87297" lon="4.77432">
        <ele>247</ele>
        <time>2000-01-01T00:32:21.000Z</time>
      </trkpt>
      <trkpt lat="45.87295" lon="4.77451">
        <ele>242.3</ele>
        <time>2000-01-01T00:32:31.000Z</time>
      </trkpt>
      <trkpt lat="45.87294" lon="4.77469">
        <ele>247</ele>
        <time>2000-01-01T00:32:41.000Z</time>
      </trkpt>
      <trkpt lat="45.87295" lon="4.77483">
        <ele>243.3</ele>
        <time>2000-01-01T00:32:51.000Z</time>
      </trkpt>
      <trkpt lat="45.87298" lon="4.775">
        <ele>247</ele>
        <time>2000-01-01T00:33:01.000Z</time>
      </trkpt>
      <trkpt lat="45.873" lon="4.77505">
        <ele>243.6</ele>
        <time>2000-01-01T00:33:11.000Z</time>
      </trkpt>
      <trkpt lat="45.873" lon="4.77523">
        <ele>243.8</ele>
        <time>2000-01-01T00:33:21.000Z</time>
      </trkpt>
      <trkpt lat="45.87298" lon="4.77539">
        <ele>247</ele>
        <time>2000-01-01T00:33:31.000Z</time>
      </trkpt>
      <trkpt lat="45.87294" lon="4.77548">
        <ele>245.6</ele>
        <time>2000-01-01T00:33:41.000Z</time>
      </trkpt>
      <trkpt lat="45.87291" lon="4.77553">
        <ele>245.9</ele>
        <time>2000-01-01T00:33:51.000Z</time>
      </trkpt>
      <trkpt lat="45.8728" lon="4.77564">
        <ele>247</ele>
        <time>2000-01-01T00:34:01.000Z</time>
      </trkpt>
      <trkpt lat="45.87269" lon="4.77574">
        <ele>248.3</ele>
        <time>2000-01-01T00:34:11.000Z</time>
      </trkpt>
      <trkpt lat="45.8726" lon="4.77591">
        <ele>248</ele>
        <time>2000-01-01T00:34:21.000Z</time>
      </trkpt>
      <trkpt lat="45.87259" lon="4.77597">
        <ele>250.2</ele>
        <time>2000-01-01T00:34:31.000Z</time>
      </trkpt>
      <trkpt lat="45.87261" lon="4.77615">
        <ele>251.5</ele>
        <time>2000-01-01T00:34:41.000Z</time>
      </trkpt>
      <trkpt lat="45.87263" lon="4.77627">
        <ele>253</ele>
        <time>2000-01-01T00:34:51.000Z</time>
      </trkpt>
      <trkpt lat="45.87266" lon="4.77641">
        <ele>252.9</ele>
        <time>2000-01-01T00:35:01.000Z</time>
      </trkpt>
      <trkpt lat="45.87268" lon="4.77656">
        <ele>254</ele>
        <time>2000-01-01T00:35:11.000Z</time>
      </trkpt>
      <trkpt lat="45.87269" lon="4.77673">
        <ele>255.8</ele>
        <time>2000-01-01T00:35:21.000Z</time>
      </trkpt>
      <trkpt lat="45.87271" lon="4.77689">
        <ele>255</ele>
        <time>2000-01-01T00:35:31.000Z</time>
      </trkpt>
      <trkpt lat="45.87273" lon="4.77705">
        <ele>258</ele>
        <time>2000-01-01T00:35:41.000Z</time>
      </trkpt>
      <trkpt lat="45.87274" lon="4.77716">
        <ele>256</ele>
        <time>2000-01-01T00:35:51.000Z</time>
      </trkpt>
      <trkpt lat="45.87275" lon="4.77733">
        <ele>259.9</ele>
        <time>2000-01-01T00:36:01.000Z</time>
      </trkpt>
      <trkpt lat="45.87274" lon="4.77748">
        <ele>258</ele>
        <time>2000-01-01T00:36:11.000Z</time>
      </trkpt>
      <trkpt lat="45.87273" lon="4.77762">
        <ele>261.5</ele>
        <time>2000-01-01T00:36:21.000Z</time>
      </trkpt>
      <trkpt lat="45.87273" lon="4.77778">
        <ele>260</ele>
        <time>2000-01-01T00:36:31.000Z</time>
      </trkpt>
      <trkpt lat="45.87272" lon="4.77793">
        <ele>262.8</ele>
        <time>2000-01-01T00:36:41.000Z</time>
      </trkpt>
      <trkpt lat="45.8727" lon="4.77807">
        <ele>262</ele>
        <time>2000-01-01T00:36:51.000Z</time>
      </trkpt>
      <trkpt lat="45.87269" lon="4.77824">
        <ele>264.1</ele>
        <time>2000-01-01T00:37:01.000Z</time>
      </trkpt>
      <trkpt lat="45.87271" lon="4.77839">
        <ele>263</ele>
        <time>2000-01-01T00:37:11.000Z</time>
      </trkpt>
      <trkpt lat="45.87274" lon="4.77855">
        <ele>263.6</ele>
        <time>2000-01-01T00:37:21.000Z</time>
      </trkpt>
      <trkpt lat="45.87276" lon="4.77872">
        <ele>267</ele>
        <time>2000-01-01T00:37:31.000Z</time>
      </trkpt>
      <trkpt lat="45.8728" lon="4.77888">
        <ele>263.6</ele>
        <time>2000-01-01T00:37:41.000Z</time>
      </trkpt>
      <trkpt lat="45.87282" lon="4.77901">
        <ele>270</ele>
        <time>2000-01-01T00:37:51.000Z</time>
      </trkpt>
      <trkpt lat="45.87285" lon="4.77918">
        <ele>264.8</ele>
        <time>2000-01-01T00:38:01.000Z</time>
      </trkpt>
      <trkpt lat="45.87288" lon="4.77933">
        <ele>273</ele>
        <time>2000-01-01T00:38:11.000Z</time>
      </trkpt>
      <trkpt lat="45.87292" lon="4.77947">
        <ele>265.6</ele>
        <time>2000-01-01T00:38:21.000Z</time>
      </trkpt>
      <trkpt lat="45.87293" lon="4.77964">
        <ele>273</ele>
        <time>2000-01-01T00:38:31.000Z</time>
      </trkpt>
      <trkpt lat="45.87297" lon="4.77981">
        <ele>266.9</ele>
        <time>2000-01-01T00:38:41.000Z</time>
      </trkpt>
      <trkpt lat="45.87299" lon="4.77998">
        <ele>267</ele>
        <time>2000-01-01T00:38:51.000Z</time>
      </trkpt>
      <trkpt lat="45.87299" lon="4.78009">
        <ele>266.7</ele>
        <time>2000-01-01T00:39:01.000Z</time>
      </trkpt>
      <trkpt lat="45.87298" lon="4.78027">
        <ele>266</ele>
        <time>2000-01-01T00:39:11.000Z</time>
      </trkpt>
      <trkpt lat="45.87292" lon="4.78043">
        <ele>264.7</ele>
        <time>2000-01-01T00:39:21.000Z</time>
      </trkpt>
      <trkpt lat="45.87285" lon="4.78055">
        <ele>266</ele>
        <time>2000-01-01T00:39:31.000Z</time>
      </trkpt>
      <trkpt lat="45.87275" lon="4.78068">
        <ele>262.9</ele>
        <time>2000-01-01T00:39:41.000Z</time>
      </trkpt>
      <trkpt lat="45.87266" lon="4.78079">
        <ele>265</ele>
        <time>2000-01-01T00:39:51.000Z</time>
      </trkpt>
      <trkpt lat="45.87261" lon="4.78085">
        <ele>261.9</ele>
        <time>2000-01-01T00:40:01.000Z</time>
      </trkpt>
      <trkpt lat="45.87251" lon="4.78097">
        <ele>265</ele>
        <time>2000-01-01T00:40:11.000Z</time>
      </trkpt>
      <trkpt lat="45.8724" lon="4.78108">
        <ele>262</ele>
        <time>2000-01-01T00:40:21.000Z</time>
      </trkpt>
      <trkpt lat="45.87229" lon="4.78115">
        <ele>268</ele>
        <time>2000-01-01T00:40:31.000Z</time>
      </trkpt>
      <trkpt lat="45.87219" lon="4.78123">
        <ele>263.6</ele>
        <time>2000-01-01T00:40:41.000Z</time>
      </trkpt>
      <trkpt lat="45.87215" lon="4.78128">
        <ele>263.6</ele>
        <time>2000-01-01T00:40:51.000Z</time>
      </trkpt>
      <trkpt lat="45.87211" lon="4.7813">
        <ele>268.5</ele>
        <time>2000-01-01T00:41:01.000Z</time>
      </trkpt>
      <trkpt lat="45.87206" lon="4.78136">
        <ele>263.6</ele>
        <time>2000-01-01T00:41:11.000Z</time>
      </trkpt>
      <trkpt lat="45.87204" lon="4.78137">
        <ele>263.6</ele>
        <time>2000-01-01T00:41:21.000Z</time>
      </trkpt>
      <trkpt lat="45.87195" lon="4.78139">
        <ele>264</ele>
        <time>2000-01-01T00:41:31.000Z</time>
      </trkpt>
      <trkpt lat="45.87183" lon="4.78145">
        <ele>269</ele>
        <time>2000-01-01T00:41:41.000Z</time>
      </trkpt>
      <trkpt lat="45.87178" lon="4.78148">
        <ele>265.8</ele>
        <time>2000-01-01T00:41:51.000Z</time>
      </trkpt>
      <trkpt lat="45.87169" lon="4.78157">
        <ele>265.9</ele>
        <time>2000-01-01T00:42:01.000Z</time>
      </trkpt>
      <trkpt lat="45.87171" lon="4.78177">
        <ele>271</ele>
        <time>2000-01-01T00:42:11.000Z</time>
      </trkpt>
      <trkpt lat="45.87171" lon="4.7819">
        <ele>265.6</ele>
        <time>2000-01-01T00:42:21.000Z</time>
      </trkpt>
      <trkpt lat="45.87171" lon="4.78204">
        <ele>265.7</ele>
        <time>2000-01-01T00:42:31.000Z</time>
      </trkpt>
      <trkpt lat="45.87168" lon="4.78223">
        <ele>270.5</ele>
        <time>2000-01-01T00:42:41.000Z</time>
      </trkpt>
      <trkpt lat="45.87162" lon="4.78239">
        <ele>267.5</ele>
        <time>2000-01-01T00:42:51.000Z</time>
      </trkpt>
      <trkpt lat="45.87161" lon="4.78244">
        <ele>268</ele>
        <time>2000-01-01T00:43:01.000Z</time>
      </trkpt>
      <trkpt lat="45.87161" lon="4.78262">
        <ele>270.7</ele>
        <time>2000-01-01T00:43:11.000Z</time>
      </trkpt>
      <trkpt lat="45.8716" lon="4.78278">
        <ele>269.7</ele>
        <time>2000-01-01T00:43:21.000Z</time>
      </trkpt>
      <trkpt lat="45.87159" lon="4.78297">
        <ele>271</ele>
        <time>2000-01-01T00:43:31.000Z</time>
      </trkpt>
      <trkpt lat="45.87159" lon="4.78311">
        <ele>271.9</ele>
        <time>2000-01-01T00:43:41.000Z</time>
      </trkpt>
      <trkpt lat="45.8716" lon="4.78329">
        <ele>272</ele>
        <time>2000-01-01T00:43:51.000Z</time>
      </trkpt>
      <trkpt lat="45.87159" lon="4.78333">
        <ele>273.3</ele>
        <time>2000-01-01T00:44:01.000Z</time>
      </trkpt>
      <trkpt lat="45.87153" lon="4.78343">
        <ele>274.7</ele>
        <time>2000-01-01T00:44:11.000Z</time>
      </trkpt>
      <trkpt lat="45.87146" lon="4.78348">
        <ele>275</ele>
        <time>2000-01-01T00:44:21.000Z</time>
      </trkpt>
      <trkpt lat="45.87137" lon="4.78353">
        <ele>276.2</ele>
        <time>2000-01-01T00:44:31.000Z</time>
      </trkpt>
      <trkpt lat="45.8713" lon="4.78358">
        <ele>277</ele>
        <time>2000-01-01T00:44:41.000Z</time>
      </trkpt>
      <trkpt lat="45.8712" lon="4.78364">
        <ele>276</ele>
        <time>2000-01-01T00:44:51.000Z</time>
      </trkpt>
      <trkpt lat="45.87117" lon="4.78366">
        <ele>278.6</ele>
        <time>2000-01-01T00:45:01.000Z</time>
      </trkpt>
      <trkpt lat="45.87112" lon="4.78371">
        <ele>279.7</ele>
        <time>2000-01-01T00:45:11.000Z</time>
      </trkpt>
      <trkpt lat="45.87103" lon="4.78378">
        <ele>274.5</ele>
        <time>2000-01-01T00:45:21.000Z</time>
      </trkpt>
      <trkpt lat="45.87095" lon="4.78387">
        <ele>282.7</ele>
        <time>2000-01-01T00:45:31.000Z</time>
      </trkpt>
      <trkpt lat="45.8709" lon="4.78391">
        <ele>283.3</ele>
        <time>2000-01-01T00:45:41.000Z</time>
      </trkpt>
      <trkpt lat="45.87084" lon="4.78397">
        <ele>275.7</ele>
        <time>2000-01-01T00:45:51.000Z</time>
      </trkpt>
      <trkpt lat="45.87079" lon="4.78402">
        <ele>284.9</ele>
        <time>2000-01-01T00:46:01.000Z</time>
      </trkpt>
      <trkpt lat="45.87072" lon="4.78408">
        <ele>285.8</ele>
        <time>2000-01-01T00:46:11.000Z</time>
      </trkpt>
      <trkpt lat="45.87067" lon="4.78414">
        <ele>277</ele>
        <time>2000-01-01T00:46:21.000Z</time>
      </trkpt>
      <trkpt lat="45.87059" lon="4.78423">
        <ele>287.9</ele>
        <time>2000-01-01T00:46:31.000Z</time>
      </trkpt>
      <trkpt lat="45.87051" lon="4.78431">
        <ele>281</ele>
        <time>2000-01-01T00:46:41.000Z</time>
      </trkpt>
      <trkpt lat="45.87043" lon="4.7844">
        <ele>290</ele>
        <time>2000-01-01T00:46:51.000Z</time>
      </trkpt>
      <trkpt lat="45.87034" lon="4.78451">
        <ele>284</ele>
        <time>2000-01-01T00:47:01.000Z</time>
      </trkpt>
      <trkpt lat="45.87024" lon="4.78459">
        <ele>292.6</ele>
        <time>2000-01-01T00:47:11.000Z</time>
      </trkpt>
      <trkpt lat="45.87015" lon="4.78466">
        <ele>287</ele>
        <time>2000-01-01T00:47:21.000Z</time>
      </trkpt>
      <trkpt lat="45.87007" lon="4.78471">
        <ele>294.1</ele>
        <time>2000-01-01T00:47:31.000Z</time>
      </trkpt>
      <trkpt lat="45.87002" lon="4.78475">
        <ele>294.7</ele>
        <time>2000-01-01T00:47:41.000Z</time>
      </trkpt>
      <trkpt lat="45.86994" lon="4.78479">
        <ele>293</ele>
        <time>2000-01-01T00:47:51.000Z</time>
      </trkpt>
      <trkpt lat="45.86986" lon="4.78483">
        <ele>296.9</ele>
        <time>2000-01-01T00:48:01.000Z</time>
      </trkpt>
      <trkpt lat="45.86977" lon="4.78491">
        <ele>297</ele>
        <time>2000-01-01T00:48:11.000Z</time>
      </trkpt>
      <trkpt lat="45.86972" lon="4.78495">
        <ele>299.3</ele>
        <time>2000-01-01T00:48:21.000Z</time>
      </trkpt>
      <trkpt lat="45.86967" lon="4.78497">
        <ele>299.8</ele>
        <time>2000-01-01T00:48:31.000Z</time>
      </trkpt>
      <trkpt lat="45.86955" lon="4.78505">
        <ele>300.5</ele>
        <time>2000-01-01T00:48:41.000Z</time>
      </trkpt>
      <trkpt lat="45.86946" lon="4.78513">
        <ele>303.8</ele>
        <time>2000-01-01T00:48:51.000Z</time>
      </trkpt>
      <trkpt lat="45.8694" lon="4.78522">
        <ele>304</ele>
        <time>2000-01-01T00:49:01.000Z</time>
      </trkpt>
      <trkpt lat="45.86933" lon="4.78528">
        <ele>307.1</ele>
        <time>2000-01-01T00:49:11.000Z</time>
      </trkpt>
      <trkpt lat="45.86926" lon="4.78535">
        <ele>309.2</ele>
        <time>2000-01-01T00:49:21.000Z</time>
      </trkpt>
      <trkpt lat="45.86916" lon="4.78536">
        <ele>309</ele>
        <time>2000-01-01T00:49:31.000Z</time>
      </trkpt>
      <trkpt lat="45.86908" lon="4.7854">
        <ele>310.6</ele>
        <time>2000-01-01T00:49:41.000Z</time>
      </trkpt>
      <trkpt lat="45.86899" lon="4.78548">
        <ele>312.2</ele>
        <time>2000-01-01T00:49:51.000Z</time>
      </trkpt>
      <trkpt lat="45.86895" lon="4.7855">
        <ele>311</ele>
        <time>2000-01-01T00:50:01.000Z</time>
      </trkpt>
      <trkpt lat="45.86885" lon="4.78555">
        <ele>313.2</ele>
        <time>2000-01-01T00:50:11.000Z</time>
      </trkpt>
      <trkpt lat="45.86879" lon="4.78564">
        <ele>316.5</ele>
        <time>2000-01-01T00:50:21.000Z</time>
      </trkpt>
      <trkpt lat="45.86878" lon="4.78567">
        <ele>320</ele>
        <time>2000-01-01T00:50:31.000Z</time>
      </trkpt>
      <trkpt lat="45.86869" lon="4.78568">
        <ele>317.8</ele>
        <time>2000-01-01T00:50:41.000Z</time>
      </trkpt>
      <trkpt lat="45.86864" lon="4.7857">
        <ele>318.2</ele>
        <time>2000-01-01T00:50:51.000Z</time>
      </trkpt>
      <trkpt lat="45.86857" lon="4.78575">
        <ele>320</ele>
        <time>2000-01-01T00:51:01.000Z</time>
      </trkpt>
      <trkpt lat="45.86846" lon="4.7858">
        <ele>320.5</ele>
        <time>2000-01-01T00:51:11.000Z</time>
      </trkpt>
      <trkpt lat="45.8684" lon="4.78584">
        <ele>321.2</ele>
        <time>2000-01-01T00:51:21.000Z</time>
      </trkpt>
      <trkpt lat="45.86826" lon="4.78596">
        <ele>325</ele>
        <time>2000-01-01T00:51:31.000Z</time>
      </trkpt>
      <trkpt lat="45.8682" lon="4.786">
        <ele>326.9</ele>
        <time>2000-01-01T00:51:41.000Z</time>
      </trkpt>
      <trkpt lat="45.86814" lon="4.78603">
        <ele>327.7</ele>
        <time>2000-01-01T00:51:51.000Z</time>
      </trkpt>
      <trkpt lat="45.86805" lon="4.78604">
        <ele>329</ele>
        <time>2000-01-01T00:52:01.000Z</time>
      </trkpt>
      <trkpt lat="45.868" lon="4.78603">
        <ele>328.7</ele>
        <time>2000-01-01T00:52:11.000Z</time>
      </trkpt>
      <trkpt lat="45.86797" lon="4.78602">
        <ele>329</ele>
        <time>2000-01-01T00:52:21.000Z</time>
      </trkpt>
      <trkpt lat="45.86794" lon="4.78604">
        <ele>329.7</ele>
        <time>2000-01-01T00:52:31.000Z</time>
      </trkpt>
      <trkpt lat="45.8679" lon="4.78603">
        <ele>330.2</ele>
        <time>2000-01-01T00:52:41.000Z</time>
      </trkpt>
      <trkpt lat="45.86786" lon="4.78603">
        <ele>345</ele>
        <time>2000-01-01T00:52:51.000Z</time>
      </trkpt>
      <trkpt lat="45.86779" lon="4.78604">
        <ele>332</ele>
        <time>2000-01-01T00:53:01.000Z</time>
      </trkpt>
      <trkpt lat="45.86776" lon="4.78605">
        <ele>332.7</ele>
        <time>2000-01-01T00:53:11.000Z</time>
      </trkpt>
      <trkpt lat="45.86768" lon="4.78609">
        <ele>334.6</ele>
        <time>2000-01-01T00:53:21.000Z</time>
      </trkpt>
      <trkpt lat="45.86765" lon="4.78614">
        <ele>352</ele>
        <time>2000-01-01T00:53:31.000Z</time>
      </trkpt>
      <trkpt lat="45.86766" lon="4.78616">
        <ele>336.2</ele>
        <time>2000-01-01T00:53:41.000Z</time>
      </trkpt>
      <trkpt lat="45.86779" lon="4.7862">
        <ele>335.1</ele>
        <time>2000-01-01T00:53:51.000Z</time>
      </trkpt>
      <trkpt lat="45.86787" lon="4.78624">
        <ele>352</ele>
        <time>2000-01-01T00:54:01.000Z</time>
      </trkpt>
      <trkpt lat="45.86796" lon="4.78627">
        <ele>335.9</ele>
        <time>2000-01-01T00:54:11.000Z</time>
      </trkpt>
      <trkpt lat="45.86805" lon="4.78629">
        <ele>336.1</ele>
        <time>2000-01-01T00:54:21.000Z</time>
      </trkpt>
      <trkpt lat="45.86811" lon="4.7863">
        <ele>352</ele>
        <time>2000-01-01T00:54:31.000Z</time>
      </trkpt>
      <trkpt lat="45.8682" lon="4.78637">
        <ele>340.3</ele>
        <time>2000-01-01T00:54:41.000Z</time>
      </trkpt>
      <trkpt lat="45.86827" lon="4.78642">
        <ele>342.7</ele>
        <time>2000-01-01T00:54:51.000Z</time>
      </trkpt>
      <trkpt lat="45.8683" lon="4.78643">
        <ele>347</ele>
        <time>2000-01-01T00:55:01.000Z</time>
      </trkpt>
      <trkpt lat="45.86842" lon="4.78649">
        <ele>346.1</ele>
        <time>2000-01-01T00:55:11.000Z</time>
      </trkpt>
      <trkpt lat="45.86847" lon="4.7865">
        <ele>346.7</ele>
        <time>2000-01-01T00:55:21.000Z</time>
      </trkpt>
      <trkpt lat="45.86853" lon="4.78655">
        <ele>345</ele>
        <time>2000-01-01T00:55:31.000Z</time>
      </trkpt>
      <trkpt lat="45.8686" lon="4.78657">
        <ele>350.1</ele>
        <time>2000-01-01T00:55:41.000Z</time>
      </trkpt>
      <trkpt lat="45.86868" lon="4.78659">
        <ele>351.3</ele>
        <time>2000-01-01T00:55:51.000Z</time>
      </trkpt>
      <trkpt lat="45.86877" lon="4.78664">
        <ele>345.5</ele>
        <time>2000-01-01T00:56:01.000Z</time>
      </trkpt>
      <trkpt lat="45.86881" lon="4.78667">
        <ele>354.8</ele>
        <time>2000-01-01T00:56:11.000Z</time>
      </trkpt>
      <trkpt lat="45.86888" lon="4.7867">
        <ele>356.2</ele>
        <time>2000-01-01T00:56:21.000Z</time>
      </trkpt>
      <trkpt lat="45.86896" lon="4.78674">
        <ele>346</ele>
        <time>2000-01-01T00:56:31.000Z</time>
      </trkpt>
      <trkpt lat="45.86903" lon="4.78677">
        <ele>358.5</ele>
        <time>2000-01-01T00:56:41.000Z</time>
      </trkpt>
      <trkpt lat="45.86913" lon="4.78683">
        <ele>360.4</ele>
        <time>2000-01-01T00:56:51.000Z</time>
      </trkpt>
      <trkpt lat="45.8692" lon="4.78685">
        <ele>346</ele>
        <time>2000-01-01T00:57:01.000Z</time>
      </trkpt>
      <trkpt lat="45.86931" lon="4.78689">
        <ele>360.7</ele>
        <time>2000-01-01T00:57:11.000Z</time>
      </trkpt>
      <trkpt lat="45.86941" lon="4.78691">
        <ele>353.5</ele>
        <time>2000-01-01T00:57:21.000Z</time>
      </trkpt>
      <trkpt lat="45.86952" lon="4.78695">
        <ele>360.9</ele>
        <time>2000-01-01T00:57:31.000Z</time>
      </trkpt>
      <trkpt lat="45.86961" lon="4.787">
        <ele>361</ele>
        <time>2000-01-01T00:57:41.000Z</time>
      </trkpt>
      <trkpt lat="45.86967" lon="4.7871">
        <ele>364.1</ele>
        <time>2000-01-01T00:57:51.000Z</time>
      </trkpt>
      <trkpt lat="45.86969" lon="4.78717">
        <ele>365.8</ele>
        <time>2000-01-01T00:58:01.000Z</time>
      </trkpt>
      <trkpt lat="45.86972" lon="4.78731">
        <ele>365</ele>
        <time>2000-01-01T00:58:11.000Z</time>
      </trkpt>
      <trkpt lat="45.86972" lon="4.78738">
        <ele>368.2</ele>
        <time>2000-01-01T00:58:21.000Z</time>
      </trkpt>
      <trkpt lat="45.86969" lon="4.78745">
        <ele>368.9</ele>
        <time>2000-01-01T00:58:31.000Z</time>
      </trkpt>
      <trkpt lat="45.86961" lon="4.78753">
        <ele>373</ele>
        <time>2000-01-01T00:58:41.000Z</time>
      </trkpt>
      <trkpt lat="45.86955" lon="4.78757">
        <ele>371.4</ele>
        <time>2000-01-01T00:58:51.000Z</time>
      </trkpt>
      <trkpt lat="45.86945" lon="4.7876">
        <ele>372.7</ele>
        <time>2000-01-01T00:59:01.000Z</time>
      </trkpt>
      <trkpt lat="45.86938" lon="4.78762">
        <ele>379</ele>
        <time>2000-01-01T00:59:11.000Z</time>
      </trkpt>
      <trkpt lat="45.8693" lon="4.78763">
        <ele>375.5</ele>
        <time>2000-01-01T00:59:21.000Z</time>
      </trkpt>
      <trkpt lat="45.86927" lon="4.78765">
        <ele>376.2</ele>
        <time>2000-01-01T00:59:31.000Z</time>
      </trkpt>
      <trkpt lat="45.86914" lon="4.78768">
        <ele>383</ele>
        <time>2000-01-01T00:59:41.000Z</time>
      </trkpt>
      <trkpt lat="45.86907" lon="4.78769">
        <ele>380.1</ele>
        <time>2000-01-01T00:59:51.000Z</time>
      </trkpt>
      <trkpt lat="45.86904" lon="4.7877">
        <ele>380.7</ele>
        <time>2000-01-01T01:00:01.000Z</time>
      </trkpt>
      <trkpt lat="45.86903" lon="4.78772">
        <ele>381</ele>
        <time>2000-01-01T01:00:11.000Z</time>
      </trkpt>
      <trkpt lat="45.86895" lon="4.78775">
        <ele>383</ele>
        <time>2000-01-01T01:00:21.000Z</time>
      </trkpt>
      <trkpt lat="45.8689" lon="4.78778">
        <ele>383.8</ele>
        <time>2000-01-01T01:00:31.000Z</time>
      </trkpt>
      <trkpt lat="45.86883" lon="4.78784">
        <ele>384.5</ele>
        <time>2000-01-01T01:00:41.000Z</time>
      </trkpt>
      <trkpt lat="45.86873" lon="4.78792">
        <ele>383.5</ele>
        <time>2000-01-01T01:00:51.000Z</time>
      </trkpt>
      <trkpt lat="45.86864" lon="4.78797">
        <ele>386.4</ele>
        <time>2000-01-01T01:01:01.000Z</time>
      </trkpt>
      <trkpt lat="45.86862" lon="4.78799">
        <ele>386.7</ele>
        <time>2000-01-01T01:01:11.000Z</time>
      </trkpt>
      <trkpt lat="45.86852" lon="4.78807">
        <ele>384</ele>
        <time>2000-01-01T01:01:21.000Z</time>
      </trkpt>
      <trkpt lat="45.86845" lon="4.78812">
        <ele>388.2</ele>
        <time>2000-01-01T01:01:31.000Z</time>
      </trkpt>
      <trkpt lat="45.86836" lon="4.78815">
        <ele>389.1</ele>
        <time>2000-01-01T01:01:41.000Z</time>
      </trkpt>
      <trkpt lat="45.86827" lon="4.78818">
        <ele>384</ele>
        <time>2000-01-01T01:01:51.000Z</time>
      </trkpt>
      <trkpt lat="45.86821" lon="4.7882">
        <ele>391.3</ele>
        <time>2000-01-01T01:02:01.000Z</time>
      </trkpt>
      <trkpt lat="45.86813" lon="4.78823">
        <ele>392.7</ele>
        <time>2000-01-01T01:02:11.000Z</time>
      </trkpt>
      <trkpt lat="45.86801" lon="4.78827">
        <ele>387</ele>
        <time>2000-01-01T01:02:21.000Z</time>
      </trkpt>
      <trkpt lat="45.86798" lon="4.78828">
        <ele>395.5</ele>
        <time>2000-01-01T01:02:31.000Z</time>
      </trkpt>
      <trkpt lat="45.86789" lon="4.78829">
        <ele>396.8</ele>
        <time>2000-01-01T01:02:41.000Z</time>
      </trkpt>
      <trkpt lat="45.86781" lon="4.78832">
        <ele>396</ele>
        <time>2000-01-01T01:02:51.000Z</time>
      </trkpt>
      <trkpt lat="45.86778" lon="4.78833">
        <ele>398.9</ele>
        <time>2000-01-01T01:03:01.000Z</time>
      </trkpt>
      <trkpt lat="45.86776" lon="4.78833">
        <ele>399.2</ele>
        <time>2000-01-01T01:03:11.000Z</time>
      </trkpt>
      <trkpt lat="45.86768" lon="4.78835">
        <ele>400.7</ele>
        <time>2000-01-01T01:03:21.000Z</time>
      </trkpt>
      <trkpt lat="45.86766" lon="4.7884">
        <ele>401.9</ele>
        <time>2000-01-01T01:03:31.000Z</time>
      </trkpt>
      <trkpt lat="45.86769" lon="4.78854">
        <ele>397</ele>
        <time>2000-01-01T01:03:41.000Z</time>
      </trkpt>
      <trkpt lat="45.86773" lon="4.78865">
        <ele>405</ele>
        <time>2000-01-01T01:03:51.000Z</time>
      </trkpt>
      <trkpt lat="45.86772" lon="4.78875">
        <ele>406</ele>
        <time>2000-01-01T01:04:01.000Z</time>
      </trkpt>
      <trkpt lat="45.86774" lon="4.78885">
        <ele>404</ele>
        <time>2000-01-01T01:04:11.000Z</time>
      </trkpt>
      <trkpt lat="45.86774" lon="4.78901">
        <ele>407.7</ele>
        <time>2000-01-01T01:04:21.000Z</time>
      </trkpt>
      <trkpt lat="45.86772" lon="4.78913">
        <ele>404</ele>
        <time>2000-01-01T01:04:31.000Z</time>
      </trkpt>
      <trkpt lat="45.86769" lon="4.78922">
        <ele>410.1</ele>
        <time>2000-01-01T01:04:41.000Z</time>
      </trkpt>
      <trkpt lat="45.86765" lon="4.78936">
        <ele>411.5</ele>
        <time>2000-01-01T01:04:51.000Z</time>
      </trkpt>
      <trkpt lat="45.86759" lon="4.78944">
        <ele>404</ele>
        <time>2000-01-01T01:05:01.000Z</time>
      </trkpt>
      <trkpt lat="45.86754" lon="4.78951">
        <ele>414.1</ele>
        <time>2000-01-01T01:05:11.000Z</time>
      </trkpt>
      <trkpt lat="45.86749" lon="4.78963">
        <ele>415.3</ele>
        <time>2000-01-01T01:05:21.000Z</time>
      </trkpt>
      <trkpt lat="45.86746" lon="4.78973">
        <ele>409</ele>
        <time>2000-01-01T01:05:31.000Z</time>
      </trkpt>
      <trkpt lat="45.86745" lon="4.78985">
        <ele>417</ele>
        <time>2000-01-01T01:05:41.000Z</time>
      </trkpt>
      <trkpt lat="45.86744" lon="4.78997">
        <ele>417.8</ele>
        <time>2000-01-01T01:05:51.000Z</time>
      </trkpt>
      <trkpt lat="45.86742" lon="4.79011">
        <ele>409</ele>
        <time>2000-01-01T01:06:01.000Z</time>
      </trkpt>
      <trkpt lat="45.8674" lon="4.79016">
        <ele>419.1</ele>
        <time>2000-01-01T01:06:11.000Z</time>
      </trkpt>
      <trkpt lat="45.86738" lon="4.79027">
        <ele>419.8</ele>
        <time>2000-01-01T01:06:21.000Z</time>
      </trkpt>
      <trkpt lat="45.86735" lon="4.79039">
        <ele>409</ele>
        <time>2000-01-01T01:06:31.000Z</time>
      </trkpt>
      <trkpt lat="45.8673" lon="4.7905">
        <ele>421.5</ele>
        <time>2000-01-01T01:06:41.000Z</time>
      </trkpt>
      <trkpt lat="45.86726" lon="4.79061">
        <ele>422.2</ele>
        <time>2000-01-01T01:06:51.000Z</time>
      </trkpt>
      <trkpt lat="45.86717" lon="4.79071">
        <ele>417</ele>
        <time>2000-01-01T01:07:01.000Z</time>
      </trkpt>
      <trkpt lat="45.86707" lon="4.79084">
        <ele>425.3</ele>
        <time>2000-01-01T01:07:11.000Z</time>
      </trkpt>
      <trkpt lat="45.86698" lon="4.79098">
        <ele>420</ele>
        <time>2000-01-01T01:07:21.000Z</time>
      </trkpt>
      <trkpt lat="45.86689" lon="4.79112">
        <ele>426.7</ele>
        <time>2000-01-01T01:07:31.000Z</time>
      </trkpt>
      <trkpt lat="45.86682" lon="4.79127">
        <ele>427</ele>
        <time>2000-01-01T01:07:41.000Z</time>
      </trkpt>
      <trkpt lat="45.86676" lon="4.79142">
        <ele>427.2</ele>
        <time>2000-01-01T01:07:51.000Z</time>
      </trkpt>
      <trkpt lat="45.86673" lon="4.79159">
        <ele>427</ele>
        <time>2000-01-01T01:08:01.000Z</time>
      </trkpt>
      <trkpt lat="45.86671" lon="4.79166">
        <ele>427.2</ele>
        <time>2000-01-01T01:08:11.000Z</time>
      </trkpt>
      <trkpt lat="45.86667" lon="4.79184">
        <ele>427.9</ele>
        <time>2000-01-01T01:08:21.000Z</time>
      </trkpt>
      <trkpt lat="45.8666" lon="4.79201">
        <ele>430</ele>
        <time>2000-01-01T01:08:31.000Z</time>
      </trkpt>
      <trkpt lat="45.86659" lon="4.79216">
        <ele>428.8</ele>
        <time>2000-01-01T01:08:41.000Z</time>
      </trkpt>
      <trkpt lat="45.86658" lon="4.79233">
        <ele>431</ele>
        <time>2000-01-01T01:08:51.000Z</time>
      </trkpt>
      <trkpt lat="45.86657" lon="4.79249">
        <ele>429.1</ele>
        <time>2000-01-01T01:09:01.000Z</time>
      </trkpt>
      <trkpt lat="45.86656" lon="4.79266">
        <ele>432</ele>
        <time>2000-01-01T01:09:11.000Z</time>
      </trkpt>
      <trkpt lat="45.86654" lon="4.79281">
        <ele>430.4</ele>
        <time>2000-01-01T01:09:21.000Z</time>
      </trkpt>
      <trkpt lat="45.86653" lon="4.79299">
        <ele>436</ele>
        <time>2000-01-01T01:09:31.000Z</time>
      </trkpt>
      <trkpt lat="45.86654" lon="4.7931">
        <ele>431.4</ele>
        <time>2000-01-01T01:09:41.000Z</time>
      </trkpt>
      <trkpt lat="45.86654" lon="4.79327">
        <ele>435.5</ele>
        <time>2000-01-01T01:09:51.000Z</time>
      </trkpt>
      <trkpt lat="45.86652" lon="4.79342">
        <ele>433.1</ele>
        <time>2000-01-01T01:10:01.000Z</time>
      </trkpt>
      <trkpt lat="45.86652" lon="4.79352">
        <ele>433.7</ele>
        <time>2000-01-01T01:10:11.000Z</time>
      </trkpt>
      <trkpt lat="45.86652" lon="4.7936">
        <ele>435.7</ele>
        <time>2000-01-01T01:10:21.000Z</time>
      </trkpt>
      <trkpt lat="45.86649" lon="4.79361">
        <ele>434.8</ele>
        <time>2000-01-01T01:10:31.000Z</time>
      </trkpt>
      <trkpt lat="45.86645" lon="4.79336">
        <ele>435.3</ele>
        <time>2000-01-01T01:10:41.000Z</time>
      </trkpt>
      <trkpt lat="45.86641" lon="4.79324">
        <ele>434.3</ele>
        <time>2000-01-01T01:10:51.000Z</time>
      </trkpt>
      <trkpt lat="45.86636" lon="4.79306">
        <ele>435</ele>
        <time>2000-01-01T01:11:01.000Z</time>
      </trkpt>
      <trkpt lat="45.8663" lon="4.79289">
        <ele>435</ele>
        <time>2000-01-01T01:11:11.000Z</time>
      </trkpt>
      <trkpt lat="45.86623" lon="4.79273">
        <ele>435.5</ele>
        <time>2000-01-01T01:11:21.000Z</time>
      </trkpt>
      <trkpt lat="45.86616" lon="4.79259">
        <ele>436.6</ele>
        <time>2000-01-01T01:11:31.000Z</time>
      </trkpt>
      <trkpt lat="45.86609" lon="4.79244">
        <ele>436</ele>
        <time>2000-01-01T01:11:41.000Z</time>
      </trkpt>
      <trkpt lat="45.86605" lon="4.79236">
        <ele>437.6</ele>
        <time>2000-01-01T01:11:51.000Z</time>
      </trkpt>
      <trkpt lat="45.86598" lon="4.79221">
        <ele>436</ele>
        <time>2000-01-01T01:12:01.000Z</time>
      </trkpt>
      <trkpt lat="45.86591" lon="4.79204">
        <ele>438.7</ele>
        <time>2000-01-01T01:12:11.000Z</time>
      </trkpt>
      <trkpt lat="45.86585" lon="4.79188">
        <ele>436</ele>
        <time>2000-01-01T01:12:21.000Z</time>
      </trkpt>
      <trkpt lat="45.86579" lon="4.79173">
        <ele>439.7</ele>
        <time>2000-01-01T01:12:31.000Z</time>
      </trkpt>
      <trkpt lat="45.86569" lon="4.79159">
        <ele>439</ele>
        <time>2000-01-01T01:12:41.000Z</time>
      </trkpt>
      <trkpt lat="45.86561" lon="4.79146">
        <ele>442.2</ele>
        <time>2000-01-01T01:12:51.000Z</time>
      </trkpt>
      <trkpt lat="45.86557" lon="4.7914">
        <ele>442.8</ele>
        <time>2000-01-01T01:13:01.000Z</time>
      </trkpt>
      <trkpt lat="45.8655" lon="4.79126">
        <ele>440</ele>
        <time>2000-01-01T01:13:11.000Z</time>
      </trkpt>
      <trkpt lat="45.86544" lon="4.79115">
        <ele>444.3</ele>
        <time>2000-01-01T01:13:21.000Z</time>
      </trkpt>
      <trkpt lat="45.86536" lon="4.79102">
        <ele>442</ele>
        <time>2000-01-01T01:13:31.000Z</time>
      </trkpt>
      <trkpt lat="45.8653" lon="4.79088">
        <ele>445.8</ele>
        <time>2000-01-01T01:13:41.000Z</time>
      </trkpt>
      <trkpt lat="45.86522" lon="4.79076">
        <ele>443</ele>
        <time>2000-01-01T01:13:51.000Z</time>
      </trkpt>
      <trkpt lat="45.86512" lon="4.79065">
        <ele>447.7</ele>
        <time>2000-01-01T01:14:01.000Z</time>
      </trkpt>
      <trkpt lat="45.86503" lon="4.79053">
        <ele>443</ele>
        <time>2000-01-01T01:14:11.000Z</time>
      </trkpt>
      <trkpt lat="45.86495" lon="4.79038">
        <ele>448.9</ele>
        <time>2000-01-01T01:14:21.000Z</time>
      </trkpt>
      <trkpt lat="45.86485" lon="4.79022">
        <ele>445</ele>
        <time>2000-01-01T01:14:31.000Z</time>
      </trkpt>
      <trkpt lat="45.86476" lon="4.79012">
        <ele>450.1</ele>
        <time>2000-01-01T01:14:41.000Z</time>
      </trkpt>
      <trkpt lat="45.86472" lon="4.79009">
        <ele>450.3</ele>
        <time>2000-01-01T01:14:51.000Z</time>
      </trkpt>
      <trkpt lat="45.86465" lon="4.78996">
        <ele>449</ele>
        <time>2000-01-01T01:15:01.000Z</time>
      </trkpt>
      <trkpt lat="45.86457" lon="4.78979">
        <ele>450.3</ele>
        <time>2000-01-01T01:15:11.000Z</time>
      </trkpt>
      <trkpt lat="45.86447" lon="4.78965">
        <ele>450</ele>
        <time>2000-01-01T01:15:21.000Z</time>
      </trkpt>
      <trkpt lat="45.86441" lon="4.78954">
        <ele>450.7</ele>
        <time>2000-01-01T01:15:31.000Z</time>
      </trkpt>
      <trkpt lat="45.86435" lon="4.78944">
        <ele>451</ele>
        <time>2000-01-01T01:15:41.000Z</time>
      </trkpt>
      <trkpt lat="45.86429" lon="4.78927">
        <ele>450.5</ele>
        <time>2000-01-01T01:15:51.000Z</time>
      </trkpt>
      <trkpt lat="45.86422" lon="4.78913">
        <ele>451.6</ele>
        <time>2000-01-01T01:16:01.000Z</time>
      </trkpt>
      <trkpt lat="45.86415" lon="4.78896">
        <ele>451</ele>
        <time>2000-01-01T01:16:11.000Z</time>
      </trkpt>
      <trkpt lat="45.8641" lon="4.78881">
        <ele>452.4</ele>
        <time>2000-01-01T01:16:21.000Z</time>
      </trkpt>
      <trkpt lat="45.86402" lon="4.78866">
        <ele>452</ele>
        <time>2000-01-01T01:16:31.000Z</time>
      </trkpt>
      <trkpt lat="45.86395" lon="4.7885">
        <ele>453.1</ele>
        <time>2000-01-01T01:16:41.000Z</time>
      </trkpt>
      <trkpt lat="45.86384" lon="4.78836">
        <ele>453</ele>
        <time>2000-01-01T01:16:51.000Z</time>
      </trkpt>
      <trkpt lat="45.86376" lon="4.78825">
        <ele>454.6</ele>
        <time>2000-01-01T01:17:01.000Z</time>
      </trkpt>
      <trkpt lat="45.86366" lon="4.78815">
        <ele>453</ele>
        <time>2000-01-01T01:17:11.000Z</time>
      </trkpt>
      <trkpt lat="45.86357" lon="4.78805">
        <ele>456.3</ele>
        <time>2000-01-01T01:17:21.000Z</time>
      </trkpt>
      <trkpt lat="45.86354" lon="4.788">
        <ele>456.5</ele>
        <time>2000-01-01T01:17:31.000Z</time>
      </trkpt>
      <trkpt lat="45.86345" lon="4.7879">
        <ele>457</ele>
        <time>2000-01-01T01:17:41.000Z</time>
      </trkpt>
      <trkpt lat="45.86335" lon="4.7878">
        <ele>457.9</ele>
        <time>2000-01-01T01:17:51.000Z</time>
      </trkpt>
      <trkpt lat="45.86324" lon="4.78768">
        <ele>460</ele>
        <time>2000-01-01T01:18:01.000Z</time>
      </trkpt>
      <trkpt lat="45.86315" lon="4.78761">
        <ele>460</ele>
        <time>2000-01-01T01:18:11.000Z</time>
      </trkpt>
      <trkpt lat="45.86306" lon="4.78754">
        <ele>460</ele>
        <time>2000-01-01T01:18:21.000Z</time>
      </trkpt>
      <trkpt lat="45.86298" lon="4.78746">
        <ele>461.4</ele>
        <time>2000-01-01T01:18:31.000Z</time>
      </trkpt>
      <trkpt lat="45.86289" lon="4.78738">
        <ele>461</ele>
        <time>2000-01-01T01:18:41.000Z</time>
      </trkpt>
      <trkpt lat="45.86279" lon="4.7873">
        <ele>462.2</ele>
        <time>2000-01-01T01:18:51.000Z</time>
      </trkpt>
      <trkpt lat="45.86269" lon="4.78723">
        <ele>462</ele>
        <time>2000-01-01T01:19:01.000Z</time>
      </trkpt>
      <trkpt lat="45.86257" lon="4.78717">
        <ele>463.9</ele>
        <time>2000-01-01T01:19:11.000Z</time>
      </trkpt>
      <trkpt lat="45.86247" lon="4.7871">
        <ele>462</ele>
        <time>2000-01-01T01:19:21.000Z</time>
      </trkpt>
      <trkpt lat="45.86235" lon="4.78702">
        <ele>464.6</ele>
        <time>2000-01-01T01:19:31.000Z</time>
      </trkpt>
      <trkpt lat="45.86225" lon="4.78694">
        <ele>462</ele>
        <time>2000-01-01T01:19:41.000Z</time>
      </trkpt>
      <trkpt lat="45.86212" lon="4.78684">
        <ele>465</ele>
        <time>2000-01-01T01:19:51.000Z</time>
      </trkpt>
      <trkpt lat="45.86203" lon="4.78677">
        <ele>462</ele>
        <time>2000-01-01T01:20:01.000Z</time>
      </trkpt>
      <trkpt lat="45.86197" lon="4.78674">
        <ele>465.5</ele>
        <time>2000-01-01T01:20:11.000Z</time>
      </trkpt>
      <trkpt lat="45.86185" lon="4.78667">
        <ele>461</ele>
        <time>2000-01-01T01:20:21.000Z</time>
      </trkpt>
      <trkpt lat="45.86173" lon="4.78658">
        <ele>466.3</ele>
        <time>2000-01-01T01:20:31.000Z</time>
      </trkpt>
      <trkpt lat="45.86165" lon="4.78649">
        <ele>461</ele>
        <time>2000-01-01T01:20:41.000Z</time>
      </trkpt>
      <trkpt lat="45.86154" lon="4.7864">
        <ele>467</ele>
        <time>2000-01-01T01:20:51.000Z</time>
      </trkpt>
      <trkpt lat="45.86145" lon="4.78631">
        <ele>467</ele>
        <time>2000-01-01T01:21:01.000Z</time>
      </trkpt>
      <trkpt lat="45.86133" lon="4.78623">
        <ele>466.3</ele>
        <time>2000-01-01T01:21:11.000Z</time>
      </trkpt>
      <trkpt lat="45.86125" lon="4.78617">
        <ele>473</ele>
        <time>2000-01-01T01:21:21.000Z</time>
      </trkpt>
      <trkpt lat="45.86111" lon="4.78609">
        <ele>466.8</ele>
        <time>2000-01-01T01:21:31.000Z</time>
      </trkpt>
      <trkpt lat="45.86098" lon="4.78599">
        <ele>474</ele>
        <time>2000-01-01T01:21:41.000Z</time>
      </trkpt>
      <trkpt lat="45.86085" lon="4.78594">
        <ele>468</ele>
        <time>2000-01-01T01:21:51.000Z</time>
      </trkpt>
      <trkpt lat="45.86072" lon="4.7859">
        <ele>474</ele>
        <time>2000-01-01T01:22:01.000Z</time>
      </trkpt>
      <trkpt lat="45.86057" lon="4.78581">
        <ele>469.5</ele>
        <time>2000-01-01T01:22:11.000Z</time>
      </trkpt>
      <trkpt lat="45.86047" lon="4.78574">
        <ele>474</ele>
        <time>2000-01-01T01:22:21.000Z</time>
      </trkpt>
      <trkpt lat="45.86036" lon="4.78566">
        <ele>469.1</ele>
        <time>2000-01-01T01:22:31.000Z</time>
      </trkpt>
      <trkpt lat="45.86031" lon="4.78564">
        <ele>469.3</ele>
        <time>2000-01-01T01:22:41.000Z</time>
      </trkpt>
      <trkpt lat="45.86024" lon="4.78558">
        <ele>474</ele>
        <time>2000-01-01T01:22:51.000Z</time>
      </trkpt>
      <trkpt lat="45.8602" lon="4.78558">
        <ele>470</ele>
        <time>2000-01-01T01:23:01.000Z</time>
      </trkpt>
      <trkpt lat="45.86007" lon="4.78549">
        <ele>470.6</ele>
        <time>2000-01-01T01:23:11.000Z</time>
      </trkpt>
      <trkpt lat="45.85995" lon="4.78542">
        <ele>470</ele>
        <time>2000-01-01T01:23:21.000Z</time>
      </trkpt>
      <trkpt lat="45.85983" lon="4.78535">
        <ele>471.3</ele>
        <time>2000-01-01T01:23:31.000Z</time>
      </trkpt>
      <trkpt lat="45.85974" lon="4.7852">
        <ele>470</ele>
        <time>2000-01-01T01:23:41.000Z</time>
      </trkpt>
      <trkpt lat="45.8597" lon="4.7851">
        <ele>472.2</ele>
        <time>2000-01-01T01:23:51.000Z</time>
      </trkpt>
      <trkpt lat="45.85964" lon="4.78492">
        <ele>472</ele>
        <time>2000-01-01T01:24:01.000Z</time>
      </trkpt>
      <trkpt lat="45.85958" lon="4.7848">
        <ele>474.1</ele>
        <time>2000-01-01T01:24:11.000Z</time>
      </trkpt>
      <trkpt lat="45.85951" lon="4.78465">
        <ele>473</ele>
        <time>2000-01-01T01:24:21.000Z</time>
      </trkpt>
      <trkpt lat="45.8594" lon="4.78456">
        <ele>476.8</ele>
        <time>2000-01-01T01:24:31.000Z</time>
      </trkpt>
      <trkpt lat="45.8593" lon="4.7845">
        <ele>476</ele>
        <time>2000-01-01T01:24:41.000Z</time>
      </trkpt>
      <trkpt lat="45.8592" lon="4.78442">
        <ele>478.4</ele>
        <time>2000-01-01T01:24:51.000Z</time>
      </trkpt>
      <trkpt lat="45.85908" lon="4.78436">
        <ele>481</ele>
        <time>2000-01-01T01:25:01.000Z</time>
      </trkpt>
      <trkpt lat="45.85899" lon="4.7843">
        <ele>480.4</ele>
        <time>2000-01-01T01:25:11.000Z</time>
      </trkpt>
      <trkpt lat="45.85893" lon="4.78427">
        <ele>480.8</ele>
        <time>2000-01-01T01:25:21.000Z</time>
      </trkpt>
      <trkpt lat="45.85886" lon="4.78421">
        <ele>481</ele>
        <time>2000-01-01T01:25:31.000Z</time>
      </trkpt>
      <trkpt lat="45.85882" lon="4.78418">
        <ele>481.9</ele>
        <time>2000-01-01T01:25:41.000Z</time>
      </trkpt>
      <trkpt lat="45.85872" lon="4.78414">
        <ele>482.4</ele>
        <time>2000-01-01T01:25:51.000Z</time>
      </trkpt>
      <trkpt lat="45.85863" lon="4.78408">
        <ele>483.5</ele>
        <time>2000-01-01T01:26:01.000Z</time>
      </trkpt>
      <trkpt lat="45.85852" lon="4.784">
        <ele>484.3</ele>
        <time>2000-01-01T01:26:11.000Z</time>
      </trkpt>
      <trkpt lat="45.85839" lon="4.78395">
        <ele>486</ele>
        <time>2000-01-01T01:26:21.000Z</time>
      </trkpt>
      <trkpt lat="45.85828" lon="4.78391">
        <ele>484.9</ele>
        <time>2000-01-01T01:26:31.000Z</time>
      </trkpt>
      <trkpt lat="45.85818" lon="4.78384">
        <ele>488</ele>
        <time>2000-01-01T01:26:41.000Z</time>
      </trkpt>
      <trkpt lat="45.85815" lon="4.78383">
        <ele>485.9</ele>
        <time>2000-01-01T01:26:51.000Z</time>
      </trkpt>
      <trkpt lat="45.85797" lon="4.78373">
        <ele>490</ele>
        <time>2000-01-01T01:27:01.000Z</time>
      </trkpt>
      <trkpt lat="45.85786" lon="4.78369">
        <ele>487.6</ele>
        <time>2000-01-01T01:27:11.000Z</time>
      </trkpt>
      <trkpt lat="45.85775" lon="4.78363">
        <ele>493</ele>
        <time>2000-01-01T01:27:21.000Z</time>
      </trkpt>
      <trkpt lat="45.85769" lon="4.7836">
        <ele>488.2</ele>
        <time>2000-01-01T01:27:31.000Z</time>
      </trkpt>
      <trkpt lat="45.85755" lon="4.78352">
        <ele>493</ele>
        <time>2000-01-01T01:27:41.000Z</time>
      </trkpt>
      <trkpt lat="45.85744" lon="4.78346">
        <ele>489.6</ele>
        <time>2000-01-01T01:27:51.000Z</time>
      </trkpt>
      <trkpt lat="45.8574" lon="4.78343">
        <ele>489.8</ele>
        <time>2000-01-01T01:28:01.000Z</time>
      </trkpt>
      <trkpt lat="45.8573" lon="4.78332">
        <ele>500</ele>
        <time>2000-01-01T01:28:11.000Z</time>
      </trkpt>
      <trkpt lat="45.8572" lon="4.78328">
        <ele>490.8</ele>
        <time>2000-01-01T01:28:21.000Z</time>
      </trkpt>
      <trkpt lat="45.85708" lon="4.78322">
        <ele>500</ele>
        <time>2000-01-01T01:28:31.000Z</time>
      </trkpt>
      <trkpt lat="45.85703" lon="4.7832">
        <ele>491.9</ele>
        <time>2000-01-01T01:28:41.000Z</time>
      </trkpt>
      <trkpt lat="45.85695" lon="4.78318">
        <ele>492.1</ele>
        <time>2000-01-01T01:28:51.000Z</time>
      </trkpt>
      <trkpt lat="45.85688" lon="4.78319">
        <ele>500</ele>
        <time>2000-01-01T01:29:01.000Z</time>
      </trkpt>
      <trkpt lat="45.85682" lon="4.78322">
        <ele>492.3</ele>
        <time>2000-01-01T01:29:11.000Z</time>
      </trkpt>
      <trkpt lat="45.85678" lon="4.78329">
        <ele>492.3</ele>
        <time>2000-01-01T01:29:21.000Z</time>
      </trkpt>
      <trkpt lat="45.85675" lon="4.78345">
        <ele>498</ele>
        <time>2000-01-01T01:29:31.000Z</time>
      </trkpt>
      <trkpt lat="45.85676" lon="4.7836">
        <ele>492</ele>
        <time>2000-01-01T01:29:41.000Z</time>
      </trkpt>
      <trkpt lat="45.85677" lon="4.78374">
        <ele>496</ele>
        <time>2000-01-01T01:29:51.000Z</time>
      </trkpt>
      <trkpt lat="45.8568" lon="4.78387">
        <ele>492.5</ele>
        <time>2000-01-01T01:30:01.000Z</time>
      </trkpt>
      <trkpt lat="45.85684" lon="4.78401">
        <ele>495</ele>
        <time>2000-01-01T01:30:11.000Z</time>
      </trkpt>
      <trkpt lat="45.85686" lon="4.78413">
        <ele>493.3</ele>
        <time>2000-01-01T01:30:21.000Z</time>
      </trkpt>
      <trkpt lat="45.85689" lon="4.78426">
        <ele>493.9</ele>
        <time>2000-01-01T01:30:31.000Z</time>
      </trkpt>
      <trkpt lat="45.85693" lon="4.78441">
        <ele>495</ele>
        <time>2000-01-01T01:30:41.000Z</time>
      </trkpt>
      <trkpt lat="45.85696" lon="4.78455">
        <ele>496</ele>
        <time>2000-01-01T01:30:51.000Z</time>
      </trkpt>
      <trkpt lat="45.85698" lon="4.78462">
        <ele>496.5</ele>
        <time>2000-01-01T01:31:01.000Z</time>
      </trkpt>
      <trkpt lat="45.85704" lon="4.7847">
        <ele>497</ele>
        <time>2000-01-01T01:31:11.000Z</time>
      </trkpt>
      <trkpt lat="45.85708" lon="4.78479">
        <ele>497.8</ele>
        <time>2000-01-01T01:31:21.000Z</time>
      </trkpt>
      <trkpt lat="45.85712" lon="4.7849">
        <ele>499.1</ele>
        <time>2000-01-01T01:31:31.000Z</time>
      </trkpt>
      <trkpt lat="45.85722" lon="4.78501">
        <ele>500</ele>
        <time>2000-01-01T01:31:41.000Z</time>
      </trkpt>
      <trkpt lat="45.85728" lon="4.78506">
        <ele>499.4</ele>
        <time>2000-01-01T01:31:51.000Z</time>
      </trkpt>
      <trkpt lat="45.85733" lon="4.78515">
        <ele>500.5</ele>
        <time>2000-01-01T01:32:01.000Z</time>
      </trkpt>
      <trkpt lat="45.85737" lon="4.78521">
        <ele>499.5</ele>
        <time>2000-01-01T01:32:11.000Z</time>
      </trkpt>
      <trkpt lat="45.85742" lon="4.78529">
        <ele>501.8</ele>
        <time>2000-01-01T01:32:21.000Z</time>
      </trkpt>
      <trkpt lat="45.8575" lon="4.78537">
        <ele>502.7</ele>
        <time>2000-01-01T01:32:31.000Z</time>
      </trkpt>
      <trkpt lat="45.85757" lon="4.78539">
        <ele>499</ele>
        <time>2000-01-01T01:32:41.000Z</time>
      </trkpt>
      <trkpt lat="45.85764" lon="4.78541">
        <ele>500.6</ele>
        <time>2000-01-01T01:32:51.000Z</time>
      </trkpt>
      <trkpt lat="45.85777" lon="4.78552">
        <ele>499</ele>
        <time>2000-01-01T01:33:01.000Z</time>
      </trkpt>
      <trkpt lat="45.85782" lon="4.78561">
        <ele>500.9</ele>
        <time>2000-01-01T01:33:11.000Z</time>
      </trkpt>
      <trkpt lat="45.85785" lon="4.78571">
        <ele>503.1</ele>
        <time>2000-01-01T01:33:21.000Z</time>
      </trkpt>
      <trkpt lat="45.85789" lon="4.78581">
        <ele>504</ele>
        <time>2000-01-01T01:33:31.000Z</time>
      </trkpt>
      <trkpt lat="45.85793" lon="4.78591">
        <ele>506.6</ele>
        <time>2000-01-01T01:33:41.000Z</time>
      </trkpt>
      <trkpt lat="45.85799" lon="4.78605">
        <ele>505</ele>
        <time>2000-01-01T01:33:51.000Z</time>
      </trkpt>
      <trkpt lat="45.85806" lon="4.78614">
        <ele>508.5</ele>
        <time>2000-01-01T01:34:01.000Z</time>
      </trkpt>
      <trkpt lat="45.85811" lon="4.78626">
        <ele>506</ele>
        <time>2000-01-01T01:34:11.000Z</time>
      </trkpt>
      <trkpt lat="45.85814" lon="4.78637">
        <ele>510.9</ele>
        <time>2000-01-01T01:34:21.000Z</time>
      </trkpt>
      <trkpt lat="45.85815" lon="4.78643">
        <ele>511.5</ele>
        <time>2000-01-01T01:34:31.000Z</time>
      </trkpt>
      <trkpt lat="45.85817" lon="4.7866">
        <ele>510</ele>
        <time>2000-01-01T01:34:41.000Z</time>
      </trkpt>
      <trkpt lat="45.8582" lon="4.78676">
        <ele>514.7</ele>
        <time>2000-01-01T01:34:51.000Z</time>
      </trkpt>
      <trkpt lat="45.85823" lon="4.78689">
        <ele>509.5</ele>
        <time>2000-01-01T01:35:01.000Z</time>
      </trkpt>
      <trkpt lat="45.85824" lon="4.78703">
        <ele>516.5</ele>
        <time>2000-01-01T01:35:11.000Z</time>
      </trkpt>
      <trkpt lat="45.85823" lon="4.78713">
        <ele>517.8</ele>
        <time>2000-01-01T01:35:21.000Z</time>
      </trkpt>
      <trkpt lat="45.85823" lon="4.78721">
        <ele>511.2</ele>
        <time>2000-01-01T01:35:31.000Z</time>
      </trkpt>
      <trkpt lat="45.85821" lon="4.78731">
        <ele>520.7</ele>
        <time>2000-01-01T01:35:41.000Z</time>
      </trkpt>
      <trkpt lat="45.85821" lon="4.78734">
        <ele>521.1</ele>
        <time>2000-01-01T01:35:51.000Z</time>
      </trkpt>
      <trkpt lat="45.85821" lon="4.78737">
        <ele>521.6</ele>
        <time>2000-01-01T01:36:01.000Z</time>
      </trkpt>
      <trkpt lat="45.85819" lon="4.7875">
        <ele>513</ele>
        <time>2000-01-01T01:36:11.000Z</time>
      </trkpt>
      <trkpt lat="45.8582" lon="4.78759">
        <ele>525.1</ele>
        <time>2000-01-01T01:36:21.000Z</time>
      </trkpt>
      <trkpt lat="45.85822" lon="4.78774">
        <ele>526.7</ele>
        <time>2000-01-01T01:36:31.000Z</time>
      </trkpt>
      <trkpt lat="45.85822" lon="4.78777">
        <ele>517</ele>
        <time>2000-01-01T01:36:41.000Z</time>
      </trkpt>
      <trkpt lat="45.8582" lon="4.7879">
        <ele>529.4</ele>
        <time>2000-01-01T01:36:51.000Z</time>
      </trkpt>
      <trkpt lat="45.85819" lon="4.78795">
        <ele>530.2</ele>
        <time>2000-01-01T01:37:01.000Z</time>
      </trkpt>
      <trkpt lat="45.85814" lon="4.78801">
        <ele>521</ele>
        <time>2000-01-01T01:37:11.000Z</time>
      </trkpt>
      <trkpt lat="45.85808" lon="4.78798">
        <ele>531.7</ele>
        <time>2000-01-01T01:37:21.000Z</time>
      </trkpt>
      <trkpt lat="45.85797" lon="4.78794">
        <ele>532.5</ele>
        <time>2000-01-01T01:37:31.000Z</time>
      </trkpt>
      <trkpt lat="45.85794" lon="4.78794">
        <ele>530</ele>
        <time>2000-01-01T01:37:41.000Z</time>
      </trkpt>
      <trkpt lat="45.85786" lon="4.78792">
        <ele>533.4</ele>
        <time>2000-01-01T01:37:51.000Z</time>
      </trkpt>
      <trkpt lat="45.85778" lon="4.78784">
        <ele>535.1</ele>
        <time>2000-01-01T01:38:01.000Z</time>
      </trkpt>
      <trkpt lat="45.8577" lon="4.7878">
        <ele>530</ele>
        <time>2000-01-01T01:38:11.000Z</time>
      </trkpt>
      <trkpt lat="45.85769" lon="4.78779">
        <ele>535.8</ele>
        <time>2000-01-01T01:38:21.000Z</time>
      </trkpt>
      <trkpt lat="45.85758" lon="4.78777">
        <ele>536.1</ele>
        <time>2000-01-01T01:38:31.000Z</time>
      </trkpt>
      <trkpt lat="45.85753" lon="4.78772">
        <ele>537</ele>
        <time>2000-01-01T01:38:41.000Z</time>
      </trkpt>
      <trkpt lat="45.85746" lon="4.78768">
        <ele>530</ele>
        <time>2000-01-01T01:38:51.000Z</time>
      </trkpt>
      <trkpt lat="45.85742" lon="4.78766">
        <ele>537.8</ele>
        <time>2000-01-01T01:39:01.000Z</time>
      </trkpt>
      <trkpt lat="45.8573" lon="4.78753">
        <ele>539.7</ele>
        <time>2000-01-01T01:39:11.000Z</time>
      </trkpt>
      <trkpt lat="45.85723" lon="4.78744">
        <ele>535</ele>
        <time>2000-01-01T01:39:21.000Z</time>
      </trkpt>
      <trkpt lat="45.85714" lon="4.78733">
        <ele>541.7</ele>
        <time>2000-01-01T01:39:31.000Z</time>
      </trkpt>
      <trkpt lat="45.85707" lon="4.78725">
        <ele>538</ele>
        <time>2000-01-01T01:39:41.000Z</time>
      </trkpt>
      <trkpt lat="45.85697" lon="4.78714">
        <ele>542.1</ele>
        <time>2000-01-01T01:39:51.000Z</time>
      </trkpt>
      <trkpt lat="45.8569" lon="4.78698">
        <ele>543</ele>
        <time>2000-01-01T01:40:01.000Z</time>
      </trkpt>
      <trkpt lat="45.85686" lon="4.78694">
        <ele>543.4</ele>
        <time>2000-01-01T01:40:11.000Z</time>
      </trkpt>
      <trkpt lat="45.85677" lon="4.78686">
        <ele>543.5</ele>
        <time>2000-01-01T01:40:21.000Z</time>
      </trkpt>
      <trkpt lat="45.85671" lon="4.78677">
        <ele>544</ele>
        <time>2000-01-01T01:40:31.000Z</time>
      </trkpt>
      <trkpt lat="45.85661" lon="4.78671">
        <ele>545</ele>
        <time>2000-01-01T01:40:41.000Z</time>
      </trkpt>
      <trkpt lat="45.85652" lon="4.78665">
        <ele>546</ele>
        <time>2000-01-01T01:40:51.000Z</time>
      </trkpt>
      <trkpt lat="45.85642" lon="4.78658">
        <ele>544.4</ele>
        <time>2000-01-01T01:41:01.000Z</time>
      </trkpt>
      <trkpt lat="45.85635" lon="4.78652">
        <ele>545</ele>
        <time>2000-01-01T01:41:11.000Z</time>
      </trkpt>
      <trkpt lat="45.85623" lon="4.78641">
        <ele>544.3</ele>
        <time>2000-01-01T01:41:21.000Z</time>
      </trkpt>
      <trkpt lat="45.85609" lon="4.78634">
        <ele>544</ele>
        <time>2000-01-01T01:41:31.000Z</time>
      </trkpt>
      <trkpt lat="45.85599" lon="4.7863">
        <ele>542.8</ele>
        <time>2000-01-01T01:41:41.000Z</time>
      </trkpt>
      <trkpt lat="45.85585" lon="4.78624">
        <ele>544</ele>
        <time>2000-01-01T01:41:51.000Z</time>
      </trkpt>
      <trkpt lat="45.85574" lon="4.78614">
        <ele>543.3</ele>
        <time>2000-01-01T01:42:01.000Z</time>
      </trkpt>
      <trkpt lat="45.85565" lon="4.78606">
        <ele>546</ele>
        <time>2000-01-01T01:42:11.000Z</time>
      </trkpt>
      <trkpt lat="45.8556" lon="4.78603">
        <ele>543.1</ele>
        <time>2000-01-01T01:42:21.000Z</time>
      </trkpt>
      <trkpt lat="45.85548" lon="4.786">
        <ele>543.5</ele>
        <time>2000-01-01T01:42:31.000Z</time>
      </trkpt>
      <trkpt lat="45.85533" lon="4.78593">
        <ele>546.5</ele>
        <time>2000-01-01T01:42:41.000Z</time>
      </trkpt>
      <trkpt lat="45.85523" lon="4.78585">
        <ele>545.1</ele>
        <time>2000-01-01T01:42:51.000Z</time>
      </trkpt>
      <trkpt lat="45.85512" lon="4.7857">
        <ele>547</ele>
        <time>2000-01-01T01:43:01.000Z</time>
      </trkpt>
      <trkpt lat="45.85503" lon="4.78558">
        <ele>544.7</ele>
        <time>2000-01-01T01:43:11.000Z</time>
      </trkpt>
      <trkpt lat="45.85493" lon="4.78545">
        <ele>545</ele>
        <time>2000-01-01T01:43:21.000Z</time>
      </trkpt>
      <trkpt lat="45.85486" lon="4.78539">
        <ele>544.5</ele>
        <time>2000-01-01T01:43:31.000Z</time>
      </trkpt>
      <trkpt lat="45.85476" lon="4.78526">
        <ele>545</ele>
        <time>2000-01-01T01:43:41.000Z</time>
      </trkpt>
      <trkpt lat="45.85466" lon="4.78517">
        <ele>545.4</ele>
        <time>2000-01-01T01:43:51.000Z</time>
      </trkpt>
      <trkpt lat="45.85459" lon="4.78509">
        <ele>545</ele>
        <time>2000-01-01T01:44:01.000Z</time>
      </trkpt>
      <trkpt lat="45.85447" lon="4.78497">
        <ele>547</ele>
        <time>2000-01-01T01:44:11.000Z</time>
      </trkpt>
      <trkpt lat="45.85436" lon="4.78486">
        <ele>545</ele>
        <time>2000-01-01T01:44:21.000Z</time>
      </trkpt>
      <trkpt lat="45.85426" lon="4.78475">
        <ele>548.3</ele>
        <time>2000-01-01T01:44:31.000Z</time>
      </trkpt>
      <trkpt lat="45.85421" lon="4.78469">
        <ele>548.6</ele>
        <time>2000-01-01T01:44:41.000Z</time>
      </trkpt>
      <trkpt lat="45.85412" lon="4.78458">
        <ele>545</ele>
        <time>2000-01-01T01:44:51.000Z</time>
      </trkpt>
      <trkpt lat="45.85402" lon="4.78447">
        <ele>550</ele>
        <time>2000-01-01T01:45:01.000Z</time>
      </trkpt>
      <trkpt lat="45.85392" lon="4.78435">
        <ele>545</ele>
        <time>2000-01-01T01:45:11.000Z</time>
      </trkpt>
      <trkpt lat="45.85384" lon="4.78425">
        <ele>550.1</ele>
        <time>2000-01-01T01:45:21.000Z</time>
      </trkpt>
      <trkpt lat="45.85378" lon="4.78412">
        <ele>547.5</ele>
        <time>2000-01-01T01:45:31.000Z</time>
      </trkpt>
      <trkpt lat="45.85371" lon="4.784">
        <ele>548.9</ele>
        <time>2000-01-01T01:45:41.000Z</time>
      </trkpt>
      <trkpt lat="45.85365" lon="4.78392">
        <ele>550</ele>
        <time>2000-01-01T01:45:51.000Z</time>
      </trkpt>
      <trkpt lat="45.85355" lon="4.78378">
        <ele>550.1</ele>
        <time>2000-01-01T01:46:01.000Z</time>
      </trkpt>
      <trkpt lat="45.85344" lon="4.78363">
        <ele>552</ele>
        <time>2000-01-01T01:46:11.000Z</time>
      </trkpt>
      <trkpt lat="45.85335" lon="4.78352">
        <ele>552</ele>
        <time>2000-01-01T01:46:21.000Z</time>
      </trkpt>
      <trkpt lat="45.85329" lon="4.78347">
        <ele>552.5</ele>
        <time>2000-01-01T01:46:31.000Z</time>
      </trkpt>
      <trkpt lat="45.8532" lon="4.78337">
        <ele>553.5</ele>
        <time>2000-01-01T01:46:41.000Z</time>
      </trkpt>
      <trkpt lat="45.85313" lon="4.78327">
        <ele>553</ele>
        <time>2000-01-01T01:46:51.000Z</time>
      </trkpt>
      <trkpt lat="45.8531" lon="4.78322">
        <ele>553.6</ele>
        <time>2000-01-01T01:47:01.000Z</time>
      </trkpt>
      <trkpt lat="45.85301" lon="4.7831">
        <ele>554.5</ele>
        <time>2000-01-01T01:47:11.000Z</time>
      </trkpt>
      <trkpt lat="45.85295" lon="4.78298">
        <ele>554</ele>
        <time>2000-01-01T01:47:21.000Z</time>
      </trkpt>
      <trkpt lat="45.85285" lon="4.78284">
        <ele>553.6</ele>
        <time>2000-01-01T01:47:31.000Z</time>
      </trkpt>
      <trkpt lat="45.85279" lon="4.78273">
        <ele>555</ele>
        <time>2000-01-01T01:47:41.000Z</time>
      </trkpt>
      <trkpt lat="45.85275" lon="4.78268">
        <ele>553.5</ele>
        <time>2000-01-01T01:47:51.000Z</time>
      </trkpt>
      <trkpt lat="45.85266" lon="4.78252">
        <ele>555.5</ele>
        <time>2000-01-01T01:48:01.000Z</time>
      </trkpt>
      <trkpt lat="45.85257" lon="4.78237">
        <ele>553.4</ele>
        <time>2000-01-01T01:48:11.000Z</time>
      </trkpt>
      <trkpt lat="45.85252" lon="4.78229">
        <ele>556</ele>
        <time>2000-01-01T01:48:21.000Z</time>
      </trkpt>
      <trkpt lat="45.85242" lon="4.78215">
        <ele>552.8</ele>
        <time>2000-01-01T01:48:31.000Z</time>
      </trkpt>
      <trkpt lat="45.85241" lon="4.78211">
        <ele>552.6</ele>
        <time>2000-01-01T01:48:41.000Z</time>
      </trkpt>
      <trkpt lat="45.85234" lon="4.78204">
        <ele>558</ele>
        <time>2000-01-01T01:48:51.000Z</time>
      </trkpt>
      <trkpt lat="45.85225" lon="4.78193">
        <ele>555</ele>
        <time>2000-01-01T01:49:01.000Z</time>
      </trkpt>
      <trkpt lat="45.85218" lon="4.78179">
        <ele>558</ele>
        <time>2000-01-01T01:49:11.000Z</time>
      </trkpt>
      <trkpt lat="45.8521" lon="4.78168">
        <ele>555.3</ele>
        <time>2000-01-01T01:49:21.000Z</time>
      </trkpt>
      <trkpt lat="45.85204" lon="4.78155">
        <ele>556.5</ele>
        <time>2000-01-01T01:49:31.000Z</time>
      </trkpt>
      <trkpt lat="45.85197" lon="4.7814">
        <ele>554.6</ele>
        <time>2000-01-01T01:49:41.000Z</time>
      </trkpt>
      <trkpt lat="45.85191" lon="4.7813">
        <ele>555</ele>
        <time>2000-01-01T01:49:51.000Z</time>
      </trkpt>
      <trkpt lat="45.85182" lon="4.78114">
        <ele>555.5</ele>
        <time>2000-01-01T01:50:01.000Z</time>
      </trkpt>
      <trkpt lat="45.85177" lon="4.78105">
        <ele>558.5</ele>
        <time>2000-01-01T01:50:11.000Z</time>
      </trkpt>
      <trkpt lat="45.85169" lon="4.7809">
        <ele>557</ele>
        <time>2000-01-01T01:50:21.000Z</time>
      </trkpt>
      <trkpt lat="45.85163" lon="4.78077">
        <ele>559.2</ele>
        <time>2000-01-01T01:50:31.000Z</time>
      </trkpt>
      <trkpt lat="45.85158" lon="4.78061">
        <ele>558.3</ele>
        <time>2000-01-01T01:50:41.000Z</time>
      </trkpt>
      <trkpt lat="45.8515" lon="4.78045">
        <ele>560</ele>
        <time>2000-01-01T01:50:51.000Z</time>
      </trkpt>
      <trkpt lat="45.85146" lon="4.78033">
        <ele>560.7</ele>
        <time>2000-01-01T01:51:01.000Z</time>
      </trkpt>
      <trkpt lat="45.85142" lon="4.78025">
        <ele>561.5</ele>
        <time>2000-01-01T01:51:11.000Z</time>
      </trkpt>
      <trkpt lat="45.85137" lon="4.78009">
        <ele>563</ele>
        <time>2000-01-01T01:51:21.000Z</time>
      </trkpt>
      <trkpt lat="45.85133" lon="4.77991">
        <ele>561.4</ele>
        <time>2000-01-01T01:51:31.000Z</time>
      </trkpt>
      <trkpt lat="45.85132" lon="4.77974">
        <ele>564</ele>
        <time>2000-01-01T01:51:41.000Z</time>
      </trkpt>
      <trkpt lat="45.85128" lon="4.77954">
        <ele>561.4</ele>
        <time>2000-01-01T01:51:51.000Z</time>
      </trkpt>
      <trkpt lat="45.85123" lon="4.77942">
        <ele>565</ele>
        <time>2000-01-01T01:52:01.000Z</time>
      </trkpt>
      <trkpt lat="45.85115" lon="4.77929">
        <ele>566.5</ele>
        <time>2000-01-01T01:52:11.000Z</time>
      </trkpt>
      <trkpt lat="45.85107" lon="4.77916">
        <ele>567.5</ele>
        <time>2000-01-01T01:52:21.000Z</time>
      </trkpt>
      <trkpt lat="45.85104" lon="4.77912">
        <ele>569.4</ele>
        <time>2000-01-01T01:52:31.000Z</time>
      </trkpt>
      <trkpt lat="45.851" lon="4.77902">
        <ele>569.5</ele>
        <time>2000-01-01T01:52:41.000Z</time>
      </trkpt>
      <trkpt lat="45.85097" lon="4.77895">
        <ele>569.6</ele>
        <time>2000-01-01T01:52:51.000Z</time>
      </trkpt>
      <trkpt lat="45.85102" lon="4.77876">
        <ele>570</ele>
        <time>2000-01-01T01:53:01.000Z</time>
      </trkpt>
      <trkpt lat="45.85104" lon="4.77862">
        <ele>565.1</ele>
        <time>2000-01-01T01:53:11.000Z</time>
      </trkpt>
      <trkpt lat="45.85104" lon="4.77853">
        <ele>564.8</ele>
        <time>2000-01-01T01:53:21.000Z</time>
      </trkpt>
      <trkpt lat="45.85104" lon="4.77834">
        <ele>571</ele>
        <time>2000-01-01T01:53:31.000Z</time>
      </trkpt>
      <trkpt lat="45.85106" lon="4.77825">
        <ele>563.7</ele>
        <time>2000-01-01T01:53:41.000Z</time>
      </trkpt>
      <trkpt lat="45.85108" lon="4.77815">
        <ele>563</ele>
        <time>2000-01-01T01:53:51.000Z</time>
      </trkpt>
      <trkpt lat="45.85108" lon="4.77795">
        <ele>570</ele>
        <time>2000-01-01T01:54:01.000Z</time>
      </trkpt>
      <trkpt lat="45.85104" lon="4.77774">
        <ele>561.3</ele>
        <time>2000-01-01T01:54:11.000Z</time>
      </trkpt>
      <trkpt lat="45.851" lon="4.77752">
        <ele>569</ele>
        <time>2000-01-01T01:54:21.000Z</time>
      </trkpt>
      <trkpt lat="45.85094" lon="4.77731">
        <ele>557.7</ele>
        <time>2000-01-01T01:54:31.000Z</time>
      </trkpt>
      <trkpt lat="45.85089" lon="4.77711">
        <ele>566</ele>
        <time>2000-01-01T01:54:41.000Z</time>
      </trkpt>
      <trkpt lat="45.85083" lon="4.777">
        <ele>555.9</ele>
        <time>2000-01-01T01:54:51.000Z</time>
      </trkpt>
      <trkpt lat="45.85075" lon="4.77683">
        <ele>564</ele>
        <time>2000-01-01T01:55:01.000Z</time>
      </trkpt>
      <trkpt lat="45.85066" lon="4.77666">
        <ele>553.4</ele>
        <time>2000-01-01T01:55:11.000Z</time>
      </trkpt>
      <trkpt lat="45.85058" lon="4.77652">
        <ele>559</ele>
        <time>2000-01-01T01:55:21.000Z</time>
      </trkpt>
      <trkpt lat="45.85045" lon="4.77642">
        <ele>552.6</ele>
        <time>2000-01-01T01:55:31.000Z</time>
      </trkpt>
      <trkpt lat="45.85034" lon="4.77635">
        <ele>555</ele>
        <time>2000-01-01T01:55:41.000Z</time>
      </trkpt>
      <trkpt lat="45.85026" lon="4.77633">
        <ele>553.3</ele>
        <time>2000-01-01T01:55:51.000Z</time>
      </trkpt>
      <trkpt lat="45.85013" lon="4.77626">
        <ele>551</ele>
        <time>2000-01-01T01:56:01.000Z</time>
      </trkpt>
      <trkpt lat="45.85009" lon="4.77627">
        <ele>553.4</ele>
        <time>2000-01-01T01:56:11.000Z</time>
      </trkpt>
      <trkpt lat="45.85" lon="4.77626">
        <ele>553.7</ele>
        <time>2000-01-01T01:56:21.000Z</time>
      </trkpt>
      <trkpt lat="45.84982" lon="4.77623">
        <ele>550</ele>
        <time>2000-01-01T01:56:31.000Z</time>
      </trkpt>
      <trkpt lat="45.84968" lon="4.77619">
        <ele>553.4</ele>
        <time>2000-01-01T01:56:41.000Z</time>
      </trkpt>
      <trkpt lat="45.84955" lon="4.77616">
        <ele>541</ele>
        <time>2000-01-01T01:56:51.000Z</time>
      </trkpt>
      <trkpt lat="45.84939" lon="4.77615">
        <ele>552.7</ele>
        <time>2000-01-01T01:57:01.000Z</time>
      </trkpt>
      <trkpt lat="45.84924" lon="4.77614">
        <ele>543</ele>
        <time>2000-01-01T01:57:11.000Z</time>
      </trkpt>
      <trkpt lat="45.84915" lon="4.77614">
        <ele>552.5</ele>
        <time>2000-01-01T01:57:21.000Z</time>
      </trkpt>
      <trkpt lat="45.84911" lon="4.77615">
        <ele>552.5</ele>
        <time>2000-01-01T01:57:31.000Z</time>
      </trkpt>
      <trkpt lat="45.84902" lon="4.77613">
        <ele>545</ele>
        <time>2000-01-01T01:57:41.000Z</time>
      </trkpt>
      <trkpt lat="45.84889" lon="4.77616">
        <ele>551.9</ele>
        <time>2000-01-01T01:57:51.000Z</time>
      </trkpt>
      <trkpt lat="45.84877" lon="4.77617">
        <ele>549</ele>
        <time>2000-01-01T01:58:01.000Z</time>
      </trkpt>
      <trkpt lat="45.8486" lon="4.77617">
        <ele>551</ele>
        <time>2000-01-01T01:58:11.000Z</time>
      </trkpt>
      <trkpt lat="45.8485" lon="4.77618">
        <ele>549</ele>
        <time>2000-01-01T01:58:21.000Z</time>
      </trkpt>
      <trkpt lat="45.84842" lon="4.77619">
        <ele>550</ele>
        <time>2000-01-01T01:58:31.000Z</time>
      </trkpt>
      <trkpt lat="45.84826" lon="4.77623">
        <ele>544</ele>
        <time>2000-01-01T01:58:41.000Z</time>
      </trkpt>
      <trkpt lat="45.84817" lon="4.77624">
        <ele>549.1</ele>
        <time>2000-01-01T01:58:51.000Z</time>
      </trkpt>
      <trkpt lat="45.84803" lon="4.77624">
        <ele>543</ele>
        <time>2000-01-01T01:59:01.000Z</time>
      </trkpt>
      <trkpt lat="45.8479" lon="4.77623">
        <ele>547.9</ele>
        <time>2000-01-01T01:59:11.000Z</time>
      </trkpt>
      <trkpt lat="45.84773" lon="4.77623">
        <ele>538</ele>
        <time>2000-01-01T01:59:21.000Z</time>
      </trkpt>
      <trkpt lat="45.84757" lon="4.77614">
        <ele>547.2</ele>
        <time>2000-01-01T01:59:31.000Z</time>
      </trkpt>
      <trkpt lat="45.84745" lon="4.77611">
        <ele>538</ele>
        <time>2000-01-01T01:59:41.000Z</time>
      </trkpt>
      <trkpt lat="45.84738" lon="4.77609">
        <ele>547.7</ele>
        <time>2000-01-01T01:59:51.000Z</time>
      </trkpt>
      <trkpt lat="45.84728" lon="4.77598">
        <ele>544</ele>
        <time>2000-01-01T02:00:01.000Z</time>
      </trkpt>
      <trkpt lat="45.84716" lon="4.77586">
        <ele>547.6</ele>
        <time>2000-01-01T02:00:11.000Z</time>
      </trkpt>
      <trkpt lat="45.84708" lon="4.77579">
        <ele>545.5</ele>
        <time>2000-01-01T02:00:21.000Z</time>
      </trkpt>
      <trkpt lat="45.84704" lon="4.77586">
        <ele>548.4</ele>
        <time>2000-01-01T02:00:31.000Z</time>
      </trkpt>
      <trkpt lat="45.8471" lon="4.7761">
        <ele>547</ele>
        <time>2000-01-01T02:00:41.000Z</time>
      </trkpt>
      <trkpt lat="45.84715" lon="4.77624">
        <ele>549.9</ele>
        <time>2000-01-01T02:00:51.000Z</time>
      </trkpt>
      <trkpt lat="45.84719" lon="4.77638">
        <ele>549</ele>
        <time>2000-01-01T02:01:01.000Z</time>
      </trkpt>
      <trkpt lat="45.84722" lon="4.77644">
        <ele>551.5</ele>
        <time>2000-01-01T02:01:11.000Z</time>
      </trkpt>
      <trkpt lat="45.84726" lon="4.77664">
        <ele>550</ele>
        <time>2000-01-01T02:01:21.000Z</time>
      </trkpt>
      <trkpt lat="45.84727" lon="4.77678">
        <ele>554.5</ele>
        <time>2000-01-01T02:01:31.000Z</time>
      </trkpt>
      <trkpt lat="45.84726" lon="4.77684">
        <ele>554.8</ele>
        <time>2000-01-01T02:01:41.000Z</time>
      </trkpt>
      <trkpt lat="45.84725" lon="4.77702">
        <ele>552</ele>
        <time>2000-01-01T02:01:51.000Z</time>
      </trkpt>
      <trkpt lat="45.84721" lon="4.77718">
        <ele>557.4</ele>
        <time>2000-01-01T02:02:01.000Z</time>
      </trkpt>
      <trkpt lat="45.84716" lon="4.77734">
        <ele>553</ele>
        <time>2000-01-01T02:02:11.000Z</time>
      </trkpt>
      <trkpt lat="45.84711" lon="4.77746">
        <ele>558.8</ele>
        <time>2000-01-01T02:02:21.000Z</time>
      </trkpt>
      <trkpt lat="45.84707" lon="4.77763">
        <ele>553</ele>
        <time>2000-01-01T02:02:31.000Z</time>
      </trkpt>
      <trkpt lat="45.84701" lon="4.77781">
        <ele>561.5</ele>
        <time>2000-01-01T02:02:41.000Z</time>
      </trkpt>
      <trkpt lat="45.84697" lon="4.77795">
        <ele>553</ele>
        <time>2000-01-01T02:02:51.000Z</time>
      </trkpt>
      <trkpt lat="45.84695" lon="4.77801">
        <ele>563.5</ele>
        <time>2000-01-01T02:03:01.000Z</time>
      </trkpt>
      <trkpt lat="45.84689" lon="4.77817">
        <ele>565.6</ele>
        <time>2000-01-01T02:03:11.000Z</time>
      </trkpt>
      <trkpt lat="45.84686" lon="4.77823">
        <ele>556</ele>
        <time>2000-01-01T02:03:21.000Z</time>
      </trkpt>
      <trkpt lat="45.84679" lon="4.77837">
        <ele>566.4</ele>
        <time>2000-01-01T02:03:31.000Z</time>
      </trkpt>
      <trkpt lat="45.84673" lon="4.7785">
        <ele>554</ele>
        <time>2000-01-01T02:03:41.000Z</time>
      </trkpt>
      <trkpt lat="45.8467" lon="4.77857">
        <ele>566.3</ele>
        <time>2000-01-01T02:03:51.000Z</time>
      </trkpt>
      <trkpt lat="45.84665" lon="4.77865">
        <ele>565.9</ele>
        <time>2000-01-01T02:04:01.000Z</time>
      </trkpt>
      <trkpt lat="45.8466" lon="4.7787">
        <ele>552</ele>
        <time>2000-01-01T02:04:11.000Z</time>
      </trkpt>
      <trkpt lat="45.84657" lon="4.77876">
        <ele>565.6</ele>
        <time>2000-01-01T02:04:21.000Z</time>
      </trkpt>
      <trkpt lat="45.84647" lon="4.77887">
        <ele>566.2</ele>
        <time>2000-01-01T02:04:31.000Z</time>
      </trkpt>
      <trkpt lat="45.84642" lon="4.77895">
        <ele>552</ele>
        <time>2000-01-01T02:04:41.000Z</time>
      </trkpt>
      <trkpt lat="45.84645" lon="4.7791">
        <ele>568.1</ele>
        <time>2000-01-01T02:04:51.000Z</time>
      </trkpt>
      <trkpt lat="45.84649" lon="4.77917">
        <ele>569.2</ele>
        <time>2000-01-01T02:05:01.000Z</time>
      </trkpt>
      <trkpt lat="45.84656" lon="4.77921">
        <ele>554</ele>
        <time>2000-01-01T02:05:11.000Z</time>
      </trkpt>
      <trkpt lat="45.84667" lon="4.77918">
        <ele>571.3</ele>
        <time>2000-01-01T02:05:21.000Z</time>
      </trkpt>
      <trkpt lat="45.84678" lon="4.7791">
        <ele>561</ele>
        <time>2000-01-01T02:05:31.000Z</time>
      </trkpt>
      <trkpt lat="45.84685" lon="4.77897">
        <ele>573.5</ele>
        <time>2000-01-01T02:05:41.000Z</time>
      </trkpt>
      <trkpt lat="45.8469" lon="4.77892">
        <ele>574.2</ele>
        <time>2000-01-01T02:05:51.000Z</time>
      </trkpt>
      <trkpt lat="45.84698" lon="4.77879">
        <ele>561</ele>
        <time>2000-01-01T02:06:01.000Z</time>
      </trkpt>
      <trkpt lat="45.84703" lon="4.77861">
        <ele>574.2</ele>
        <time>2000-01-01T02:06:11.000Z</time>
      </trkpt>
      <trkpt lat="45.84708" lon="4.77847">
        <ele>559</ele>
        <time>2000-01-01T02:06:21.000Z</time>
      </trkpt>
      <trkpt lat="45.84716" lon="4.77835">
        <ele>574.2</ele>
        <time>2000-01-01T02:06:31.000Z</time>
      </trkpt>
      <trkpt lat="45.84723" lon="4.7783">
        <ele>563</ele>
        <time>2000-01-01T02:06:41.000Z</time>
      </trkpt>
      <trkpt lat="45.84729" lon="4.77829">
        <ele>575.2</ele>
        <time>2000-01-01T02:06:51.000Z</time>
      </trkpt>
      <trkpt lat="45.84733" lon="4.77832">
        <ele>576.3</ele>
        <time>2000-01-01T02:07:01.000Z</time>
      </trkpt>
      <trkpt lat="45.84736" lon="4.77845">
        <ele>567</ele>
        <time>2000-01-01T02:07:11.000Z</time>
      </trkpt>
      <trkpt lat="45.84733" lon="4.77863">
        <ele>580</ele>
        <time>2000-01-01T02:07:21.000Z</time>
      </trkpt>
      <trkpt lat="45.84727" lon="4.77878">
        <ele>567</ele>
        <time>2000-01-01T02:07:31.000Z</time>
      </trkpt>
      <trkpt lat="45.84721" lon="4.77891">
        <ele>580.2</ele>
        <time>2000-01-01T02:07:41.000Z</time>
      </trkpt>
      <trkpt lat="45.84717" lon="4.77901">
        <ele>574</ele>
        <time>2000-01-01T02:07:51.000Z</time>
      </trkpt>
      <trkpt lat="45.8471" lon="4.77916">
        <ele>582.4</ele>
        <time>2000-01-01T02:08:01.000Z</time>
      </trkpt>
      <trkpt lat="45.84704" lon="4.77931">
        <ele>574</ele>
        <time>2000-01-01T02:08:11.000Z</time>
      </trkpt>
      <trkpt lat="45.84696" lon="4.77945">
        <ele>583.6</ele>
        <time>2000-01-01T02:08:21.000Z</time>
      </trkpt>
      <trkpt lat="45.84687" lon="4.77958">
        <ele>575</ele>
        <time>2000-01-01T02:08:31.000Z</time>
      </trkpt>
      <trkpt lat="45.84682" lon="4.77967">
        <ele>583.8</ele>
        <time>2000-01-01T02:08:41.000Z</time>
      </trkpt>
      <trkpt lat="45.8468" lon="4.77982">
        <ele>585.7</ele>
        <time>2000-01-01T02:08:51.000Z</time>
      </trkpt>
      <trkpt lat="45.8468" lon="4.77988">
        <ele>581</ele>
        <time>2000-01-01T02:09:01.000Z</time>
      </trkpt>
      <trkpt lat="45.84677" lon="4.78006">
        <ele>587.6</ele>
        <time>2000-01-01T02:09:11.000Z</time>
      </trkpt>
      <trkpt lat="45.84673" lon="4.78024">
        <ele>581</ele>
        <time>2000-01-01T02:09:21.000Z</time>
      </trkpt>
      <trkpt lat="45.84673" lon="4.7803">
        <ele>586.8</ele>
        <time>2000-01-01T02:09:31.000Z</time>
      </trkpt>
      <trkpt lat="45.8467" lon="4.7805">
        <ele>585.2</ele>
        <time>2000-01-01T02:09:41.000Z</time>
      </trkpt>
      <trkpt lat="45.84668" lon="4.7807">
        <ele>585</ele>
        <time>2000-01-01T02:09:51.000Z</time>
      </trkpt>
      <trkpt lat="45.84665" lon="4.78088">
        <ele>582</ele>
        <time>2000-01-01T02:10:01.000Z</time>
      </trkpt>
      <trkpt lat="45.84662" lon="4.78107">
        <ele>587.5</ele>
        <time>2000-01-01T02:10:11.000Z</time>
      </trkpt>
      <trkpt lat="45.84659" lon="4.78119">
        <ele>579.3</ele>
        <time>2000-01-01T02:10:21.000Z</time>
      </trkpt>
      <trkpt lat="45.84655" lon="4.7814">
        <ele>587.2</ele>
        <time>2000-01-01T02:10:31.000Z</time>
      </trkpt>
      <trkpt lat="45.84653" lon="4.78148">
        <ele>576.8</ele>
        <time>2000-01-01T02:10:41.000Z</time>
      </trkpt>
      <trkpt lat="45.84651" lon="4.78161">
        <ele>575.8</ele>
        <time>2000-01-01T02:10:51.000Z</time>
      </trkpt>
      <trkpt lat="45.84647" lon="4.7818">
        <ele>587.6</ele>
        <time>2000-01-01T02:11:01.000Z</time>
      </trkpt>
      <trkpt lat="45.84641" lon="4.78191">
        <ele>575.7</ele>
        <time>2000-01-01T02:11:11.000Z</time>
      </trkpt>
      <trkpt lat="45.84638" lon="4.78201">
        <ele>575.4</ele>
        <time>2000-01-01T02:11:21.000Z</time>
      </trkpt>
      <trkpt lat="45.84632" lon="4.78215">
        <ele>588</ele>
        <time>2000-01-01T02:11:31.000Z</time>
      </trkpt>
      <trkpt lat="45.84629" lon="4.78224">
        <ele>574.2</ele>
        <time>2000-01-01T02:11:41.000Z</time>
      </trkpt>
      <trkpt lat="45.84618" lon="4.78242">
        <ele>582</ele>
        <time>2000-01-01T02:11:51.000Z</time>
      </trkpt>
      <trkpt lat="45.84607" lon="4.78256">
        <ele>574.1</ele>
        <time>2000-01-01T02:12:01.000Z</time>
      </trkpt>
      <trkpt lat="45.846" lon="4.78262">
        <ele>576</ele>
        <time>2000-01-01T02:12:11.000Z</time>
      </trkpt>
      <trkpt lat="45.84594" lon="4.78266">
        <ele>572.7</ele>
        <time>2000-01-01T02:12:21.000Z</time>
      </trkpt>
      <trkpt lat="45.84586" lon="4.78269">
        <ele>572.5</ele>
        <time>2000-01-01T02:12:31.000Z</time>
      </trkpt>
      <trkpt lat="45.84573" lon="4.78271">
        <ele>576</ele>
        <time>2000-01-01T02:12:41.000Z</time>
      </trkpt>
      <trkpt lat="45.84562" lon="4.78269">
        <ele>572.1</ele>
        <time>2000-01-01T02:12:51.000Z</time>
      </trkpt>
      <trkpt lat="45.84555" lon="4.78269">
        <ele>571.8</ele>
        <time>2000-01-01T02:13:01.000Z</time>
      </trkpt>
      <trkpt lat="45.84541" lon="4.78269">
        <ele>575.5</ele>
        <time>2000-01-01T02:13:11.000Z</time>
      </trkpt>
      <trkpt lat="45.84531" lon="4.78269">
        <ele>569.2</ele>
        <time>2000-01-01T02:13:21.000Z</time>
      </trkpt>
      <trkpt lat="45.84525" lon="4.78267">
        <ele>569</ele>
        <time>2000-01-01T02:13:31.000Z</time>
      </trkpt>
      <trkpt lat="45.84516" lon="4.78269">
        <ele>575</ele>
        <time>2000-01-01T02:13:41.000Z</time>
      </trkpt>
      <trkpt lat="45.84511" lon="4.78271">
        <ele>566.7</ele>
        <time>2000-01-01T02:13:51.000Z</time>
      </trkpt>
      <trkpt lat="45.84496" lon="4.7827">
        <ele>575</ele>
        <time>2000-01-01T02:14:01.000Z</time>
      </trkpt>
      <trkpt lat="45.84485" lon="4.78269">
        <ele>564.8</ele>
        <time>2000-01-01T02:14:11.000Z</time>
      </trkpt>
      <trkpt lat="45.84474" lon="4.7827">
        <ele>566</ele>
        <time>2000-01-01T02:14:21.000Z</time>
      </trkpt>
      <trkpt lat="45.84467" lon="4.7827">
        <ele>563.3</ele>
        <time>2000-01-01T02:14:31.000Z</time>
      </trkpt>
      <trkpt lat="45.84455" lon="4.78266">
        <ele>563</ele>
        <time>2000-01-01T02:14:41.000Z</time>
      </trkpt>
      <trkpt lat="45.84448" lon="4.78264">
        <ele>562.8</ele>
        <time>2000-01-01T02:14:51.000Z</time>
      </trkpt>
      <trkpt lat="45.84437" lon="4.78261">
        <ele>564.5</ele>
        <time>2000-01-01T02:15:01.000Z</time>
      </trkpt>
      <trkpt lat="45.84428" lon="4.78258">
        <ele>561</ele>
        <time>2000-01-01T02:15:11.000Z</time>
      </trkpt>
      <trkpt lat="45.84412" lon="4.78254">
        <ele>563.7</ele>
        <time>2000-01-01T02:15:21.000Z</time>
      </trkpt>
      <trkpt lat="45.84401" lon="4.78248">
        <ele>558.6</ele>
        <time>2000-01-01T02:15:31.000Z</time>
      </trkpt>
      <trkpt lat="45.84394" lon="4.78247">
        <ele>563</ele>
        <time>2000-01-01T02:15:41.000Z</time>
      </trkpt>
      <trkpt lat="45.84378" lon="4.78243">
        <ele>556.4</ele>
        <time>2000-01-01T02:15:51.000Z</time>
      </trkpt>
      <trkpt lat="45.84367" lon="4.78242">
        <ele>562</ele>
        <time>2000-01-01T02:16:01.000Z</time>
      </trkpt>
      <trkpt lat="45.84357" lon="4.78243">
        <ele>554.8</ele>
        <time>2000-01-01T02:16:11.000Z</time>
      </trkpt>
      <trkpt lat="45.8435" lon="4.78244">
        <ele>554.6</ele>
        <time>2000-01-01T02:16:21.000Z</time>
      </trkpt>
      <trkpt lat="45.84342" lon="4.78246">
        <ele>560.5</ele>
        <time>2000-01-01T02:16:31.000Z</time>
      </trkpt>
      <trkpt lat="45.84331" lon="4.7825">
        <ele>552.9</ele>
        <time>2000-01-01T02:16:41.000Z</time>
      </trkpt>
      <trkpt lat="45.84313" lon="4.78256">
        <ele>559</ele>
        <time>2000-01-01T02:16:51.000Z</time>
      </trkpt>
      <trkpt lat="45.84298" lon="4.78257">
        <ele>550.9</ele>
        <time>2000-01-01T02:17:01.000Z</time>
      </trkpt>
      <trkpt lat="45.84282" lon="4.78259">
        <ele>558</ele>
        <time>2000-01-01T02:17:11.000Z</time>
      </trkpt>
      <trkpt lat="45.84265" lon="4.78264">
        <ele>549</ele>
        <time>2000-01-01T02:17:21.000Z</time>
      </trkpt>
      <trkpt lat="45.84253" lon="4.78266">
        <ele>556</ele>
        <time>2000-01-01T02:17:31.000Z</time>
      </trkpt>
      <trkpt lat="45.84238" lon="4.78271">
        <ele>547.4</ele>
        <time>2000-01-01T02:17:41.000Z</time>
      </trkpt>
      <trkpt lat="45.84221" lon="4.78278">
        <ele>550.5</ele>
        <time>2000-01-01T02:17:51.000Z</time>
      </trkpt>
      <trkpt lat="45.84208" lon="4.78285">
        <ele>545.6</ele>
        <time>2000-01-01T02:18:01.000Z</time>
      </trkpt>
      <trkpt lat="45.84202" lon="4.78291">
        <ele>545</ele>
        <time>2000-01-01T02:18:11.000Z</time>
      </trkpt>
      <trkpt lat="45.84198" lon="4.78295">
        <ele>545</ele>
        <time>2000-01-01T02:18:21.000Z</time>
      </trkpt>
      <trkpt lat="45.84193" lon="4.78307">
        <ele>544.9</ele>
        <time>2000-01-01T02:18:31.000Z</time>
      </trkpt>
      <trkpt lat="45.84184" lon="4.78322">
        <ele>545</ele>
        <time>2000-01-01T02:18:41.000Z</time>
      </trkpt>
      <trkpt lat="45.84178" lon="4.78335">
        <ele>544.4</ele>
        <time>2000-01-01T02:18:51.000Z</time>
      </trkpt>
      <trkpt lat="45.84169" lon="4.78346">
        <ele>547</ele>
        <time>2000-01-01T02:19:01.000Z</time>
      </trkpt>
      <trkpt lat="45.84159" lon="4.78357">
        <ele>545.2</ele>
        <time>2000-01-01T02:19:11.000Z</time>
      </trkpt>
      <trkpt lat="45.8415" lon="4.78362">
        <ele>551</ele>
        <time>2000-01-01T02:19:21.000Z</time>
      </trkpt>
      <trkpt lat="45.84139" lon="4.78368">
        <ele>546.2</ele>
        <time>2000-01-01T02:19:31.000Z</time>
      </trkpt>
      <trkpt lat="45.84129" lon="4.7837">
        <ele>552</ele>
        <time>2000-01-01T02:19:41.000Z</time>
      </trkpt>
      <trkpt lat="45.84123" lon="4.78367">
        <ele>544.6</ele>
        <time>2000-01-01T02:19:51.000Z</time>
      </trkpt>
      <trkpt lat="45.84115" lon="4.78369">
        <ele>544.3</ele>
        <time>2000-01-01T02:20:01.000Z</time>
      </trkpt>
      <trkpt lat="45.8411" lon="4.78371">
        <ele>552</ele>
        <time>2000-01-01T02:20:11.000Z</time>
      </trkpt>
      <trkpt lat="45.84097" lon="4.78369">
        <ele>543.3</ele>
        <time>2000-01-01T02:20:21.000Z</time>
      </trkpt>
      <trkpt lat="45.8409" lon="4.78366">
        <ele>549.5</ele>
        <time>2000-01-01T02:20:31.000Z</time>
      </trkpt>
      <trkpt lat="45.84078" lon="4.78365">
        <ele>541.5</ele>
        <time>2000-01-01T02:20:41.000Z</time>
      </trkpt>
      <trkpt lat="45.84063" lon="4.78365">
        <ele>547</ele>
        <time>2000-01-01T02:20:51.000Z</time>
      </trkpt>
      <trkpt lat="45.84052" lon="4.78362">
        <ele>541.5</ele>
        <time>2000-01-01T02:21:01.000Z</time>
      </trkpt>
      <trkpt lat="45.84035" lon="4.7836">
        <ele>547</ele>
        <time>2000-01-01T02:21:11.000Z</time>
      </trkpt>
      <trkpt lat="45.84024" lon="4.7836">
        <ele>542.9</ele>
        <time>2000-01-01T02:21:21.000Z</time>
      </trkpt>
      <trkpt lat="45.84013" lon="4.78361">
        <ele>544</ele>
        <time>2000-01-01T02:21:31.000Z</time>
      </trkpt>
      <trkpt lat="45.84005" lon="4.78362">
        <ele>544.9</ele>
        <time>2000-01-01T02:21:41.000Z</time>
      </trkpt>
      <trkpt lat="45.83991" lon="4.78362">
        <ele>542</ele>
        <time>2000-01-01T02:21:51.000Z</time>
      </trkpt>
      <trkpt lat="45.83979" lon="4.78362">
        <ele>546.8</ele>
        <time>2000-01-01T02:22:01.000Z</time>
      </trkpt>
      <trkpt lat="45.83965" lon="4.78363">
        <ele>542</ele>
        <time>2000-01-01T02:22:11.000Z</time>
      </trkpt>
      <trkpt lat="45.83958" lon="4.78362">
        <ele>546.7</ele>
        <time>2000-01-01T02:22:21.000Z</time>
      </trkpt>
      <trkpt lat="45.8395" lon="4.78363">
        <ele>546.7</ele>
        <time>2000-01-01T02:22:31.000Z</time>
      </trkpt>
      <trkpt lat="45.83947" lon="4.78362">
        <ele>548.5</ele>
        <time>2000-01-01T02:22:41.000Z</time>
      </trkpt>
      <trkpt lat="45.83937" lon="4.78365">
        <ele>545.9</ele>
        <time>2000-01-01T02:22:51.000Z</time>
      </trkpt>
      <trkpt lat="45.83925" lon="4.78367">
        <ele>550.7</ele>
        <time>2000-01-01T02:23:01.000Z</time>
      </trkpt>
      <trkpt lat="45.83916" lon="4.78368">
        <ele>543.5</ele>
        <time>2000-01-01T02:23:11.000Z</time>
      </trkpt>
      <trkpt lat="45.83907" lon="4.78368">
        <ele>543.1</ele>
        <time>2000-01-01T02:23:21.000Z</time>
      </trkpt>
      <trkpt lat="45.83905" lon="4.78369">
        <ele>553</ele>
        <time>2000-01-01T02:23:31.000Z</time>
      </trkpt>
      <trkpt lat="45.83894" lon="4.78366">
        <ele>541.9</ele>
        <time>2000-01-01T02:23:41.000Z</time>
      </trkpt>
      <trkpt lat="45.83879" lon="4.78365">
        <ele>553</ele>
        <time>2000-01-01T02:23:51.000Z</time>
      </trkpt>
      <trkpt lat="45.83871" lon="4.78363">
        <ele>543.1</ele>
        <time>2000-01-01T02:24:01.000Z</time>
      </trkpt>
      <trkpt lat="45.83856" lon="4.78364">
        <ele>553</ele>
        <time>2000-01-01T02:24:11.000Z</time>
      </trkpt>
      <trkpt lat="45.83845" lon="4.78367">
        <ele>544.4</ele>
        <time>2000-01-01T02:24:21.000Z</time>
      </trkpt>
      <trkpt lat="45.83839" lon="4.78366">
        <ele>543.8</ele>
        <time>2000-01-01T02:24:31.000Z</time>
      </trkpt>
      <trkpt lat="45.83832" lon="4.7837">
        <ele>548</ele>
        <time>2000-01-01T02:24:41.000Z</time>
      </trkpt>
      <trkpt lat="45.83826" lon="4.78373">
        <ele>543.4</ele>
        <time>2000-01-01T02:24:51.000Z</time>
      </trkpt>
      <trkpt lat="45.83818" lon="4.78375">
        <ele>541.9</ele>
        <time>2000-01-01T02:25:01.000Z</time>
      </trkpt>
      <trkpt lat="45.83807" lon="4.78377">
        <ele>545</ele>
        <time>2000-01-01T02:25:11.000Z</time>
      </trkpt>
      <trkpt lat="45.83803" lon="4.78378">
        <ele>539.3</ele>
        <time>2000-01-01T02:25:21.000Z</time>
      </trkpt>
      <trkpt lat="45.83793" lon="4.78383">
        <ele>539.9</ele>
        <time>2000-01-01T02:25:31.000Z</time>
      </trkpt>
      <trkpt lat="45.83787" lon="4.78384">
        <ele>542</ele>
        <time>2000-01-01T02:25:41.000Z</time>
      </trkpt>
      <trkpt lat="45.83774" lon="4.78386">
        <ele>538.9</ele>
        <time>2000-01-01T02:25:51.000Z</time>
      </trkpt>
      <trkpt lat="45.83765" lon="4.78388">
        <ele>539</ele>
        <time>2000-01-01T02:26:01.000Z</time>
      </trkpt>
      <trkpt lat="45.83761" lon="4.7839">
        <ele>540.4</ele>
        <time>2000-01-01T02:26:11.000Z</time>
      </trkpt>
      <trkpt lat="45.83753" lon="4.7839">
        <ele>540.3</ele>
        <time>2000-01-01T02:26:21.000Z</time>
      </trkpt>
      <trkpt lat="45.83748" lon="4.78392">
        <ele>540.8</ele>
        <time>2000-01-01T02:26:31.000Z</time>
      </trkpt>
      <trkpt lat="45.83734" lon="4.7839">
        <ele>539</ele>
        <time>2000-01-01T02:26:41.000Z</time>
      </trkpt>
      <trkpt lat="45.83729" lon="4.78388">
        <ele>538.2</ele>
        <time>2000-01-01T02:26:51.000Z</time>
      </trkpt>
      <trkpt lat="45.83725" lon="4.78385">
        <ele>536.9</ele>
        <time>2000-01-01T02:27:01.000Z</time>
      </trkpt>
      <trkpt lat="45.8371" lon="4.78384">
        <ele>543</ele>
        <time>2000-01-01T02:27:11.000Z</time>
      </trkpt>
      <trkpt lat="45.837" lon="4.78383">
        <ele>540.1</ele>
        <time>2000-01-01T02:27:21.000Z</time>
      </trkpt>
      <trkpt lat="45.83695" lon="4.78381">
        <ele>540.3</ele>
        <time>2000-01-01T02:27:31.000Z</time>
      </trkpt>
      <trkpt lat="45.83683" lon="4.78387">
        <ele>543</ele>
        <time>2000-01-01T02:27:41.000Z</time>
      </trkpt>
      <trkpt lat="45.83678" lon="4.78389">
        <ele>545.4</ele>
        <time>2000-01-01T02:27:51.000Z</time>
      </trkpt>
      <trkpt lat="45.83665" lon="4.78394">
        <ele>545</ele>
        <time>2000-01-01T02:28:01.000Z</time>
      </trkpt>
      <trkpt lat="45.83659" lon="4.78396">
        <ele>548.2</ele>
        <time>2000-01-01T02:28:11.000Z</time>
      </trkpt>
      <trkpt lat="45.83649" lon="4.784">
        <ele>549</ele>
        <time>2000-01-01T02:28:21.000Z</time>
      </trkpt>
      <trkpt lat="45.83645" lon="4.78403">
        <ele>545</ele>
        <time>2000-01-01T02:28:31.000Z</time>
      </trkpt>
      <trkpt lat="45.83635" lon="4.78411">
        <ele>550.3</ele>
        <time>2000-01-01T02:28:41.000Z</time>
      </trkpt>
      <trkpt lat="45.83624" lon="4.78423">
        <ele>545</ele>
        <time>2000-01-01T02:28:51.000Z</time>
      </trkpt>
      <trkpt lat="45.8362" lon="4.78428">
        <ele>552.1</ele>
        <time>2000-01-01T02:29:01.000Z</time>
      </trkpt>
      <trkpt lat="45.83609" lon="4.7844">
        <ele>544.5</ele>
        <time>2000-01-01T02:29:11.000Z</time>
      </trkpt>
      <trkpt lat="45.83598" lon="4.78449">
        <ele>552.9</ele>
        <time>2000-01-01T02:29:21.000Z</time>
      </trkpt>
      <trkpt lat="45.83587" lon="4.78461">
        <ele>547.2</ele>
        <time>2000-01-01T02:29:31.000Z</time>
      </trkpt>
      <trkpt lat="45.83578" lon="4.78476">
        <ele>553.4</ele>
        <time>2000-01-01T02:29:41.000Z</time>
      </trkpt>
      <trkpt lat="45.83574" lon="4.78481">
        <ele>550</ele>
        <time>2000-01-01T02:29:51.000Z</time>
      </trkpt>
      <trkpt lat="45.8357" lon="4.78492">
        <ele>554</ele>
        <time>2000-01-01T02:30:01.000Z</time>
      </trkpt>
      <trkpt lat="45.83567" lon="4.78497">
        <ele>554</ele>
        <time>2000-01-01T02:30:11.000Z</time>
      </trkpt>
      <trkpt lat="45.83562" lon="4.78506">
        <ele>550</ele>
        <time>2000-01-01T02:30:21.000Z</time>
      </trkpt>
      <trkpt lat="45.83554" lon="4.78518">
        <ele>554.1</ele>
        <time>2000-01-01T02:30:31.000Z</time>
      </trkpt>
      <trkpt lat="45.83549" lon="4.78528">
        <ele>551.5</ele>
        <time>2000-01-01T02:30:41.000Z</time>
      </trkpt>
      <trkpt lat="45.83541" lon="4.78548">
        <ele>554</ele>
        <time>2000-01-01T02:30:51.000Z</time>
      </trkpt>
      <trkpt lat="45.83532" lon="4.7856">
        <ele>553</ele>
        <time>2000-01-01T02:31:01.000Z</time>
      </trkpt>
      <trkpt lat="45.83522" lon="4.78567">
        <ele>551.3</ele>
        <time>2000-01-01T02:31:11.000Z</time>
      </trkpt>
      <trkpt lat="45.83515" lon="4.78573">
        <ele>553</ele>
        <time>2000-01-01T02:31:21.000Z</time>
      </trkpt>
      <trkpt lat="45.83504" lon="4.78582">
        <ele>548.9</ele>
        <time>2000-01-01T02:31:31.000Z</time>
      </trkpt>
      <trkpt lat="45.83494" lon="4.78595">
        <ele>552</ele>
        <time>2000-01-01T02:31:41.000Z</time>
      </trkpt>
      <trkpt lat="45.83484" lon="4.78609">
        <ele>548.2</ele>
        <time>2000-01-01T02:31:51.000Z</time>
      </trkpt>
      <trkpt lat="45.83478" lon="4.78617">
        <ele>551</ele>
        <time>2000-01-01T02:32:01.000Z</time>
      </trkpt>
      <trkpt lat="45.83472" lon="4.78624">
        <ele>547.3</ele>
        <time>2000-01-01T02:32:11.000Z</time>
      </trkpt>
      <trkpt lat="45.83463" lon="4.78631">
        <ele>546.2</ele>
        <time>2000-01-01T02:32:21.000Z</time>
      </trkpt>
      <trkpt lat="45.83457" lon="4.78634">
        <ele>544</ele>
        <time>2000-01-01T02:32:31.000Z</time>
      </trkpt>
      <trkpt lat="45.83448" lon="4.78645">
        <ele>544.4</ele>
        <time>2000-01-01T02:32:41.000Z</time>
      </trkpt>
      <trkpt lat="45.83439" lon="4.78657">
        <ele>537</ele>
        <time>2000-01-01T02:32:51.000Z</time>
      </trkpt>
      <trkpt lat="45.83433" lon="4.78663">
        <ele>543.5</ele>
        <time>2000-01-01T02:33:01.000Z</time>
      </trkpt>
      <trkpt lat="45.83422" lon="4.78675">
        <ele>537</ele>
        <time>2000-01-01T02:33:11.000Z</time>
      </trkpt>
      <trkpt lat="45.83409" lon="4.78688">
        <ele>541.2</ele>
        <time>2000-01-01T02:33:21.000Z</time>
      </trkpt>
      <trkpt lat="45.83396" lon="4.78698">
        <ele>538.5</ele>
        <time>2000-01-01T02:33:31.000Z</time>
      </trkpt>
      <trkpt lat="45.83382" lon="4.78704">
        <ele>537.8</ele>
        <time>2000-01-01T02:33:41.000Z</time>
      </trkpt>
      <trkpt lat="45.83374" lon="4.78705">
        <ele>537.7</ele>
        <time>2000-01-01T02:33:51.000Z</time>
      </trkpt>
      <trkpt lat="45.83372" lon="4.78705">
        <ele>536.1</ele>
        <time>2000-01-01T02:34:01.000Z</time>
      </trkpt>
      <trkpt lat="45.83364" lon="4.78709">
        <ele>535.1</ele>
        <time>2000-01-01T02:34:11.000Z</time>
      </trkpt>
      <trkpt lat="45.8335" lon="4.78716">
        <ele>540.3</ele>
        <time>2000-01-01T02:34:21.000Z</time>
      </trkpt>
      <trkpt lat="45.83342" lon="4.78719">
        <ele>532.3</ele>
        <time>2000-01-01T02:34:31.000Z</time>
      </trkpt>
      <trkpt lat="45.83335" lon="4.78722">
        <ele>531.3</ele>
        <time>2000-01-01T02:34:41.000Z</time>
      </trkpt>
      <trkpt lat="45.83321" lon="4.78724">
        <ele>537.1</ele>
        <time>2000-01-01T02:34:51.000Z</time>
      </trkpt>
      <trkpt lat="45.83308" lon="4.78729">
        <ele>528.1</ele>
        <time>2000-01-01T02:35:01.000Z</time>
      </trkpt>
      <trkpt lat="45.83293" lon="4.78741">
        <ele>534</ele>
        <time>2000-01-01T02:35:11.000Z</time>
      </trkpt>
      <trkpt lat="45.83281" lon="4.78752">
        <ele>525.9</ele>
        <time>2000-01-01T02:35:21.000Z</time>
      </trkpt>
      <trkpt lat="45.83266" lon="4.78759">
        <ele>530</ele>
        <time>2000-01-01T02:35:31.000Z</time>
      </trkpt>
      <trkpt lat="45.8326" lon="4.78762">
        <ele>523.3</ele>
        <time>2000-01-01T02:35:41.000Z</time>
      </trkpt>
      <trkpt lat="45.83249" lon="4.78772">
        <ele>523</ele>
        <time>2000-01-01T02:35:51.000Z</time>
      </trkpt>
      <trkpt lat="45.83235" lon="4.78784">
        <ele>521.4</ele>
        <time>2000-01-01T02:36:01.000Z</time>
      </trkpt>
      <trkpt lat="45.83224" lon="4.78798">
        <ele>521.5</ele>
        <time>2000-01-01T02:36:11.000Z</time>
      </trkpt>
      <trkpt lat="45.83216" lon="4.78808">
        <ele>520.3</ele>
        <time>2000-01-01T02:36:21.000Z</time>
      </trkpt>
      <trkpt lat="45.83206" lon="4.78828">
        <ele>520</ele>
        <time>2000-01-01T02:36:31.000Z</time>
      </trkpt>
      <trkpt lat="45.83202" lon="4.78834">
        <ele>519.4</ele>
        <time>2000-01-01T02:36:41.000Z</time>
      </trkpt>
      <trkpt lat="45.83191" lon="4.78851">
        <ele>518</ele>
        <time>2000-01-01T02:36:51.000Z</time>
      </trkpt>
      <trkpt lat="45.83181" lon="4.78869">
        <ele>518.1</ele>
        <time>2000-01-01T02:37:01.000Z</time>
      </trkpt>
      <trkpt lat="45.83179" lon="4.78873">
        <ele>516</ele>
        <time>2000-01-01T02:37:11.000Z</time>
      </trkpt>
      <trkpt lat="45.83178" lon="4.78881">
        <ele>518.5</ele>
        <time>2000-01-01T02:37:21.000Z</time>
      </trkpt>
      <trkpt lat="45.83179" lon="4.78883">
        <ele>518.8</ele>
        <time>2000-01-01T02:37:31.000Z</time>
      </trkpt>
      <trkpt lat="45.83182" lon="4.78886">
        <ele>519.6</ele>
        <time>2000-01-01T02:37:41.000Z</time>
      </trkpt>
      <trkpt lat="45.83193" lon="4.78883">
        <ele>516</ele>
        <time>2000-01-01T02:37:51.000Z</time>
      </trkpt>
      <trkpt lat="45.83205" lon="4.78873">
        <ele>522.6</ele>
        <time>2000-01-01T02:38:01.000Z</time>
      </trkpt>
      <trkpt lat="45.83212" lon="4.78869">
        <ele>516</ele>
        <time>2000-01-01T02:38:11.000Z</time>
      </trkpt>
      <trkpt lat="45.83223" lon="4.78864">
        <ele>526</ele>
        <time>2000-01-01T02:38:21.000Z</time>
      </trkpt>
      <trkpt lat="45.83233" lon="4.78858">
        <ele>523</ele>
        <time>2000-01-01T02:38:31.000Z</time>
      </trkpt>
      <trkpt lat="45.83244" lon="4.7885">
        <ele>528.9</ele>
        <time>2000-01-01T02:38:41.000Z</time>
      </trkpt>
      <trkpt lat="45.83253" lon="4.78843">
        <ele>523</ele>
        <time>2000-01-01T02:38:51.000Z</time>
      </trkpt>
      <trkpt lat="45.83263" lon="4.78838">
        <ele>532.2</ele>
        <time>2000-01-01T02:39:01.000Z</time>
      </trkpt>
      <trkpt lat="45.83273" lon="4.78838">
        <ele>526</ele>
        <time>2000-01-01T02:39:11.000Z</time>
      </trkpt>
      <trkpt lat="45.83277" lon="4.78837">
        <ele>534.6</ele>
        <time>2000-01-01T02:39:21.000Z</time>
      </trkpt>
      <trkpt lat="45.83289" lon="4.78828">
        <ele>536.1</ele>
        <time>2000-01-01T02:39:31.000Z</time>
      </trkpt>
      <trkpt lat="45.83294" lon="4.78823">
        <ele>529</ele>
        <time>2000-01-01T02:39:41.000Z</time>
      </trkpt>
      <trkpt lat="45.83301" lon="4.78818">
        <ele>538.2</ele>
        <time>2000-01-01T02:39:51.000Z</time>
      </trkpt>
      <trkpt lat="45.83307" lon="4.78815">
        <ele>539.4</ele>
        <time>2000-01-01T02:40:01.000Z</time>
      </trkpt>
      <trkpt lat="45.83312" lon="4.78809">
        <ele>529.5</ele>
        <time>2000-01-01T02:40:11.000Z</time>
      </trkpt>
      <trkpt lat="45.83313" lon="4.78807">
        <ele>540.4</ele>
        <time>2000-01-01T02:40:21.000Z</time>
      </trkpt>
      <trkpt lat="45.83325" lon="4.78802">
        <ele>541.2</ele>
        <time>2000-01-01T02:40:31.000Z</time>
      </trkpt>
      <trkpt lat="45.8333" lon="4.78799">
        <ele>530</ele>
        <time>2000-01-01T02:40:41.000Z</time>
      </trkpt>
      <trkpt lat="45.83333" lon="4.78797">
        <ele>541.7</ele>
        <time>2000-01-01T02:40:51.000Z</time>
      </trkpt>
      <trkpt lat="45.83335" lon="4.78796">
        <ele>541.8</ele>
        <time>2000-01-01T02:41:01.000Z</time>
      </trkpt>
      <trkpt lat="45.83339" lon="4.78805">
        <ele>542.4</ele>
        <time>2000-01-01T02:41:11.000Z</time>
      </trkpt>
      <trkpt lat="45.8334" lon="4.78813">
        <ele>541.9</ele>
        <time>2000-01-01T02:41:21.000Z</time>
      </trkpt>
      <trkpt lat="45.83337" lon="4.78818">
        <ele>535</ele>
        <time>2000-01-01T02:41:31.000Z</time>
      </trkpt>
      <trkpt lat="45.83336" lon="4.78837">
        <ele>539.8</ele>
        <time>2000-01-01T02:41:41.000Z</time>
      </trkpt>
      <trkpt lat="45.83336" lon="4.78857">
        <ele>535</ele>
        <time>2000-01-01T02:41:51.000Z</time>
      </trkpt>
      <trkpt lat="45.83334" lon="4.78875">
        <ele>536</ele>
        <time>2000-01-01T02:42:01.000Z</time>
      </trkpt>
      <trkpt lat="45.83331" lon="4.78889">
        <ele>532</ele>
        <time>2000-01-01T02:42:11.000Z</time>
      </trkpt>
      <trkpt lat="45.83331" lon="4.78902">
        <ele>533</ele>
        <time>2000-01-01T02:42:21.000Z</time>
      </trkpt>
      <trkpt lat="45.83333" lon="4.78918">
        <ele>527</ele>
        <time>2000-01-01T02:42:31.000Z</time>
      </trkpt>
      <trkpt lat="45.83332" lon="4.78932">
        <ele>528.8</ele>
        <time>2000-01-01T02:42:41.000Z</time>
      </trkpt>
      <trkpt lat="45.83332" lon="4.78949">
        <ele>524</ele>
        <time>2000-01-01T02:42:51.000Z</time>
      </trkpt>
      <trkpt lat="45.83333" lon="4.78955">
        <ele>525.9</ele>
        <time>2000-01-01T02:43:01.000Z</time>
      </trkpt>
      <trkpt lat="45.83332" lon="4.78981">
        <ele>521</ele>
        <time>2000-01-01T02:43:11.000Z</time>
      </trkpt>
      <trkpt lat="45.83332" lon="4.78989">
        <ele>522.2</ele>
        <time>2000-01-01T02:43:21.000Z</time>
      </trkpt>
      <trkpt lat="45.83332" lon="4.7901">
        <ele>519</ele>
        <time>2000-01-01T02:43:31.000Z</time>
      </trkpt>
      <trkpt lat="45.83329" lon="4.79028">
        <ele>518.7</ele>
        <time>2000-01-01T02:43:41.000Z</time>
      </trkpt>
      <trkpt lat="45.83324" lon="4.79036">
        <ele>516</ele>
        <time>2000-01-01T02:43:51.000Z</time>
      </trkpt>
      <trkpt lat="45.83318" lon="4.79046">
        <ele>516.6</ele>
        <time>2000-01-01T02:44:01.000Z</time>
      </trkpt>
      <trkpt lat="45.83316" lon="4.79055">
        <ele>515.8</ele>
        <time>2000-01-01T02:44:11.000Z</time>
      </trkpt>
      <trkpt lat="45.83312" lon="4.79069">
        <ele>513</ele>
        <time>2000-01-01T02:44:21.000Z</time>
      </trkpt>
      <trkpt lat="45.8331" lon="4.79074">
        <ele>513.9</ele>
        <time>2000-01-01T02:44:31.000Z</time>
      </trkpt>
      <trkpt lat="45.83299" lon="4.79078">
        <ele>513.1</ele>
        <time>2000-01-01T02:44:41.000Z</time>
      </trkpt>
      <trkpt lat="45.83292" lon="4.79078">
        <ele>515.5</ele>
        <time>2000-01-01T02:44:51.000Z</time>
      </trkpt>
      <trkpt lat="45.83278" lon="4.79071">
        <ele>512.9</ele>
        <time>2000-01-01T02:45:01.000Z</time>
      </trkpt>
      <trkpt lat="45.83268" lon="4.79073">
        <ele>515.7</ele>
        <time>2000-01-01T02:45:11.000Z</time>
      </trkpt>
      <trkpt lat="45.8326" lon="4.79086">
        <ele>510.5</ele>
        <time>2000-01-01T02:45:21.000Z</time>
      </trkpt>
      <trkpt lat="45.83245" lon="4.79118">
        <ele>513.3</ele>
        <time>2000-01-01T02:45:31.000Z</time>
      </trkpt>
      <trkpt lat="45.83238" lon="4.79136">
        <ele>504.8</ele>
        <time>2000-01-01T02:45:41.000Z</time>
      </trkpt>
      <trkpt lat="45.8323" lon="4.79153">
        <ele>511</ele>
        <time>2000-01-01T02:45:51.000Z</time>
      </trkpt>
      <trkpt lat="45.83227" lon="4.79163">
        <ele>501.6</ele>
        <time>2000-01-01T02:46:01.000Z</time>
      </trkpt>
      <trkpt lat="45.83225" lon="4.79181">
        <ele>497</ele>
        <time>2000-01-01T02:46:11.000Z</time>
      </trkpt>
      <trkpt lat="45.83221" lon="4.79194">
        <ele>498</ele>
        <time>2000-01-01T02:46:21.000Z</time>
      </trkpt>
      <trkpt lat="45.83214" lon="4.79206">
        <ele>492</ele>
        <time>2000-01-01T02:46:31.000Z</time>
      </trkpt>
      <trkpt lat="45.83208" lon="4.79226">
        <ele>493.6</ele>
        <time>2000-01-01T02:46:41.000Z</time>
      </trkpt>
      <trkpt lat="45.83204" lon="4.79248">
        <ele>492</ele>
        <time>2000-01-01T02:46:51.000Z</time>
      </trkpt>
      <trkpt lat="45.83196" lon="4.79262">
        <ele>489.3</ele>
        <time>2000-01-01T02:47:01.000Z</time>
      </trkpt>
      <trkpt lat="45.83193" lon="4.79275">
        <ele>486</ele>
        <time>2000-01-01T02:47:11.000Z</time>
      </trkpt>
      <trkpt lat="45.83183" lon="4.79288">
        <ele>485</ele>
        <time>2000-01-01T02:47:21.000Z</time>
      </trkpt>
      <trkpt lat="45.83175" lon="4.79291">
        <ele>485</ele>
        <time>2000-01-01T02:47:31.000Z</time>
      </trkpt>
      <trkpt lat="45.83177" lon="4.79294">
        <ele>483.7</ele>
        <time>2000-01-01T02:47:41.000Z</time>
      </trkpt>
      <trkpt lat="45.83189" lon="4.79302">
        <ele>483.1</ele>
        <time>2000-01-01T02:47:51.000Z</time>
      </trkpt>
      <trkpt lat="45.832" lon="4.79306">
        <ele>481</ele>
        <time>2000-01-01T02:48:01.000Z</time>
      </trkpt>
      <trkpt lat="45.83206" lon="4.79309">
        <ele>482.9</ele>
        <time>2000-01-01T02:48:11.000Z</time>
      </trkpt>
      <trkpt lat="45.83215" lon="4.79311">
        <ele>483</ele>
        <time>2000-01-01T02:48:21.000Z</time>
      </trkpt>
      <trkpt lat="45.83228" lon="4.79315">
        <ele>483</ele>
        <time>2000-01-01T02:48:31.000Z</time>
      </trkpt>
      <trkpt lat="45.83244" lon="4.79321">
        <ele>483</ele>
        <time>2000-01-01T02:48:41.000Z</time>
      </trkpt>
      <trkpt lat="45.83254" lon="4.79332">
        <ele>482</ele>
        <time>2000-01-01T02:48:51.000Z</time>
      </trkpt>
      <trkpt lat="45.8326" lon="4.7934">
        <ele>482.3</ele>
        <time>2000-01-01T02:49:01.000Z</time>
      </trkpt>
      <trkpt lat="45.8327" lon="4.79354">
        <ele>482.5</ele>
        <time>2000-01-01T02:49:11.000Z</time>
      </trkpt>
      <trkpt lat="45.83273" lon="4.79361">
        <ele>482</ele>
        <time>2000-01-01T02:49:21.000Z</time>
      </trkpt>
      <trkpt lat="45.83281" lon="4.79382">
        <ele>481.7</ele>
        <time>2000-01-01T02:49:31.000Z</time>
      </trkpt>
      <trkpt lat="45.83286" lon="4.79391">
        <ele>481.6</ele>
        <time>2000-01-01T02:49:41.000Z</time>
      </trkpt>
      <trkpt lat="45.833" lon="4.79395">
        <ele>481</ele>
        <time>2000-01-01T02:49:51.000Z</time>
      </trkpt>
      <trkpt lat="45.83314" lon="4.794">
        <ele>480.6</ele>
        <time>2000-01-01T02:50:01.000Z</time>
      </trkpt>
      <trkpt lat="45.8333" lon="4.79409">
        <ele>479</ele>
        <time>2000-01-01T02:50:11.000Z</time>
      </trkpt>
      <trkpt lat="45.83338" lon="4.79416">
        <ele>480.2</ele>
        <time>2000-01-01T02:50:21.000Z</time>
      </trkpt>
      <trkpt lat="45.83344" lon="4.79421">
        <ele>479.6</ele>
        <time>2000-01-01T02:50:31.000Z</time>
      </trkpt>
      <trkpt lat="45.83351" lon="4.79433">
        <ele>477</ele>
        <time>2000-01-01T02:50:41.000Z</time>
      </trkpt>
      <trkpt lat="45.83356" lon="4.79441">
        <ele>476.4</ele>
        <time>2000-01-01T02:50:51.000Z</time>
      </trkpt>
      <trkpt lat="45.83364" lon="4.79462">
        <ele>474</ele>
        <time>2000-01-01T02:51:01.000Z</time>
      </trkpt>
      <trkpt lat="45.83365" lon="4.79476">
        <ele>473.7</ele>
        <time>2000-01-01T02:51:11.000Z</time>
      </trkpt>
      <trkpt lat="45.83364" lon="4.79484">
        <ele>473.5</ele>
        <time>2000-01-01T02:51:21.000Z</time>
      </trkpt>
      <trkpt lat="45.83369" lon="4.79493">
        <ele>471</ele>
        <time>2000-01-01T02:51:31.000Z</time>
      </trkpt>
      <trkpt lat="45.83375" lon="4.79503">
        <ele>472.3</ele>
        <time>2000-01-01T02:51:41.000Z</time>
      </trkpt>
      <trkpt lat="45.83376" lon="4.79516">
        <ele>471.4</ele>
        <time>2000-01-01T02:51:51.000Z</time>
      </trkpt>
      <trkpt lat="45.83373" lon="4.79524">
        <ele>471</ele>
        <time>2000-01-01T02:52:01.000Z</time>
      </trkpt>
      <trkpt lat="45.83369" lon="4.79526">
        <ele>470.4</ele>
        <time>2000-01-01T02:52:11.000Z</time>
      </trkpt>
      <trkpt lat="45.83362" lon="4.79526">
        <ele>470.2</ele>
        <time>2000-01-01T02:52:21.000Z</time>
      </trkpt>
      <trkpt lat="45.83354" lon="4.79523">
        <ele>468</ele>
        <time>2000-01-01T02:52:31.000Z</time>
      </trkpt>
      <trkpt lat="45.83335" lon="4.79515">
        <ele>468</ele>
        <time>2000-01-01T02:52:41.000Z</time>
      </trkpt>
      <trkpt lat="45.83326" lon="4.79514">
        <ele>468.8</ele>
        <time>2000-01-01T02:52:51.000Z</time>
      </trkpt>
      <trkpt lat="45.83318" lon="4.79514">
        <ele>468.1</ele>
        <time>2000-01-01T02:53:01.000Z</time>
      </trkpt>
      <trkpt lat="45.83309" lon="4.79514">
        <ele>466.5</ele>
        <time>2000-01-01T02:53:11.000Z</time>
      </trkpt>
      <trkpt lat="45.83294" lon="4.7951">
        <ele>466.7</ele>
        <time>2000-01-01T02:53:21.000Z</time>
      </trkpt>
      <trkpt lat="45.83278" lon="4.79503">
        <ele>465</ele>
        <time>2000-01-01T02:53:31.000Z</time>
      </trkpt>
      <trkpt lat="45.83263" lon="4.79495">
        <ele>465.6</ele>
        <time>2000-01-01T02:53:41.000Z</time>
      </trkpt>
      <trkpt lat="45.83247" lon="4.79486">
        <ele>463.5</ele>
        <time>2000-01-01T02:53:51.000Z</time>
      </trkpt>
      <trkpt lat="45.83232" lon="4.79481">
        <ele>464.5</ele>
        <time>2000-01-01T02:54:01.000Z</time>
      </trkpt>
      <trkpt lat="45.83214" lon="4.79477">
        <ele>463.7</ele>
        <time>2000-01-01T02:54:11.000Z</time>
      </trkpt>
      <trkpt lat="45.832" lon="4.79472">
        <ele>462.6</ele>
        <time>2000-01-01T02:54:21.000Z</time>
      </trkpt>
      <trkpt lat="45.83191" lon="4.7947">
        <ele>464</ele>
        <time>2000-01-01T02:54:31.000Z</time>
      </trkpt>
      <trkpt lat="45.8318" lon="4.79465">
        <ele>460.9</ele>
        <time>2000-01-01T02:54:41.000Z</time>
      </trkpt>
      <trkpt lat="45.83173" lon="4.79461">
        <ele>463.5</ele>
        <time>2000-01-01T02:54:51.000Z</time>
      </trkpt>
      <trkpt lat="45.83162" lon="4.79455">
        <ele>459.6</ele>
        <time>2000-01-01T02:55:01.000Z</time>
      </trkpt>
      <trkpt lat="45.83154" lon="4.79454">
        <ele>463</ele>
        <time>2000-01-01T02:55:11.000Z</time>
      </trkpt>
      <trkpt lat="45.83141" lon="4.79453">
        <ele>458.9</ele>
        <time>2000-01-01T02:55:21.000Z</time>
      </trkpt>
      <trkpt lat="45.83131" lon="4.79452">
        <ele>463</ele>
        <time>2000-01-01T02:55:31.000Z</time>
      </trkpt>
      <trkpt lat="45.83127" lon="4.79465">
        <ele>456.2</ele>
        <time>2000-01-01T02:55:41.000Z</time>
      </trkpt>
      <trkpt lat="45.83124" lon="4.79474">
        <ele>454.8</ele>
        <time>2000-01-01T02:55:51.000Z</time>
      </trkpt>
      <trkpt lat="45.83116" lon="4.79488">
        <ele>461</ele>
        <time>2000-01-01T02:56:01.000Z</time>
      </trkpt>
      <trkpt lat="45.83109" lon="4.79497">
        <ele>453</ele>
        <time>2000-01-01T02:56:11.000Z</time>
      </trkpt>
      <trkpt lat="45.83099" lon="4.795">
        <ele>455</ele>
        <time>2000-01-01T02:56:21.000Z</time>
      </trkpt>
      <trkpt lat="45.83089" lon="4.79501">
        <ele>452.2</ele>
        <time>2000-01-01T02:56:31.000Z</time>
      </trkpt>
      <trkpt lat="45.83077" lon="4.79505">
        <ele>455</ele>
        <time>2000-01-01T02:56:41.000Z</time>
      </trkpt>
      <trkpt lat="45.8307" lon="4.79505">
        <ele>451</ele>
        <time>2000-01-01T02:56:51.000Z</time>
      </trkpt>
      <trkpt lat="45.83058" lon="4.79506">
        <ele>447</ele>
        <time>2000-01-01T02:57:01.000Z</time>
      </trkpt>
      <trkpt lat="45.83051" lon="4.79507">
        <ele>449.8</ele>
        <time>2000-01-01T02:57:11.000Z</time>
      </trkpt>
      <trkpt lat="45.83041" lon="4.79509">
        <ele>449.3</ele>
        <time>2000-01-01T02:57:21.000Z</time>
      </trkpt>
      <trkpt lat="45.83033" lon="4.79511">
        <ele>443</ele>
        <time>2000-01-01T02:57:31.000Z</time>
      </trkpt>
      <trkpt lat="45.83022" lon="4.79515">
        <ele>448</ele>
        <time>2000-01-01T02:57:41.000Z</time>
      </trkpt>
      <trkpt lat="45.83014" lon="4.79518">
        <ele>443</ele>
        <time>2000-01-01T02:57:51.000Z</time>
      </trkpt>
      <trkpt lat="45.83003" lon="4.79521">
        <ele>446.5</ele>
        <time>2000-01-01T02:58:01.000Z</time>
      </trkpt>
      <trkpt lat="45.82995" lon="4.79524">
        <ele>445</ele>
        <time>2000-01-01T02:58:11.000Z</time>
      </trkpt>
      <trkpt lat="45.82984" lon="4.79527">
        <ele>444.3</ele>
        <time>2000-01-01T02:58:21.000Z</time>
      </trkpt>
      <trkpt lat="45.82975" lon="4.79531">
        <ele>445</ele>
        <time>2000-01-01T02:58:31.000Z</time>
      </trkpt>
      <trkpt lat="45.82963" lon="4.79536">
        <ele>442.8</ele>
        <time>2000-01-01T02:58:41.000Z</time>
      </trkpt>
      <trkpt lat="45.82947" lon="4.79547">
        <ele>439</ele>
        <time>2000-01-01T02:58:51.000Z</time>
      </trkpt>
      <trkpt lat="45.82932" lon="4.79554">
        <ele>440.2</ele>
        <time>2000-01-01T02:59:01.000Z</time>
      </trkpt>
      <trkpt lat="45.82918" lon="4.7956">
        <ele>433</ele>
        <time>2000-01-01T02:59:11.000Z</time>
      </trkpt>
      <trkpt lat="45.82904" lon="4.79566">
        <ele>438.8</ele>
        <time>2000-01-01T02:59:21.000Z</time>
      </trkpt>
      <trkpt lat="45.82893" lon="4.79575">
        <ele>434</ele>
        <time>2000-01-01T02:59:31.000Z</time>
      </trkpt>
      <trkpt lat="45.82887" lon="4.7958">
        <ele>436.4</ele>
        <time>2000-01-01T02:59:41.000Z</time>
      </trkpt>
      <trkpt lat="45.8287" lon="4.79589">
        <ele>435</ele>
        <time>2000-01-01T02:59:51.000Z</time>
      </trkpt>
      <trkpt lat="45.82862" lon="4.79596">
        <ele>434.6</ele>
        <time>2000-01-01T03:00:01.000Z</time>
      </trkpt>
      <trkpt lat="45.82852" lon="4.79602">
        <ele>435</ele>
        <time>2000-01-01T03:00:11.000Z</time>
      </trkpt>
      <trkpt lat="45.82845" lon="4.79606">
        <ele>432.4</ele>
        <time>2000-01-01T03:00:21.000Z</time>
      </trkpt>
      <trkpt lat="45.82832" lon="4.7961">
        <ele>435</ele>
        <time>2000-01-01T03:00:31.000Z</time>
      </trkpt>
      <trkpt lat="45.82823" lon="4.79614">
        <ele>429.4</ele>
        <time>2000-01-01T03:00:41.000Z</time>
      </trkpt>
      <trkpt lat="45.82804" lon="4.7962">
        <ele>436</ele>
        <time>2000-01-01T03:00:51.000Z</time>
      </trkpt>
      <trkpt lat="45.82792" lon="4.79623">
        <ele>427.6</ele>
        <time>2000-01-01T03:01:01.000Z</time>
      </trkpt>
      <trkpt lat="45.82784" lon="4.79625">
        <ele>434.5</ele>
        <time>2000-01-01T03:01:11.000Z</time>
      </trkpt>
      <trkpt lat="45.82772" lon="4.79631">
        <ele>425.5</ele>
        <time>2000-01-01T03:01:21.000Z</time>
      </trkpt>
      <trkpt lat="45.82764" lon="4.79634">
        <ele>433</ele>
        <time>2000-01-01T03:01:31.000Z</time>
      </trkpt>
      <trkpt lat="45.82754" lon="4.7964">
        <ele>422.5</ele>
        <time>2000-01-01T03:01:41.000Z</time>
      </trkpt>
      <trkpt lat="45.82745" lon="4.79643">
        <ele>433</ele>
        <time>2000-01-01T03:01:51.000Z</time>
      </trkpt>
      <trkpt lat="45.82736" lon="4.79649">
        <ele>421.8</ele>
        <time>2000-01-01T03:02:01.000Z</time>
      </trkpt>
      <trkpt lat="45.82728" lon="4.79654">
        <ele>420.9</ele>
        <time>2000-01-01T03:02:11.000Z</time>
      </trkpt>
      <trkpt lat="45.8272" lon="4.79661">
        <ele>433</ele>
        <time>2000-01-01T03:02:21.000Z</time>
      </trkpt>
      <trkpt lat="45.82704" lon="4.79666">
        <ele>416.5</ele>
        <time>2000-01-01T03:02:31.000Z</time>
      </trkpt>
      <trkpt lat="45.82695" lon="4.79667">
        <ele>427</ele>
        <time>2000-01-01T03:02:41.000Z</time>
      </trkpt>
      <trkpt lat="45.82687" lon="4.7967">
        <ele>415.1</ele>
        <time>2000-01-01T03:02:51.000Z</time>
      </trkpt>
      <trkpt lat="45.82676" lon="4.79677">
        <ele>426</ele>
        <time>2000-01-01T03:03:01.000Z</time>
      </trkpt>
      <trkpt lat="45.82669" lon="4.79682">
        <ele>413.6</ele>
        <time>2000-01-01T03:03:11.000Z</time>
      </trkpt>
      <trkpt lat="45.82658" lon="4.79689">
        <ele>419</ele>
        <time>2000-01-01T03:03:21.000Z</time>
      </trkpt>
      <trkpt lat="45.82651" lon="4.79694">
        <ele>410.4</ele>
        <time>2000-01-01T03:03:31.000Z</time>
      </trkpt>
      <trkpt lat="45.82631" lon="4.79707">
        <ele>417</ele>
        <time>2000-01-01T03:03:41.000Z</time>
      </trkpt>
      <trkpt lat="45.82625" lon="4.79714">
        <ele>407.3</ele>
        <time>2000-01-01T03:03:51.000Z</time>
      </trkpt>
      <trkpt lat="45.82617" lon="4.79726">
        <ele>416</ele>
        <time>2000-01-01T03:04:01.000Z</time>
      </trkpt>
      <trkpt lat="45.82613" lon="4.79738">
        <ele>405.5</ele>
        <time>2000-01-01T03:04:11.000Z</time>
      </trkpt>
      <trkpt lat="45.82608" lon="4.79762">
        <ele>409</ele>
        <time>2000-01-01T03:04:21.000Z</time>
      </trkpt>
      <trkpt lat="45.82605" lon="4.79778">
        <ele>405.9</ele>
        <time>2000-01-01T03:04:31.000Z</time>
      </trkpt>
      <trkpt lat="45.82604" lon="4.79799">
        <ele>409</ele>
        <time>2000-01-01T03:04:41.000Z</time>
      </trkpt>
      <trkpt lat="45.82602" lon="4.79817">
        <ele>406.8</ele>
        <time>2000-01-01T03:04:51.000Z</time>
      </trkpt>
      <trkpt lat="45.82601" lon="4.79827">
        <ele>409</ele>
        <time>2000-01-01T03:05:01.000Z</time>
      </trkpt>
      <trkpt lat="45.826" lon="4.79841">
        <ele>407</ele>
        <time>2000-01-01T03:05:11.000Z</time>
      </trkpt>
      <trkpt lat="45.82598" lon="4.79851">
        <ele>406.6</ele>
        <time>2000-01-01T03:05:21.000Z</time>
      </trkpt>
      <trkpt lat="45.82595" lon="4.79869">
        <ele>409</ele>
        <time>2000-01-01T03:05:31.000Z</time>
      </trkpt>
      <trkpt lat="45.82594" lon="4.79881">
        <ele>406.4</ele>
        <time>2000-01-01T03:05:41.000Z</time>
      </trkpt>
      <trkpt lat="45.82591" lon="4.79889">
        <ele>406.1</ele>
        <time>2000-01-01T03:05:51.000Z</time>
      </trkpt>
      <trkpt lat="45.82584" lon="4.79907">
        <ele>409</ele>
        <time>2000-01-01T03:06:01.000Z</time>
      </trkpt>
      <trkpt lat="45.8258" lon="4.79927">
        <ele>405.8</ele>
        <time>2000-01-01T03:06:11.000Z</time>
      </trkpt>
      <trkpt lat="45.82579" lon="4.79947">
        <ele>407</ele>
        <time>2000-01-01T03:06:21.000Z</time>
      </trkpt>
      <trkpt lat="45.82573" lon="4.79962">
        <ele>405.8</ele>
        <time>2000-01-01T03:06:31.000Z</time>
      </trkpt>
      <trkpt lat="45.82568" lon="4.79974">
        <ele>406</ele>
        <time>2000-01-01T03:06:41.000Z</time>
      </trkpt>
      <trkpt lat="45.82564" lon="4.79987">
        <ele>405.2</ele>
        <time>2000-01-01T03:06:51.000Z</time>
      </trkpt>
      <trkpt lat="45.82563" lon="4.79997">
        <ele>405.5</ele>
        <time>2000-01-01T03:07:01.000Z</time>
      </trkpt>
      <trkpt lat="45.82561" lon="4.80021">
        <ele>404.5</ele>
        <time>2000-01-01T03:07:11.000Z</time>
      </trkpt>
      <trkpt lat="45.82557" lon="4.80041">
        <ele>406.8</ele>
        <time>2000-01-01T03:07:21.000Z</time>
      </trkpt>
      <trkpt lat="45.82551" lon="4.80062">
        <ele>404.7</ele>
        <time>2000-01-01T03:07:31.000Z</time>
      </trkpt>
      <trkpt lat="45.82544" lon="4.80081">
        <ele>407.5</ele>
        <time>2000-01-01T03:07:41.000Z</time>
      </trkpt>
      <trkpt lat="45.82535" lon="4.80096">
        <ele>402.8</ele>
        <time>2000-01-01T03:07:51.000Z</time>
      </trkpt>
      <trkpt lat="45.8253" lon="4.80106">
        <ele>406.1</ele>
        <time>2000-01-01T03:08:01.000Z</time>
      </trkpt>
      <trkpt lat="45.82521" lon="4.80121">
        <ele>402.4</ele>
        <time>2000-01-01T03:08:11.000Z</time>
      </trkpt>
      <trkpt lat="45.8251" lon="4.80136">
        <ele>404.5</ele>
        <time>2000-01-01T03:08:21.000Z</time>
      </trkpt>
      <trkpt lat="45.82499" lon="4.8015">
        <ele>402</ele>
        <time>2000-01-01T03:08:31.000Z</time>
      </trkpt>
      <trkpt lat="45.82491" lon="4.80158">
        <ele>401.8</ele>
        <time>2000-01-01T03:08:41.000Z</time>
      </trkpt>
      <trkpt lat="45.82485" lon="4.80161">
        <ele>400.3</ele>
        <time>2000-01-01T03:08:51.000Z</time>
      </trkpt>
      <trkpt lat="45.82474" lon="4.80175">
        <ele>396</ele>
        <time>2000-01-01T03:09:01.000Z</time>
      </trkpt>
      <trkpt lat="45.82463" lon="4.8019">
        <ele>399.2</ele>
        <time>2000-01-01T03:09:11.000Z</time>
      </trkpt>
      <trkpt lat="45.82454" lon="4.80205">
        <ele>394</ele>
        <time>2000-01-01T03:09:21.000Z</time>
      </trkpt>
      <trkpt lat="45.82451" lon="4.80225">
        <ele>402.3</ele>
        <time>2000-01-01T03:09:31.000Z</time>
      </trkpt>
      <trkpt lat="45.82447" lon="4.80234">
        <ele>393.5</ele>
        <time>2000-01-01T03:09:41.000Z</time>
      </trkpt>
      <trkpt lat="45.82444" lon="4.8024">
        <ele>403.7</ele>
        <time>2000-01-01T03:09:51.000Z</time>
      </trkpt>
      <trkpt lat="45.82438" lon="4.80253">
        <ele>404.7</ele>
        <time>2000-01-01T03:10:01.000Z</time>
      </trkpt>
      <trkpt lat="45.82431" lon="4.80272">
        <ele>399.7</ele>
        <time>2000-01-01T03:10:11.000Z</time>
      </trkpt>
      <trkpt lat="45.82425" lon="4.8029">
        <ele>407.9</ele>
        <time>2000-01-01T03:10:21.000Z</time>
      </trkpt>
      <trkpt lat="45.82423" lon="4.803">
        <ele>398.8</ele>
        <time>2000-01-01T03:10:31.000Z</time>
      </trkpt>
      <trkpt lat="45.82416" lon="4.80317">
        <ele>411.3</ele>
        <time>2000-01-01T03:10:41.000Z</time>
      </trkpt>
      <trkpt lat="45.82412" lon="4.80335">
        <ele>403.9</ele>
        <time>2000-01-01T03:10:51.000Z</time>
      </trkpt>
      <trkpt lat="45.82409" lon="4.80351">
        <ele>415.5</ele>
        <time>2000-01-01T03:11:01.000Z</time>
      </trkpt>
      <trkpt lat="45.82405" lon="4.80369">
        <ele>409</ele>
        <time>2000-01-01T03:11:11.000Z</time>
      </trkpt>
      <trkpt lat="45.82405" lon="4.80383">
        <ele>417.5</ele>
        <time>2000-01-01T03:11:21.000Z</time>
      </trkpt>
      <trkpt lat="45.82399" lon="4.80397">
        <ele>409</ele>
        <time>2000-01-01T03:11:31.000Z</time>
      </trkpt>
      <trkpt lat="45.82394" lon="4.80415">
        <ele>416.7</ele>
        <time>2000-01-01T03:11:41.000Z</time>
      </trkpt>
      <trkpt lat="45.82392" lon="4.80421">
        <ele>416.3</ele>
        <time>2000-01-01T03:11:51.000Z</time>
      </trkpt>
      <trkpt lat="45.8239" lon="4.80438">
        <ele>409</ele>
        <time>2000-01-01T03:12:01.000Z</time>
      </trkpt>
      <trkpt lat="45.82386" lon="4.80455">
        <ele>413.9</ele>
        <time>2000-01-01T03:12:11.000Z</time>
      </trkpt>
      <trkpt lat="45.82383" lon="4.80472">
        <ele>409.5</ele>
        <time>2000-01-01T03:12:21.000Z</time>
      </trkpt>
      <trkpt lat="45.8238" lon="4.8049">
        <ele>410.8</ele>
        <time>2000-01-01T03:12:31.000Z</time>
      </trkpt>
      <trkpt lat="45.82376" lon="4.80505">
        <ele>407.7</ele>
        <time>2000-01-01T03:12:41.000Z</time>
      </trkpt>
      <trkpt lat="45.82371" lon="4.80521">
        <ele>406.8</ele>
        <time>2000-01-01T03:12:51.000Z</time>
      </trkpt>
      <trkpt lat="45.82366" lon="4.8054">
        <ele>406</ele>
        <time>2000-01-01T03:13:01.000Z</time>
      </trkpt>
      <trkpt lat="45.82363" lon="4.8055">
        <ele>402.9</ele>
        <time>2000-01-01T03:13:11.000Z</time>
      </trkpt>
      <trkpt lat="45.82358" lon="4.80567">
        <ele>401</ele>
        <time>2000-01-01T03:13:21.000Z</time>
      </trkpt>
      <trkpt lat="45.82358" lon="4.80582">
        <ele>398.8</ele>
        <time>2000-01-01T03:13:31.000Z</time>
      </trkpt>
      <trkpt lat="45.82359" lon="4.80602">
        <ele>399</ele>
        <time>2000-01-01T03:13:41.000Z</time>
      </trkpt>
      <trkpt lat="45.8236" lon="4.80619">
        <ele>396</ele>
        <time>2000-01-01T03:13:51.000Z</time>
      </trkpt>
      <trkpt lat="45.82358" lon="4.80638">
        <ele>395</ele>
        <time>2000-01-01T03:14:01.000Z</time>
      </trkpt>
      <trkpt lat="45.82355" lon="4.80654">
        <ele>390.6</ele>
        <time>2000-01-01T03:14:11.000Z</time>
      </trkpt>
      <trkpt lat="45.82353" lon="4.80669">
        <ele>392</ele>
        <time>2000-01-01T03:14:21.000Z</time>
      </trkpt>
      <trkpt lat="45.82355" lon="4.80678">
        <ele>386.9</ele>
        <time>2000-01-01T03:14:31.000Z</time>
      </trkpt>
      <trkpt lat="45.82365" lon="4.80691">
        <ele>389</ele>
        <time>2000-01-01T03:14:41.000Z</time>
      </trkpt>
      <trkpt lat="45.82372" lon="4.80687">
        <ele>387.4</ele>
        <time>2000-01-01T03:14:51.000Z</time>
      </trkpt>
      <trkpt lat="45.82381" lon="4.80681">
        <ele>389.1</ele>
        <time>2000-01-01T03:15:01.000Z</time>
      </trkpt>
      <trkpt lat="45.82384" lon="4.80677">
        <ele>390</ele>
        <time>2000-01-01T03:15:11.000Z</time>
      </trkpt>
      <trkpt lat="45.82386" lon="4.80677">
        <ele>390</ele>
        <time>2000-01-01T03:15:21.000Z</time>
      </trkpt>
      <trkpt lat="45.82392" lon="4.80673">
        <ele>391.5</ele>
        <time>2000-01-01T03:15:31.000Z</time>
      </trkpt>
      <trkpt lat="45.82395" lon="4.8067">
        <ele>392.6</ele>
        <time>2000-01-01T03:15:41.000Z</time>
      </trkpt>
      <trkpt lat="45.82401" lon="4.80668">
        <ele>394.4</ele>
        <time>2000-01-01T03:15:51.000Z</time>
      </trkpt>
      <trkpt lat="45.82404" lon="4.80669">
        <ele>391</ele>
        <time>2000-01-01T03:16:01.000Z</time>
      </trkpt>
      <trkpt lat="45.82407" lon="4.80669">
        <ele>396.2</ele>
        <time>2000-01-01T03:16:11.000Z</time>
      </trkpt>
      <trkpt lat="45.82409" lon="4.80671">
        <ele>396.7</ele>
        <time>2000-01-01T03:16:21.000Z</time>
      </trkpt>
      <trkpt lat="45.82419" lon="4.8067">
        <ele>399.4</ele>
        <time>2000-01-01T03:16:31.000Z</time>
      </trkpt>
      <trkpt lat="45.82423" lon="4.80671">
        <ele>400.1</ele>
        <time>2000-01-01T03:16:41.000Z</time>
      </trkpt>
      <trkpt lat="45.82431" lon="4.80669">
        <ele>394</ele>
        <time>2000-01-01T03:16:51.000Z</time>
      </trkpt>
      <trkpt lat="45.82435" lon="4.80667">
        <ele>402.3</ele>
        <time>2000-01-01T03:17:01.000Z</time>
      </trkpt>
      <trkpt lat="45.8244" lon="4.80665">
        <ele>403.1</ele>
        <time>2000-01-01T03:17:11.000Z</time>
      </trkpt>
      <trkpt lat="45.82447" lon="4.80665">
        <ele>404.4</ele>
        <time>2000-01-01T03:17:21.000Z</time>
      </trkpt>
      <trkpt lat="45.82453" lon="4.80664">
        <ele>401</ele>
        <time>2000-01-01T03:17:31.000Z</time>
      </trkpt>
      <trkpt lat="45.82466" lon="4.80663">
        <ele>407.9</ele>
        <time>2000-01-01T03:17:41.000Z</time>
      </trkpt>
      <trkpt lat="45.82468" lon="4.80662">
        <ele>408.2</ele>
        <time>2000-01-01T03:17:51.000Z</time>
      </trkpt>
      <trkpt lat="45.82478" lon="4.80662">
        <ele>401</ele>
        <time>2000-01-01T03:18:01.000Z</time>
      </trkpt>
      <trkpt lat="45.82481" lon="4.80662">
        <ele>410</ele>
        <time>2000-01-01T03:18:11.000Z</time>
      </trkpt>
      <trkpt lat="45.82488" lon="4.80663">
        <ele>410.8</ele>
        <time>2000-01-01T03:18:21.000Z</time>
      </trkpt>
      <trkpt lat="45.82496" lon="4.80661">
        <ele>411.7</ele>
        <time>2000-01-01T03:18:31.000Z</time>
      </trkpt>
      <trkpt lat="45.82502" lon="4.80659">
        <ele>405</ele>
        <time>2000-01-01T03:18:41.000Z</time>
      </trkpt>
      <trkpt lat="45.82507" lon="4.80658">
        <ele>413.1</ele>
        <time>2000-01-01T03:18:51.000Z</time>
      </trkpt>
      <trkpt lat="45.82512" lon="4.80657">
        <ele>413.8</ele>
        <time>2000-01-01T03:19:01.000Z</time>
      </trkpt>
      <trkpt lat="45.82514" lon="4.80654">
        <ele>414.2</ele>
        <time>2000-01-01T03:19:11.000Z</time>
      </trkpt>
      <trkpt lat="45.82523" lon="4.80651">
        <ele>409</ele>
        <time>2000-01-01T03:19:21.000Z</time>
      </trkpt>
      <trkpt lat="45.82529" lon="4.80648">
        <ele>416.5</ele>
        <time>2000-01-01T03:19:31.000Z</time>
      </trkpt>
      <trkpt lat="45.82535" lon="4.80647">
        <ele>417.2</ele>
        <time>2000-01-01T03:19:41.000Z</time>
      </trkpt>
      <trkpt lat="45.82546" lon="4.80639">
        <ele>416</ele>
        <time>2000-01-01T03:19:51.000Z</time>
      </trkpt>
      <trkpt lat="45.82553" lon="4.80635">
        <ele>420</ele>
        <time>2000-01-01T03:20:01.000Z</time>
      </trkpt>
      <trkpt lat="45.8256" lon="4.80631">
        <ele>421</ele>
        <time>2000-01-01T03:20:11.000Z</time>
      </trkpt>
      <trkpt lat="45.82568" lon="4.80626">
        <ele>422</ele>
        <time>2000-01-01T03:20:21.000Z</time>
      </trkpt>
      <trkpt lat="45.82572" lon="4.80623">
        <ele>422.9</ele>
        <time>2000-01-01T03:20:31.000Z</time>
      </trkpt>
      <trkpt lat="45.82574" lon="4.80621">
        <ele>423.3</ele>
        <time>2000-01-01T03:20:41.000Z</time>
      </trkpt>
      <trkpt lat="45.82582" lon="4.80616">
        <ele>424.5</ele>
        <time>2000-01-01T03:20:51.000Z</time>
      </trkpt>
      <trkpt lat="45.82589" lon="4.80611">
        <ele>422</ele>
        <time>2000-01-01T03:21:01.000Z</time>
      </trkpt>
      <trkpt lat="45.82595" lon="4.80606">
        <ele>426.5</ele>
        <time>2000-01-01T03:21:11.000Z</time>
      </trkpt>
      <trkpt lat="45.82601" lon="4.80601">
        <ele>427.5</ele>
        <time>2000-01-01T03:21:21.000Z</time>
      </trkpt>
      <trkpt lat="45.82604" lon="4.80598">
        <ele>428.1</ele>
        <time>2000-01-01T03:21:31.000Z</time>
      </trkpt>
      <trkpt lat="45.82608" lon="4.80595">
        <ele>426</ele>
        <time>2000-01-01T03:21:41.000Z</time>
      </trkpt>
      <trkpt lat="45.82616" lon="4.8059">
        <ele>430</ele>
        <time>2000-01-01T03:21:51.000Z</time>
      </trkpt>
      <trkpt lat="45.82625" lon="4.80586">
        <ele>431.3</ele>
        <time>2000-01-01T03:22:01.000Z</time>
      </trkpt>
      <trkpt lat="45.82629" lon="4.80583">
        <ele>428</ele>
        <time>2000-01-01T03:22:11.000Z</time>
      </trkpt>
      <trkpt lat="45.82636" lon="4.8058">
        <ele>432.8</ele>
        <time>2000-01-01T03:22:21.000Z</time>
      </trkpt>
      <trkpt lat="45.82644" lon="4.80578">
        <ele>433.8</ele>
        <time>2000-01-01T03:22:31.000Z</time>
      </trkpt>
      <trkpt lat="45.82647" lon="4.80577">
        <ele>434.2</ele>
        <time>2000-01-01T03:22:41.000Z</time>
      </trkpt>
      <trkpt lat="45.82657" lon="4.80573">
        <ele>428</ele>
        <time>2000-01-01T03:22:51.000Z</time>
      </trkpt>
      <trkpt lat="45.82662" lon="4.8057">
        <ele>436.4</ele>
        <time>2000-01-01T03:23:01.000Z</time>
      </trkpt>
      <trkpt lat="45.82669" lon="4.80565">
        <ele>437.5</ele>
        <time>2000-01-01T03:23:11.000Z</time>
      </trkpt>
      <trkpt lat="45.82676" lon="4.80559">
        <ele>428</ele>
        <time>2000-01-01T03:23:21.000Z</time>
      </trkpt>
      <trkpt lat="45.82682" lon="4.80553">
        <ele>439.8</ele>
        <time>2000-01-01T03:23:31.000Z</time>
      </trkpt>
      <trkpt lat="45.82687" lon="4.80545">
        <ele>440.9</ele>
        <time>2000-01-01T03:23:41.000Z</time>
      </trkpt>
      <trkpt lat="45.82693" lon="4.80542">
        <ele>430</ele>
        <time>2000-01-01T03:23:51.000Z</time>
      </trkpt>
      <trkpt lat="45.82697" lon="4.80538">
        <ele>442.5</ele>
        <time>2000-01-01T03:24:01.000Z</time>
      </trkpt>
      <trkpt lat="45.82704" lon="4.80534">
        <ele>443.5</ele>
        <time>2000-01-01T03:24:11.000Z</time>
      </trkpt>
      <trkpt lat="45.82708" lon="4.80534">
        <ele>443.9</ele>
        <time>2000-01-01T03:24:21.000Z</time>
      </trkpt>
      <trkpt lat="45.82712" lon="4.8053">
        <ele>434</ele>
        <time>2000-01-01T03:24:31.000Z</time>
      </trkpt>
      <trkpt lat="45.82723" lon="4.80527">
        <ele>446.1</ele>
        <time>2000-01-01T03:24:41.000Z</time>
      </trkpt>
      <trkpt lat="45.82732" lon="4.80523">
        <ele>436</ele>
        <time>2000-01-01T03:24:51.000Z</time>
      </trkpt>
      <trkpt lat="45.8274" lon="4.80521">
        <ele>447.7</ele>
        <time>2000-01-01T03:25:01.000Z</time>
      </trkpt>
      <trkpt lat="45.82748" lon="4.80521">
        <ele>448.3</ele>
        <time>2000-01-01T03:25:11.000Z</time>
      </trkpt>
      <trkpt lat="45.82756" lon="4.80519">
        <ele>436</ele>
        <time>2000-01-01T03:25:21.000Z</time>
      </trkpt>
      <trkpt lat="45.82764" lon="4.80518">
        <ele>449.9</ele>
        <time>2000-01-01T03:25:31.000Z</time>
      </trkpt>
      <trkpt lat="45.82773" lon="4.80517">
        <ele>450.8</ele>
        <time>2000-01-01T03:25:41.000Z</time>
      </trkpt>
      <trkpt lat="45.82779" lon="4.80513">
        <ele>444</ele>
        <time>2000-01-01T03:25:51.000Z</time>
      </trkpt>
      <trkpt lat="45.82784" lon="4.80509">
        <ele>452.5</ele>
        <time>2000-01-01T03:26:01.000Z</time>
      </trkpt>
      <trkpt lat="45.82791" lon="4.80506">
        <ele>453.3</ele>
        <time>2000-01-01T03:26:11.000Z</time>
      </trkpt>
      <trkpt lat="45.828" lon="4.80502">
        <ele>448</ele>
        <time>2000-01-01T03:26:21.000Z</time>
      </trkpt>
      <trkpt lat="45.82803" lon="4.80499">
        <ele>454.9</ele>
        <time>2000-01-01T03:26:31.000Z</time>
      </trkpt>
      <trkpt lat="45.82812" lon="4.80496">
        <ele>455.9</ele>
        <time>2000-01-01T03:26:41.000Z</time>
      </trkpt>
      <trkpt lat="45.82823" lon="4.80492">
        <ele>451</ele>
        <time>2000-01-01T03:26:51.000Z</time>
      </trkpt>
      <trkpt lat="45.82829" lon="4.80486">
        <ele>458.6</ele>
        <time>2000-01-01T03:27:01.000Z</time>
      </trkpt>
      <trkpt lat="45.82833" lon="4.80483">
        <ele>459.4</ele>
        <time>2000-01-01T03:27:11.000Z</time>
      </trkpt>
      <trkpt lat="45.82841" lon="4.80481">
        <ele>455</ele>
        <time>2000-01-01T03:27:21.000Z</time>
      </trkpt>
      <trkpt lat="45.82847" lon="4.80477">
        <ele>460.9</ele>
        <time>2000-01-01T03:27:31.000Z</time>
      </trkpt>
      <trkpt lat="45.82852" lon="4.80469">
        <ele>462.1</ele>
        <time>2000-01-01T03:27:41.000Z</time>
      </trkpt>
      <trkpt lat="45.82858" lon="4.80462">
        <ele>459</ele>
        <time>2000-01-01T03:27:51.000Z</time>
      </trkpt>
      <trkpt lat="45.8286" lon="4.80458">
        <ele>464</ele>
        <time>2000-01-01T03:28:01.000Z</time>
      </trkpt>
      <trkpt lat="45.82862" lon="4.80453">
        <ele>464.8</ele>
        <time>2000-01-01T03:28:11.000Z</time>
      </trkpt>
      <trkpt lat="45.82865" lon="4.80452">
        <ele>465.1</ele>
        <time>2000-01-01T03:28:21.000Z</time>
      </trkpt>
      <trkpt lat="45.8287" lon="4.80436">
        <ele>461</ele>
        <time>2000-01-01T03:28:31.000Z</time>
      </trkpt>
      <trkpt lat="45.8287" lon="4.80429">
        <ele>468.2</ele>
        <time>2000-01-01T03:28:41.000Z</time>
      </trkpt>
      <trkpt lat="45.82876" lon="4.80419">
        <ele>469.8</ele>
        <time>2000-01-01T03:28:51.000Z</time>
      </trkpt>
      <trkpt lat="45.82879" lon="4.80413">
        <ele>465</ele>
        <time>2000-01-01T03:29:01.000Z</time>
      </trkpt>
      <trkpt lat="45.82881" lon="4.80396">
        <ele>473.2</ele>
        <time>2000-01-01T03:29:11.000Z</time>
      </trkpt>
      <trkpt lat="45.82883" lon="4.80383">
        <ele>472</ele>
        <time>2000-01-01T03:29:21.000Z</time>
      </trkpt>
      <trkpt lat="45.82884" lon="4.80377">
        <ele>476.1</ele>
        <time>2000-01-01T03:29:31.000Z</time>
      </trkpt>
      <trkpt lat="45.82891" lon="4.80379">
        <ele>476.5</ele>
        <time>2000-01-01T03:29:41.000Z</time>
      </trkpt>
      <trkpt lat="45.82896" lon="4.80377">
        <ele>477.1</ele>
        <time>2000-01-01T03:29:51.000Z</time>
      </trkpt>
      <trkpt lat="45.82905" lon="4.80372">
        <ele>472</ele>
        <time>2000-01-01T03:30:01.000Z</time>
      </trkpt>
      <trkpt lat="45.82912" lon="4.80368">
        <ele>479</ele>
        <time>2000-01-01T03:30:11.000Z</time>
      </trkpt>
      <trkpt lat="45.82917" lon="4.8036">
        <ele>480.1</ele>
        <time>2000-01-01T03:30:21.000Z</time>
      </trkpt>
      <trkpt lat="45.82923" lon="4.80353">
        <ele>477</ele>
        <time>2000-01-01T03:30:31.000Z</time>
      </trkpt>
      <trkpt lat="45.8293" lon="4.80344">
        <ele>481.2</ele>
        <time>2000-01-01T03:30:41.000Z</time>
      </trkpt>
      <trkpt lat="45.82939" lon="4.80336">
        <ele>477</ele>
        <time>2000-01-01T03:30:51.000Z</time>
      </trkpt>
      <trkpt lat="45.82942" lon="4.80334">
        <ele>482</ele>
        <time>2000-01-01T03:31:01.000Z</time>
      </trkpt>
      <trkpt lat="45.82952" lon="4.80322">
        <ele>482.5</ele>
        <time>2000-01-01T03:31:11.000Z</time>
      </trkpt>
      <trkpt lat="45.8296" lon="4.80314">
        <ele>477.5</ele>
        <time>2000-01-01T03:31:21.000Z</time>
      </trkpt>
      <trkpt lat="45.82967" lon="4.803">
        <ele>484.2</ele>
        <time>2000-01-01T03:31:31.000Z</time>
      </trkpt>
      <trkpt lat="45.82977" lon="4.80287">
        <ele>478</ele>
        <time>2000-01-01T03:31:41.000Z</time>
      </trkpt>
      <trkpt lat="45.82984" lon="4.80277">
        <ele>485.4</ele>
        <time>2000-01-01T03:31:51.000Z</time>
      </trkpt>
      <trkpt lat="45.82991" lon="4.80266">
        <ele>479.5</ele>
        <time>2000-01-01T03:32:01.000Z</time>
      </trkpt>
      <trkpt lat="45.82998" lon="4.80254">
        <ele>486.7</ele>
        <time>2000-01-01T03:32:11.000Z</time>
      </trkpt>
      <trkpt lat="45.83006" lon="4.80242">
        <ele>481</ele>
        <time>2000-01-01T03:32:21.000Z</time>
      </trkpt>
      <trkpt lat="45.83009" lon="4.80238">
        <ele>487.8</ele>
        <time>2000-01-01T03:32:31.000Z</time>
      </trkpt>
      <trkpt lat="45.83017" lon="4.80229">
        <ele>488.2</ele>
        <time>2000-01-01T03:32:41.000Z</time>
      </trkpt>
      <trkpt lat="45.8302" lon="4.80225">
        <ele>488.4</ele>
        <time>2000-01-01T03:32:51.000Z</time>
      </trkpt>
      <trkpt lat="45.83022" lon="4.80222">
        <ele>484</ele>
        <time>2000-01-01T03:33:01.000Z</time>
      </trkpt>
      <trkpt lat="45.83028" lon="4.80219">
        <ele>488.4</ele>
        <time>2000-01-01T03:33:11.000Z</time>
      </trkpt>
      <trkpt lat="45.83037" lon="4.80209">
        <ele>489.1</ele>
        <time>2000-01-01T03:33:21.000Z</time>
      </trkpt>
      <trkpt lat="45.83045" lon="4.80202">
        <ele>485</ele>
        <time>2000-01-01T03:33:31.000Z</time>
      </trkpt>
      <trkpt lat="45.83055" lon="4.80195">
        <ele>489.9</ele>
        <time>2000-01-01T03:33:41.000Z</time>
      </trkpt>
      <trkpt lat="45.83064" lon="4.80184">
        <ele>486</ele>
        <time>2000-01-01T03:33:51.000Z</time>
      </trkpt>
      <trkpt lat="45.83075" lon="4.80174">
        <ele>490.8</ele>
        <time>2000-01-01T03:34:01.000Z</time>
      </trkpt>
      <trkpt lat="45.83083" lon="4.80163">
        <ele>486</ele>
        <time>2000-01-01T03:34:11.000Z</time>
      </trkpt>
      <trkpt lat="45.83088" lon="4.80154">
        <ele>493</ele>
        <time>2000-01-01T03:34:21.000Z</time>
      </trkpt>
      <trkpt lat="45.83097" lon="4.80145">
        <ele>498</ele>
        <time>2000-01-01T03:34:31.000Z</time>
      </trkpt>
      <trkpt lat="45.83099" lon="4.80141">
        <ele>495</ele>
        <time>2000-01-01T03:34:41.000Z</time>
      </trkpt>
      <trkpt lat="45.83108" lon="4.80135">
        <ele>495.7</ele>
        <time>2000-01-01T03:34:51.000Z</time>
      </trkpt>
      <trkpt lat="45.83115" lon="4.80128">
        <ele>504</ele>
        <time>2000-01-01T03:35:01.000Z</time>
      </trkpt>
      <trkpt lat="45.83119" lon="4.80128">
        <ele>496.1</ele>
        <time>2000-01-01T03:35:11.000Z</time>
      </trkpt>
      <trkpt lat="45.83126" lon="4.8012">
        <ele>497</ele>
        <time>2000-01-01T03:35:21.000Z</time>
      </trkpt>
      <trkpt lat="45.83131" lon="4.80113">
        <ele>504</ele>
        <time>2000-01-01T03:35:31.000Z</time>
      </trkpt>
      <trkpt lat="45.83137" lon="4.80107">
        <ele>498.8</ele>
        <time>2000-01-01T03:35:41.000Z</time>
      </trkpt>
      <trkpt lat="45.83142" lon="4.80101">
        <ele>499.3</ele>
        <time>2000-01-01T03:35:51.000Z</time>
      </trkpt>
      <trkpt lat="45.83151" lon="4.80088">
        <ele>503</ele>
        <time>2000-01-01T03:36:01.000Z</time>
      </trkpt>
      <trkpt lat="45.8316" lon="4.8008">
        <ele>499.8</ele>
        <time>2000-01-01T03:36:11.000Z</time>
      </trkpt>
      <trkpt lat="45.83166" lon="4.80073">
        <ele>500</ele>
        <time>2000-01-01T03:36:21.000Z</time>
      </trkpt>
      <trkpt lat="45.8317" lon="4.80069">
        <ele>504</ele>
        <time>2000-01-01T03:36:31.000Z</time>
      </trkpt>
      <trkpt lat="45.8318" lon="4.80061">
        <ele>499.2</ele>
        <time>2000-01-01T03:36:41.000Z</time>
      </trkpt>
      <trkpt lat="45.83188" lon="4.80047">
        <ele>505</ele>
        <time>2000-01-01T03:36:51.000Z</time>
      </trkpt>
      <trkpt lat="45.83193" lon="4.80041">
        <ele>498.9</ele>
        <time>2000-01-01T03:37:01.000Z</time>
      </trkpt>
      <trkpt lat="45.83196" lon="4.80038">
        <ele>498.7</ele>
        <time>2000-01-01T03:37:11.000Z</time>
      </trkpt>
      <trkpt lat="45.832" lon="4.8003">
        <ele>498.9</ele>
        <time>2000-01-01T03:37:21.000Z</time>
      </trkpt>
      <trkpt lat="45.83214" lon="4.80019">
        <ele>505</ele>
        <time>2000-01-01T03:37:31.000Z</time>
      </trkpt>
      <trkpt lat="45.83225" lon="4.80009">
        <ele>497.8</ele>
        <time>2000-01-01T03:37:41.000Z</time>
      </trkpt>
      <trkpt lat="45.83236" lon="4.79998">
        <ele>504</ele>
        <time>2000-01-01T03:37:51.000Z</time>
      </trkpt>
      <trkpt lat="45.83244" lon="4.79989">
        <ele>498.5</ele>
        <time>2000-01-01T03:38:01.000Z</time>
      </trkpt>
      <trkpt lat="45.83255" lon="4.7998">
        <ele>502</ele>
        <time>2000-01-01T03:38:11.000Z</time>
      </trkpt>
      <trkpt lat="45.83258" lon="4.79978">
        <ele>499.4</ele>
        <time>2000-01-01T03:38:21.000Z</time>
      </trkpt>
      <trkpt lat="45.83264" lon="4.79975">
        <ele>499.7</ele>
        <time>2000-01-01T03:38:31.000Z</time>
      </trkpt>
      <trkpt lat="45.83273" lon="4.79975">
        <ele>500</ele>
        <time>2000-01-01T03:38:41.000Z</time>
      </trkpt>
      <trkpt lat="45.83282" lon="4.79972">
        <ele>499.9</ele>
        <time>2000-01-01T03:38:51.000Z</time>
      </trkpt>
      <trkpt lat="45.83287" lon="4.79971">
        <ele>499.7</ele>
        <time>2000-01-01T03:39:01.000Z</time>
      </trkpt>
      <trkpt lat="45.83295" lon="4.7997">
        <ele>497</ele>
        <time>2000-01-01T03:39:11.000Z</time>
      </trkpt>
      <trkpt lat="45.83306" lon="4.79968">
        <ele>499</ele>
        <time>2000-01-01T03:39:21.000Z</time>
      </trkpt>
      <trkpt lat="45.83318" lon="4.79964">
        <ele>493</ele>
        <time>2000-01-01T03:39:31.000Z</time>
      </trkpt>
      <trkpt lat="45.83322" lon="4.79965">
        <ele>499</ele>
        <time>2000-01-01T03:39:41.000Z</time>
      </trkpt>
      <trkpt lat="45.83332" lon="4.79964">
        <ele>499</ele>
        <time>2000-01-01T03:39:51.000Z</time>
      </trkpt>
      <trkpt lat="45.83341" lon="4.79959">
        <ele>493</ele>
        <time>2000-01-01T03:40:01.000Z</time>
      </trkpt>
      <trkpt lat="45.83348" lon="4.79959">
        <ele>499.8</ele>
        <time>2000-01-01T03:40:11.000Z</time>
      </trkpt>
      <trkpt lat="45.83357" lon="4.79958">
        <ele>500.3</ele>
        <time>2000-01-01T03:40:21.000Z</time>
      </trkpt>
      <trkpt lat="45.83361" lon="4.79957">
        <ele>490</ele>
        <time>2000-01-01T03:40:31.000Z</time>
      </trkpt>
      <trkpt lat="45.83372" lon="4.79961">
        <ele>501</ele>
        <time>2000-01-01T03:40:41.000Z</time>
      </trkpt>
      <trkpt lat="45.83384" lon="4.7996">
        <ele>487</ele>
        <time>2000-01-01T03:40:51.000Z</time>
      </trkpt>
      <trkpt lat="45.83399" lon="4.7996">
        <ele>502.1</ele>
        <time>2000-01-01T03:41:01.000Z</time>
      </trkpt>
      <trkpt lat="45.83411" lon="4.79956">
        <ele>487</ele>
        <time>2000-01-01T03:41:11.000Z</time>
      </trkpt>
      <trkpt lat="45.83419" lon="4.79949">
        <ele>503.2</ele>
        <time>2000-01-01T03:41:21.000Z</time>
      </trkpt>
      <trkpt lat="45.83425" lon="4.79947">
        <ele>503.8</ele>
        <time>2000-01-01T03:41:31.000Z</time>
      </trkpt>
      <trkpt lat="45.83436" lon="4.79943">
        <ele>488</ele>
        <time>2000-01-01T03:41:41.000Z</time>
      </trkpt>
      <trkpt lat="45.83448" lon="4.79939">
        <ele>505.7</ele>
        <time>2000-01-01T03:41:51.000Z</time>
      </trkpt>
      <trkpt lat="45.83458" lon="4.79935">
        <ele>489</ele>
        <time>2000-01-01T03:42:01.000Z</time>
      </trkpt>
      <trkpt lat="45.83465" lon="4.79933">
        <ele>506.2</ele>
        <time>2000-01-01T03:42:11.000Z</time>
      </trkpt>
      <trkpt lat="45.83476" lon="4.7993">
        <ele>506.7</ele>
        <time>2000-01-01T03:42:21.000Z</time>
      </trkpt>
      <trkpt lat="45.83487" lon="4.79929">
        <ele>490</ele>
        <time>2000-01-01T03:42:31.000Z</time>
      </trkpt>
      <trkpt lat="45.83499" lon="4.79925">
        <ele>508.2</ele>
        <time>2000-01-01T03:42:41.000Z</time>
      </trkpt>
      <trkpt lat="45.83507" lon="4.79921">
        <ele>490</ele>
        <time>2000-01-01T03:42:51.000Z</time>
      </trkpt>
      <trkpt lat="45.83515" lon="4.79917">
        <ele>508.6</ele>
        <time>2000-01-01T03:43:01.000Z</time>
      </trkpt>
      <trkpt lat="45.83521" lon="4.79914">
        <ele>508.3</ele>
        <time>2000-01-01T03:43:11.000Z</time>
      </trkpt>
      <trkpt lat="45.83529" lon="4.79912">
        <ele>490</ele>
        <time>2000-01-01T03:43:21.000Z</time>
      </trkpt>
      <trkpt lat="45.83533" lon="4.79912">
        <ele>508.5</ele>
        <time>2000-01-01T03:43:31.000Z</time>
      </trkpt>
      <trkpt lat="45.83541" lon="4.79911">
        <ele>508.8</ele>
        <time>2000-01-01T03:43:41.000Z</time>
      </trkpt>
      <trkpt lat="45.83547" lon="4.7991">
        <ele>509</ele>
        <time>2000-01-01T03:43:51.000Z</time>
      </trkpt>
      <trkpt lat="45.83554" lon="4.79912">
        <ele>494</ele>
        <time>2000-01-01T03:44:01.000Z</time>
      </trkpt>
      <trkpt lat="45.83567" lon="4.79913">
        <ele>510.7</ele>
        <time>2000-01-01T03:44:11.000Z</time>
      </trkpt>
      <trkpt lat="45.8357" lon="4.79913">
        <ele>510.8</ele>
        <time>2000-01-01T03:44:21.000Z</time>
      </trkpt>
      <trkpt lat="45.83584" lon="4.79914">
        <ele>498</ele>
        <time>2000-01-01T03:44:31.000Z</time>
      </trkpt>
      <trkpt lat="45.83588" lon="4.79915">
        <ele>512</ele>
        <time>2000-01-01T03:44:41.000Z</time>
      </trkpt>
      <trkpt lat="45.83599" lon="4.79914">
        <ele>512.6</ele>
        <time>2000-01-01T03:44:51.000Z</time>
      </trkpt>
      <trkpt lat="45.83609" lon="4.79914">
        <ele>497</ele>
        <time>2000-01-01T03:45:01.000Z</time>
      </trkpt>
      <trkpt lat="45.83615" lon="4.79915">
        <ele>514</ele>
        <time>2000-01-01T03:45:11.000Z</time>
      </trkpt>
      <trkpt lat="45.83627" lon="4.79914">
        <ele>514.7</ele>
        <time>2000-01-01T03:45:21.000Z</time>
      </trkpt>
      <trkpt lat="45.83638" lon="4.79913">
        <ele>498</ele>
        <time>2000-01-01T03:45:31.000Z</time>
      </trkpt>
      <trkpt lat="45.83648" lon="4.79913">
        <ele>515.7</ele>
        <time>2000-01-01T03:45:41.000Z</time>
      </trkpt>
      <trkpt lat="45.83656" lon="4.79913">
        <ele>516</ele>
        <time>2000-01-01T03:45:51.000Z</time>
      </trkpt>
      <trkpt lat="45.83668" lon="4.79909">
        <ele>497.5</ele>
        <time>2000-01-01T03:46:01.000Z</time>
      </trkpt>
      <trkpt lat="45.8368" lon="4.79907">
        <ele>516.3</ele>
        <time>2000-01-01T03:46:11.000Z</time>
      </trkpt>
      <trkpt lat="45.83692" lon="4.79909">
        <ele>499.7</ele>
        <time>2000-01-01T03:46:21.000Z</time>
      </trkpt>
      <trkpt lat="45.83705" lon="4.79912">
        <ele>518.2</ele>
        <time>2000-01-01T03:46:31.000Z</time>
      </trkpt>
      <trkpt lat="45.83714" lon="4.79913">
        <ele>502</ele>
        <time>2000-01-01T03:46:41.000Z</time>
      </trkpt>
      <trkpt lat="45.83721" lon="4.79913">
        <ele>519.4</ele>
        <time>2000-01-01T03:46:51.000Z</time>
      </trkpt>
      <trkpt lat="45.83727" lon="4.79911">
        <ele>519.5</ele>
        <time>2000-01-01T03:47:01.000Z</time>
      </trkpt>
      <trkpt lat="45.83743" lon="4.79912">
        <ele>512</ele>
        <time>2000-01-01T03:47:11.000Z</time>
      </trkpt>
      <trkpt lat="45.83752" lon="4.79913">
        <ele>521.6</ele>
        <time>2000-01-01T03:47:21.000Z</time>
      </trkpt>
      <trkpt lat="45.83758" lon="4.79915">
        <ele>522.1</ele>
        <time>2000-01-01T03:47:31.000Z</time>
      </trkpt>
      <trkpt lat="45.83771" lon="4.79913">
        <ele>512</ele>
        <time>2000-01-01T03:47:41.000Z</time>
      </trkpt>
      <trkpt lat="45.83783" lon="4.79911">
        <ele>523.6</ele>
        <time>2000-01-01T03:47:51.000Z</time>
      </trkpt>
      <trkpt lat="45.83792" lon="4.7991">
        <ele>512</ele>
        <time>2000-01-01T03:48:01.000Z</time>
      </trkpt>
      <trkpt lat="45.83805" lon="4.79908">
        <ele>525.6</ele>
        <time>2000-01-01T03:48:11.000Z</time>
      </trkpt>
      <trkpt lat="45.83814" lon="4.79903">
        <ele>522</ele>
        <time>2000-01-01T03:48:21.000Z</time>
      </trkpt>
      <trkpt lat="45.83821" lon="4.79898">
        <ele>528.2</ele>
        <time>2000-01-01T03:48:31.000Z</time>
      </trkpt>
      <trkpt lat="45.83823" lon="4.79895">
        <ele>528.8</ele>
        <time>2000-01-01T03:48:41.000Z</time>
      </trkpt>
      <trkpt lat="45.8383" lon="4.79891">
        <ele>530.2</ele>
        <time>2000-01-01T03:48:51.000Z</time>
      </trkpt>
      <trkpt lat="45.83833" lon="4.79887">
        <ele>522</ele>
        <time>2000-01-01T03:49:01.000Z</time>
      </trkpt>
      <trkpt lat="45.83844" lon="4.79887">
        <ele>532</ele>
        <time>2000-01-01T03:49:11.000Z</time>
      </trkpt>
      <trkpt lat="45.83854" lon="4.7989">
        <ele>527</ele>
        <time>2000-01-01T03:49:21.000Z</time>
      </trkpt>
      <trkpt lat="45.83862" lon="4.79893">
        <ele>532.7</ele>
        <time>2000-01-01T03:49:31.000Z</time>
      </trkpt>
      <trkpt lat="45.83866" lon="4.79893">
        <ele>533.3</ele>
        <time>2000-01-01T03:49:41.000Z</time>
      </trkpt>
      <trkpt lat="45.83872" lon="4.79892">
        <ele>534.2</ele>
        <time>2000-01-01T03:49:51.000Z</time>
      </trkpt>
      <trkpt lat="45.83883" lon="4.79896">
        <ele>531</ele>
        <time>2000-01-01T03:50:01.000Z</time>
      </trkpt>
      <trkpt lat="45.83893" lon="4.799">
        <ele>536.6</ele>
        <time>2000-01-01T03:50:11.000Z</time>
      </trkpt>
      <trkpt lat="45.83896" lon="4.79901">
        <ele>537.1</ele>
        <time>2000-01-01T03:50:21.000Z</time>
      </trkpt>
      <trkpt lat="45.83907" lon="4.79908">
        <ele>541</ele>
        <time>2000-01-01T03:50:31.000Z</time>
      </trkpt>
      <trkpt lat="45.83913" lon="4.79914">
        <ele>539.4</ele>
        <time>2000-01-01T03:50:41.000Z</time>
      </trkpt>
      <trkpt lat="45.83924" lon="4.79923">
        <ele>544</ele>
        <time>2000-01-01T03:50:51.000Z</time>
      </trkpt>
      <trkpt lat="45.8393" lon="4.79929">
        <ele>541.8</ele>
        <time>2000-01-01T03:51:01.000Z</time>
      </trkpt>
      <trkpt lat="45.83937" lon="4.79941">
        <ele>542.3</ele>
        <time>2000-01-01T03:51:11.000Z</time>
      </trkpt>
      <trkpt lat="45.83946" lon="4.79952">
        <ele>544</ele>
        <time>2000-01-01T03:51:21.000Z</time>
      </trkpt>
      <trkpt lat="45.83953" lon="4.79963">
        <ele>545.2</ele>
        <time>2000-01-01T03:51:31.000Z</time>
      </trkpt>
      <trkpt lat="45.83958" lon="4.79975">
        <ele>549</ele>
        <time>2000-01-01T03:51:41.000Z</time>
      </trkpt>
      <trkpt lat="45.83963" lon="4.79987">
        <ele>547.2</ele>
        <time>2000-01-01T03:51:51.000Z</time>
      </trkpt>
      <trkpt lat="45.83964" lon="4.79999">
        <ele>547.3</ele>
        <time>2000-01-01T03:52:01.000Z</time>
      </trkpt>
      <trkpt lat="45.83966" lon="4.80008">
        <ele>550</ele>
        <time>2000-01-01T03:52:11.000Z</time>
      </trkpt>
      <trkpt lat="45.83969" lon="4.80024">
        <ele>548.3</ele>
        <time>2000-01-01T03:52:21.000Z</time>
      </trkpt>
      <trkpt lat="45.83973" lon="4.80036">
        <ele>550</ele>
        <time>2000-01-01T03:52:31.000Z</time>
      </trkpt>
      <trkpt lat="45.83978" lon="4.80052">
        <ele>550.1</ele>
        <time>2000-01-01T03:52:41.000Z</time>
      </trkpt>
      <trkpt lat="45.83982" lon="4.80061">
        <ele>550</ele>
        <time>2000-01-01T03:52:51.000Z</time>
      </trkpt>
      <trkpt lat="45.83987" lon="4.8007">
        <ele>550.9</ele>
        <time>2000-01-01T03:53:01.000Z</time>
      </trkpt>
      <trkpt lat="45.83993" lon="4.80075">
        <ele>551.5</ele>
        <time>2000-01-01T03:53:11.000Z</time>
      </trkpt>
      <trkpt lat="45.84002" lon="4.80079">
        <ele>550</ele>
        <time>2000-01-01T03:53:21.000Z</time>
      </trkpt>
      <trkpt lat="45.84011" lon="4.80081">
        <ele>553.8</ele>
        <time>2000-01-01T03:53:31.000Z</time>
      </trkpt>
      <trkpt lat="45.84018" lon="4.80083">
        <ele>554.6</ele>
        <time>2000-01-01T03:53:41.000Z</time>
      </trkpt>
      <trkpt lat="45.84027" lon="4.80085">
        <ele>553</ele>
        <time>2000-01-01T03:53:51.000Z</time>
      </trkpt>
      <trkpt lat="45.84031" lon="4.80083">
        <ele>556.3</ele>
        <time>2000-01-01T03:54:01.000Z</time>
      </trkpt>
      <trkpt lat="45.84039" lon="4.80082">
        <ele>556.9</ele>
        <time>2000-01-01T03:54:11.000Z</time>
      </trkpt>
      <trkpt lat="45.84049" lon="4.8008">
        <ele>554</ele>
        <time>2000-01-01T03:54:21.000Z</time>
      </trkpt>
      <trkpt lat="45.8406" lon="4.80076">
        <ele>559.1</ele>
        <time>2000-01-01T03:54:31.000Z</time>
      </trkpt>
      <trkpt lat="45.84069" lon="4.80073">
        <ele>555</ele>
        <time>2000-01-01T03:54:41.000Z</time>
      </trkpt>
      <trkpt lat="45.84076" lon="4.80073">
        <ele>560.6</ele>
        <time>2000-01-01T03:54:51.000Z</time>
      </trkpt>
      <trkpt lat="45.84081" lon="4.80074">
        <ele>560.8</ele>
        <time>2000-01-01T03:55:01.000Z</time>
      </trkpt>
      <trkpt lat="45.84089" lon="4.80074">
        <ele>555</ele>
        <time>2000-01-01T03:55:11.000Z</time>
      </trkpt>
      <trkpt lat="45.841" lon="4.80076">
        <ele>561</ele>
        <time>2000-01-01T03:55:21.000Z</time>
      </trkpt>
      <trkpt lat="45.84113" lon="4.80073">
        <ele>555</ele>
        <time>2000-01-01T03:55:31.000Z</time>
      </trkpt>
      <trkpt lat="45.84129" lon="4.80076">
        <ele>561.5</ele>
        <time>2000-01-01T03:55:41.000Z</time>
      </trkpt>
      <trkpt lat="45.84143" lon="4.80073">
        <ele>557</ele>
        <time>2000-01-01T03:55:51.000Z</time>
      </trkpt>
      <trkpt lat="45.8415" lon="4.80073">
        <ele>562.3</ele>
        <time>2000-01-01T03:56:01.000Z</time>
      </trkpt>
      <trkpt lat="45.84162" lon="4.80075">
        <ele>558</ele>
        <time>2000-01-01T03:56:11.000Z</time>
      </trkpt>
      <trkpt lat="45.84175" lon="4.80077">
        <ele>561.7</ele>
        <time>2000-01-01T03:56:21.000Z</time>
      </trkpt>
      <trkpt lat="45.84191" lon="4.80079">
        <ele>558</ele>
        <time>2000-01-01T03:56:31.000Z</time>
      </trkpt>
      <trkpt lat="45.84204" lon="4.80083">
        <ele>560.1</ele>
        <time>2000-01-01T03:56:41.000Z</time>
      </trkpt>
      <trkpt lat="45.84218" lon="4.80086">
        <ele>558</ele>
        <time>2000-01-01T03:56:51.000Z</time>
      </trkpt>
      <trkpt lat="45.84234" lon="4.80092">
        <ele>558.4</ele>
        <time>2000-01-01T03:57:01.000Z</time>
      </trkpt>
      <trkpt lat="45.84238" lon="4.80093">
        <ele>558</ele>
        <time>2000-01-01T03:57:11.000Z</time>
      </trkpt>
      <trkpt lat="45.84251" lon="4.80098">
        <ele>557.4</ele>
        <time>2000-01-01T03:57:21.000Z</time>
      </trkpt>
      <trkpt lat="45.84263" lon="4.80103">
        <ele>558</ele>
        <time>2000-01-01T03:57:31.000Z</time>
      </trkpt>
      <trkpt lat="45.84277" lon="4.8011">
        <ele>555.2</ele>
        <time>2000-01-01T03:57:41.000Z</time>
      </trkpt>
      <trkpt lat="45.84292" lon="4.80113">
        <ele>558</ele>
        <time>2000-01-01T03:57:51.000Z</time>
      </trkpt>
      <trkpt lat="45.84307" lon="4.80117">
        <ele>555.4</ele>
        <time>2000-01-01T03:58:01.000Z</time>
      </trkpt>
      <trkpt lat="45.84317" lon="4.80122">
        <ele>558</ele>
        <time>2000-01-01T03:58:11.000Z</time>
      </trkpt>
      <trkpt lat="45.84328" lon="4.80127">
        <ele>555.1</ele>
        <time>2000-01-01T03:58:21.000Z</time>
      </trkpt>
      <trkpt lat="45.8434" lon="4.8013">
        <ele>558</ele>
        <time>2000-01-01T03:58:31.000Z</time>
      </trkpt>
      <trkpt lat="45.84356" lon="4.80134">
        <ele>554.5</ele>
        <time>2000-01-01T03:58:41.000Z</time>
      </trkpt>
      <trkpt lat="45.84369" lon="4.80138">
        <ele>555</ele>
        <time>2000-01-01T03:58:51.000Z</time>
      </trkpt>
      <trkpt lat="45.84381" lon="4.80141">
        <ele>553.8</ele>
        <time>2000-01-01T03:59:01.000Z</time>
      </trkpt>
      <trkpt lat="45.84395" lon="4.80146">
        <ele>554</ele>
        <time>2000-01-01T03:59:11.000Z</time>
      </trkpt>
      <trkpt lat="45.84404" lon="4.80149">
        <ele>553.6</ele>
        <time>2000-01-01T03:59:21.000Z</time>
      </trkpt>
      <trkpt lat="45.84412" lon="4.80151">
        <ele>553.6</ele>
        <time>2000-01-01T03:59:31.000Z</time>
      </trkpt>
      <trkpt lat="45.84416" lon="4.80152">
        <ele>554</ele>
        <time>2000-01-01T03:59:41.000Z</time>
      </trkpt>
      <trkpt lat="45.84427" lon="4.80161">
        <ele>552.9</ele>
        <time>2000-01-01T03:59:51.000Z</time>
      </trkpt>
      <trkpt lat="45.84439" lon="4.80167">
        <ele>553</ele>
        <time>2000-01-01T04:00:01.000Z</time>
      </trkpt>
      <trkpt lat="45.8445" lon="4.80174">
        <ele>552.3</ele>
        <time>2000-01-01T04:00:11.000Z</time>
      </trkpt>
      <trkpt lat="45.84463" lon="4.80189">
        <ele>552</ele>
        <time>2000-01-01T04:00:21.000Z</time>
      </trkpt>
      <trkpt lat="45.84473" lon="4.80205">
        <ele>549.9</ele>
        <time>2000-01-01T04:00:31.000Z</time>
      </trkpt>
      <trkpt lat="45.84477" lon="4.80212">
        <ele>551</ele>
        <time>2000-01-01T04:00:41.000Z</time>
      </trkpt>
      <trkpt lat="45.84488" lon="4.80227">
        <ele>548</ele>
        <time>2000-01-01T04:00:51.000Z</time>
      </trkpt>
      <trkpt lat="45.845" lon="4.8024">
        <ele>543</ele>
        <time>2000-01-01T04:01:01.000Z</time>
      </trkpt>
      <trkpt lat="45.84512" lon="4.80249">
        <ele>545.1</ele>
        <time>2000-01-01T04:01:11.000Z</time>
      </trkpt>
      <trkpt lat="45.84524" lon="4.80255">
        <ele>544</ele>
        <time>2000-01-01T04:01:21.000Z</time>
      </trkpt>
      <trkpt lat="45.84532" lon="4.80258">
        <ele>543.5</ele>
        <time>2000-01-01T04:01:31.000Z</time>
      </trkpt>
      <trkpt lat="45.84536" lon="4.8026">
        <ele>543</ele>
        <time>2000-01-01T04:01:41.000Z</time>
      </trkpt>
      <trkpt lat="45.84544" lon="4.80258">
        <ele>545</ele>
        <time>2000-01-01T04:01:51.000Z</time>
      </trkpt>
      <trkpt lat="45.8455" lon="4.80261">
        <ele>541.8</ele>
        <time>2000-01-01T04:02:01.000Z</time>
      </trkpt>
      <trkpt lat="45.84559" lon="4.80259">
        <ele>541.6</ele>
        <time>2000-01-01T04:02:11.000Z</time>
      </trkpt>
      <trkpt lat="45.84569" lon="4.8026">
        <ele>546</ele>
        <time>2000-01-01T04:02:21.000Z</time>
      </trkpt>
      <trkpt lat="45.84578" lon="4.80264">
        <ele>540.6</ele>
        <time>2000-01-01T04:02:31.000Z</time>
      </trkpt>
      <trkpt lat="45.84584" lon="4.80272">
        <ele>539.6</ele>
        <time>2000-01-01T04:02:41.000Z</time>
      </trkpt>
      <trkpt lat="45.84597" lon="4.80277">
        <ele>546</ele>
        <time>2000-01-01T04:02:51.000Z</time>
      </trkpt>
      <trkpt lat="45.8461" lon="4.8028">
        <ele>538.8</ele>
        <time>2000-01-01T04:03:01.000Z</time>
      </trkpt>
      <trkpt lat="45.84622" lon="4.80284">
        <ele>543</ele>
        <time>2000-01-01T04:03:11.000Z</time>
      </trkpt>
      <trkpt lat="45.84635" lon="4.80293">
        <ele>537.6</ele>
        <time>2000-01-01T04:03:21.000Z</time>
      </trkpt>
      <trkpt lat="45.84641" lon="4.80297">
        <ele>543</ele>
        <time>2000-01-01T04:03:31.000Z</time>
      </trkpt>
      <trkpt lat="45.84655" lon="4.80309">
        <ele>535.6</ele>
        <time>2000-01-01T04:03:41.000Z</time>
      </trkpt>
      <trkpt lat="45.84665" lon="4.80322">
        <ele>540</ele>
        <time>2000-01-01T04:03:51.000Z</time>
      </trkpt>
      <trkpt lat="45.84679" lon="4.80337">
        <ele>532.3</ele>
        <time>2000-01-01T04:04:01.000Z</time>
      </trkpt>
      <trkpt lat="45.84689" lon="4.80349">
        <ele>534</ele>
        <time>2000-01-01T04:04:11.000Z</time>
      </trkpt>
      <trkpt lat="45.84701" lon="4.80359">
        <ele>529.6</ele>
        <time>2000-01-01T04:04:21.000Z</time>
      </trkpt>
      <trkpt lat="45.84713" lon="4.80375">
        <ele>525</ele>
        <time>2000-01-01T04:04:31.000Z</time>
      </trkpt>
      <trkpt lat="45.84722" lon="4.80392">
        <ele>527.8</ele>
        <time>2000-01-01T04:04:41.000Z</time>
      </trkpt>
      <trkpt lat="45.84729" lon="4.80402">
        <ele>524.5</ele>
        <time>2000-01-01T04:04:51.000Z</time>
      </trkpt>
      <trkpt lat="45.84743" lon="4.80417">
        <ele>524.5</ele>
        <time>2000-01-01T04:05:01.000Z</time>
      </trkpt>
      <trkpt lat="45.84754" lon="4.80431">
        <ele>524</ele>
        <time>2000-01-01T04:05:11.000Z</time>
      </trkpt>
      <trkpt lat="45.84763" lon="4.80446">
        <ele>521</ele>
        <time>2000-01-01T04:05:21.000Z</time>
      </trkpt>
      <trkpt lat="45.84776" lon="4.80457">
        <ele>520</ele>
        <time>2000-01-01T04:05:31.000Z</time>
      </trkpt>
      <trkpt lat="45.84783" lon="4.80465">
        <ele>517.8</ele>
        <time>2000-01-01T04:05:41.000Z</time>
      </trkpt>
      <trkpt lat="45.84789" lon="4.80472">
        <ele>517</ele>
        <time>2000-01-01T04:05:51.000Z</time>
      </trkpt>
      <trkpt lat="45.84796" lon="4.80481">
        <ele>513</ele>
        <time>2000-01-01T04:06:01.000Z</time>
      </trkpt>
      <trkpt lat="45.8481" lon="4.80495">
        <ele>512.9</ele>
        <time>2000-01-01T04:06:11.000Z</time>
      </trkpt>
      <trkpt lat="45.84822" lon="4.80506">
        <ele>511</ele>
        <time>2000-01-01T04:06:21.000Z</time>
      </trkpt>
      <trkpt lat="45.84827" lon="4.8051">
        <ele>509.7</ele>
        <time>2000-01-01T04:06:31.000Z</time>
      </trkpt>
      <trkpt lat="45.84835" lon="4.80519">
        <ele>508.9</ele>
        <time>2000-01-01T04:06:41.000Z</time>
      </trkpt>
      <trkpt lat="45.84844" lon="4.80526">
        <ele>509</ele>
        <time>2000-01-01T04:06:51.000Z</time>
      </trkpt>
      <trkpt lat="45.84853" lon="4.80534">
        <ele>505.3</ele>
        <time>2000-01-01T04:07:01.000Z</time>
      </trkpt>
      <trkpt lat="45.84862" lon="4.80546">
        <ele>508.5</ele>
        <time>2000-01-01T04:07:11.000Z</time>
      </trkpt>
      <trkpt lat="45.84866" lon="4.80555">
        <ele>504.5</ele>
        <time>2000-01-01T04:07:21.000Z</time>
      </trkpt>
      <trkpt lat="45.84875" lon="4.80572">
        <ele>508</ele>
        <time>2000-01-01T04:07:31.000Z</time>
      </trkpt>
      <trkpt lat="45.84883" lon="4.80582">
        <ele>501.5</ele>
        <time>2000-01-01T04:07:41.000Z</time>
      </trkpt>
      <trkpt lat="45.84889" lon="4.80589">
        <ele>500.8</ele>
        <time>2000-01-01T04:07:51.000Z</time>
      </trkpt>
      <trkpt lat="45.84896" lon="4.80598">
        <ele>502.5</ele>
        <time>2000-01-01T04:08:01.000Z</time>
      </trkpt>
      <trkpt lat="45.8491" lon="4.80613">
        <ele>497.7</ele>
        <time>2000-01-01T04:08:11.000Z</time>
      </trkpt>
      <trkpt lat="45.84921" lon="4.80625">
        <ele>497</ele>
        <time>2000-01-01T04:08:21.000Z</time>
      </trkpt>
      <trkpt lat="45.84929" lon="4.80635">
        <ele>494</ele>
        <time>2000-01-01T04:08:31.000Z</time>
      </trkpt>
      <trkpt lat="45.84936" lon="4.80642">
        <ele>493</ele>
        <time>2000-01-01T04:08:41.000Z</time>
      </trkpt>
      <trkpt lat="45.84948" lon="4.80661">
        <ele>497</ele>
        <time>2000-01-01T04:08:51.000Z</time>
      </trkpt>
      <trkpt lat="45.84958" lon="4.80681">
        <ele>489.1</ele>
        <time>2000-01-01T04:09:01.000Z</time>
      </trkpt>
      <trkpt lat="45.84961" lon="4.80691">
        <ele>497</ele>
        <time>2000-01-01T04:09:11.000Z</time>
      </trkpt>
      <trkpt lat="45.84966" lon="4.807">
        <ele>488.5</ele>
        <time>2000-01-01T04:09:21.000Z</time>
      </trkpt>
      <trkpt lat="45.84968" lon="4.80703">
        <ele>488.5</ele>
        <time>2000-01-01T04:09:31.000Z</time>
      </trkpt>
      <trkpt lat="45.84971" lon="4.80705">
        <ele>488.3</ele>
        <time>2000-01-01T04:09:41.000Z</time>
      </trkpt>
      <trkpt lat="45.84973" lon="4.80716">
        <ele>498</ele>
        <time>2000-01-01T04:09:51.000Z</time>
      </trkpt>
      <trkpt lat="45.84975" lon="4.80712">
        <ele>487.8</ele>
        <time>2000-01-01T04:10:01.000Z</time>
      </trkpt>
      <trkpt lat="45.84975" lon="4.80718">
        <ele>488.5</ele>
        <time>2000-01-01T04:10:11.000Z</time>
      </trkpt>
      <trkpt lat="45.84978" lon="4.80727">
        <ele>488.4</ele>
        <time>2000-01-01T04:10:21.000Z</time>
      </trkpt>
      <trkpt lat="45.84981" lon="4.80732">
        <ele>487.9</ele>
        <time>2000-01-01T04:10:31.000Z</time>
      </trkpt>
      <trkpt lat="45.84988" lon="4.80747">
        <ele>495</ele>
        <time>2000-01-01T04:10:41.000Z</time>
      </trkpt>
      <trkpt lat="45.84992" lon="4.80757">
        <ele>487.9</ele>
        <time>2000-01-01T04:10:51.000Z</time>
      </trkpt>
      <trkpt lat="45.84996" lon="4.80762">
        <ele>487.9</ele>
        <time>2000-01-01T04:11:01.000Z</time>
      </trkpt>
      <trkpt lat="45.85003" lon="4.80774">
        <ele>495.5</ele>
        <time>2000-01-01T04:11:11.000Z</time>
      </trkpt>
      <trkpt lat="45.85011" lon="4.80788">
        <ele>487.1</ele>
        <time>2000-01-01T04:11:21.000Z</time>
      </trkpt>
      <trkpt lat="45.85022" lon="4.80804">
        <ele>494.7</ele>
        <time>2000-01-01T04:11:31.000Z</time>
      </trkpt>
      <trkpt lat="45.85036" lon="4.8082">
        <ele>484.4</ele>
        <time>2000-01-01T04:11:41.000Z</time>
      </trkpt>
      <trkpt lat="45.85047" lon="4.80833">
        <ele>494</ele>
        <time>2000-01-01T04:11:51.000Z</time>
      </trkpt>
      <trkpt lat="45.85053" lon="4.80843">
        <ele>481.9</ele>
        <time>2000-01-01T04:12:01.000Z</time>
      </trkpt>
      <trkpt lat="45.8506" lon="4.80851">
        <ele>480.6</ele>
        <time>2000-01-01T04:12:11.000Z</time>
      </trkpt>
      <trkpt lat="45.85065" lon="4.80861">
        <ele>494</ele>
        <time>2000-01-01T04:12:21.000Z</time>
      </trkpt>
      <trkpt lat="45.85077" lon="4.80875">
        <ele>478.1</ele>
        <time>2000-01-01T04:12:31.000Z</time>
      </trkpt>
      <trkpt lat="45.85088" lon="4.80888">
        <ele>494</ele>
        <time>2000-01-01T04:12:41.000Z</time>
      </trkpt>
      <trkpt lat="45.85101" lon="4.80903">
        <ele>472.6</ele>
        <time>2000-01-01T04:12:51.000Z</time>
      </trkpt>
      <trkpt lat="45.85111" lon="4.80914">
        <ele>486</ele>
        <time>2000-01-01T04:13:01.000Z</time>
      </trkpt>
      <trkpt lat="45.85123" lon="4.80928">
        <ele>469</ele>
        <time>2000-01-01T04:13:11.000Z</time>
      </trkpt>
      <trkpt lat="45.8513" lon="4.80933">
        <ele>483.5</ele>
        <time>2000-01-01T04:13:21.000Z</time>
      </trkpt>
      <trkpt lat="45.85142" lon="4.80947">
        <ele>467.4</ele>
        <time>2000-01-01T04:13:31.000Z</time>
      </trkpt>
      <trkpt lat="45.85154" lon="4.80958">
        <ele>481</ele>
        <time>2000-01-01T04:13:41.000Z</time>
      </trkpt>
      <trkpt lat="45.8516" lon="4.80967">
        <ele>466</ele>
        <time>2000-01-01T04:13:51.000Z</time>
      </trkpt>
      <trkpt lat="45.85167" lon="4.80972">
        <ele>464.8</ele>
        <time>2000-01-01T04:14:01.000Z</time>
      </trkpt>
      <trkpt lat="45.85182" lon="4.80987">
        <ele>457</ele>
        <time>2000-01-01T04:14:11.000Z</time>
      </trkpt>
      <trkpt lat="45.85197" lon="4.80996">
        <ele>461.5</ele>
        <time>2000-01-01T04:14:21.000Z</time>
      </trkpt>
      <trkpt lat="45.85205" lon="4.81002">
        <ele>456</ele>
        <time>2000-01-01T04:14:31.000Z</time>
      </trkpt>
      <trkpt lat="45.85211" lon="4.81008">
        <ele>459.5</ele>
        <time>2000-01-01T04:14:41.000Z</time>
      </trkpt>
      <trkpt lat="45.85226" lon="4.81026">
        <ele>456</ele>
        <time>2000-01-01T04:14:51.000Z</time>
      </trkpt>
      <trkpt lat="45.85234" lon="4.81035">
        <ele>457.7</ele>
        <time>2000-01-01T04:15:01.000Z</time>
      </trkpt>
      <trkpt lat="45.85246" lon="4.81049">
        <ele>448</ele>
        <time>2000-01-01T04:15:11.000Z</time>
      </trkpt>
      <trkpt lat="45.85252" lon="4.81057">
        <ele>455.3</ele>
        <time>2000-01-01T04:15:21.000Z</time>
      </trkpt>
      <trkpt lat="45.85257" lon="4.81065">
        <ele>455</ele>
        <time>2000-01-01T04:15:31.000Z</time>
      </trkpt>
      <trkpt lat="45.85268" lon="4.81079">
        <ele>445</ele>
        <time>2000-01-01T04:15:41.000Z</time>
      </trkpt>
      <trkpt lat="45.85278" lon="4.81096">
        <ele>454</ele>
        <time>2000-01-01T04:15:51.000Z</time>
      </trkpt>
      <trkpt lat="45.85285" lon="4.81106">
        <ele>445</ele>
        <time>2000-01-01T04:16:01.000Z</time>
      </trkpt>
      <trkpt lat="45.85289" lon="4.81111">
        <ele>453.3</ele>
        <time>2000-01-01T04:16:11.000Z</time>
      </trkpt>
      <trkpt lat="45.85298" lon="4.81114">
        <ele>449.8</ele>
        <time>2000-01-01T04:16:21.000Z</time>
      </trkpt>
      <trkpt lat="45.85309" lon="4.81125">
        <ele>450</ele>
        <time>2000-01-01T04:16:31.000Z</time>
      </trkpt>
      <trkpt lat="45.85316" lon="4.81134">
        <ele>448.4</ele>
        <time>2000-01-01T04:16:41.000Z</time>
      </trkpt>
      <trkpt lat="45.8533" lon="4.8115">
        <ele>453</ele>
        <time>2000-01-01T04:16:51.000Z</time>
      </trkpt>
      <trkpt lat="45.85341" lon="4.81156">
        <ele>445</ele>
        <time>2000-01-01T04:17:01.000Z</time>
      </trkpt>
      <trkpt lat="45.85348" lon="4.81165">
        <ele>453</ele>
        <time>2000-01-01T04:17:11.000Z</time>
      </trkpt>
      <trkpt lat="45.85354" lon="4.8117">
        <ele>445</ele>
        <time>2000-01-01T04:17:21.000Z</time>
      </trkpt>
      <trkpt lat="45.85371" lon="4.81177">
        <ele>452</ele>
        <time>2000-01-01T04:17:31.000Z</time>
      </trkpt>
      <trkpt lat="45.85382" lon="4.81186">
        <ele>440.2</ele>
        <time>2000-01-01T04:17:41.000Z</time>
      </trkpt>
      <trkpt lat="45.85391" lon="4.8119">
        <ele>452</ele>
        <time>2000-01-01T04:17:51.000Z</time>
      </trkpt>
      <trkpt lat="45.85403" lon="4.812">
        <ele>437.7</ele>
        <time>2000-01-01T04:18:01.000Z</time>
      </trkpt>
      <trkpt lat="45.85413" lon="4.81205">
        <ele>445</ele>
        <time>2000-01-01T04:18:11.000Z</time>
      </trkpt>
      <trkpt lat="45.85423" lon="4.81211">
        <ele>434.9</ele>
        <time>2000-01-01T04:18:21.000Z</time>
      </trkpt>
      <trkpt lat="45.85434" lon="4.81219">
        <ele>435</ele>
        <time>2000-01-01T04:18:31.000Z</time>
      </trkpt>
      <trkpt lat="45.85441" lon="4.81222">
        <ele>433.1</ele>
        <time>2000-01-01T04:18:41.000Z</time>
      </trkpt>
      <trkpt lat="45.85456" lon="4.81232">
        <ele>434</ele>
        <time>2000-01-01T04:18:51.000Z</time>
      </trkpt>
      <trkpt lat="45.85474" lon="4.81242">
        <ele>434</ele>
        <time>2000-01-01T04:19:01.000Z</time>
      </trkpt>
      <trkpt lat="45.85487" lon="4.81253">
        <ele>430.3</ele>
        <time>2000-01-01T04:19:11.000Z</time>
      </trkpt>
      <trkpt lat="45.85499" lon="4.81265">
        <ele>435</ele>
        <time>2000-01-01T04:19:21.000Z</time>
      </trkpt>
      <trkpt lat="45.85501" lon="4.81264">
        <ele>430.2</ele>
        <time>2000-01-01T04:19:31.000Z</time>
      </trkpt>
      <trkpt lat="45.85499" lon="4.81255">
        <ele>427.3</ele>
        <time>2000-01-01T04:19:41.000Z</time>
      </trkpt>
      <trkpt lat="45.85495" lon="4.81245">
        <ele>424.2</ele>
        <time>2000-01-01T04:19:51.000Z</time>
      </trkpt>
      <trkpt lat="45.85493" lon="4.81242">
        <ele>435</ele>
        <time>2000-01-01T04:20:01.000Z</time>
      </trkpt>
      <trkpt lat="45.85483" lon="4.81226">
        <ele>419.5</ele>
        <time>2000-01-01T04:20:11.000Z</time>
      </trkpt>
      <trkpt lat="45.85472" lon="4.81211">
        <ele>436</ele>
        <time>2000-01-01T04:20:21.000Z</time>
      </trkpt>
      <trkpt lat="45.85461" lon="4.81198">
        <ele>415.1</ele>
        <time>2000-01-01T04:20:31.000Z</time>
      </trkpt>
      <trkpt lat="45.85453" lon="4.81179">
        <ele>434</ele>
        <time>2000-01-01T04:20:41.000Z</time>
      </trkpt>
      <trkpt lat="45.85447" lon="4.81167">
        <ele>406.8</ele>
        <time>2000-01-01T04:20:51.000Z</time>
      </trkpt>
      <trkpt lat="45.85442" lon="4.81156">
        <ele>432</ele>
        <time>2000-01-01T04:21:01.000Z</time>
      </trkpt>
      <trkpt lat="45.85434" lon="4.81139">
        <ele>398.3</ele>
        <time>2000-01-01T04:21:11.000Z</time>
      </trkpt>
      <trkpt lat="45.85426" lon="4.8112">
        <ele>432</ele>
        <time>2000-01-01T04:21:21.000Z</time>
      </trkpt>
      <trkpt lat="45.85413" lon="4.81106">
        <ele>395.3</ele>
        <time>2000-01-01T04:21:31.000Z</time>
      </trkpt>
      <trkpt lat="45.85403" lon="4.81088">
        <ele>414</ele>
        <time>2000-01-01T04:21:41.000Z</time>
      </trkpt>
      <trkpt lat="45.85395" lon="4.81073">
        <ele>391.9</ele>
        <time>2000-01-01T04:21:51.000Z</time>
      </trkpt>
      <trkpt lat="45.85392" lon="4.81067">
        <ele>391.1</ele>
        <time>2000-01-01T04:22:01.000Z</time>
      </trkpt>
      <trkpt lat="45.85388" lon="4.8105">
        <ele>411</ele>
        <time>2000-01-01T04:22:11.000Z</time>
      </trkpt>
      <trkpt lat="45.85381" lon="4.8103">
        <ele>386.3</ele>
        <time>2000-01-01T04:22:21.000Z</time>
      </trkpt>
      <trkpt lat="45.8538" lon="4.8102">
        <ele>408</ele>
        <time>2000-01-01T04:22:31.000Z</time>
      </trkpt>
      <trkpt lat="45.85378" lon="4.8101">
        <ele>384.1</ele>
        <time>2000-01-01T04:22:41.000Z</time>
      </trkpt>
      <trkpt lat="45.85377" lon="4.80998">
        <ele>382.5</ele>
        <time>2000-01-01T04:22:51.000Z</time>
      </trkpt>
      <trkpt lat="45.85377" lon="4.80988">
        <ele>399</ele>
        <time>2000-01-01T04:23:01.000Z</time>
      </trkpt>
      <trkpt lat="45.85375" lon="4.80967">
        <ele>377</ele>
        <time>2000-01-01T04:23:11.000Z</time>
      </trkpt>
      <trkpt lat="45.8537" lon="4.80947">
        <ele>389</ele>
        <time>2000-01-01T04:23:21.000Z</time>
      </trkpt>
      <trkpt lat="45.85366" lon="4.80933">
        <ele>373.9</ele>
        <time>2000-01-01T04:23:31.000Z</time>
      </trkpt>
      <trkpt lat="45.85364" lon="4.80917">
        <ele>381</ele>
        <time>2000-01-01T04:23:41.000Z</time>
      </trkpt>
      <trkpt lat="45.85362" lon="4.80897">
        <ele>368.4</ele>
        <time>2000-01-01T04:23:51.000Z</time>
      </trkpt>
      <trkpt lat="45.85359" lon="4.80883">
        <ele>374</ele>
        <time>2000-01-01T04:24:01.000Z</time>
      </trkpt>
      <trkpt lat="45.85358" lon="4.80866">
        <ele>362.6</ele>
        <time>2000-01-01T04:24:11.000Z</time>
      </trkpt>
      <trkpt lat="45.85356" lon="4.80852">
        <ele>363</ele>
        <time>2000-01-01T04:24:21.000Z</time>
      </trkpt>
      <trkpt lat="45.85356" lon="4.80836">
        <ele>359</ele>
        <time>2000-01-01T04:24:31.000Z</time>
      </trkpt>
      <trkpt lat="45.85359" lon="4.80823">
        <ele>356</ele>
        <time>2000-01-01T04:24:41.000Z</time>
      </trkpt>
      <trkpt lat="45.8536" lon="4.80815">
        <ele>355.3</ele>
        <time>2000-01-01T04:24:51.000Z</time>
      </trkpt>
      <trkpt lat="45.85365" lon="4.80808">
        <ele>353.4</ele>
        <time>2000-01-01T04:25:01.000Z</time>
      </trkpt>
      <trkpt lat="45.85369" lon="4.80803">
        <ele>352.1</ele>
        <time>2000-01-01T04:25:11.000Z</time>
      </trkpt>
      <trkpt lat="45.85379" lon="4.80801">
        <ele>352</ele>
        <time>2000-01-01T04:25:21.000Z</time>
      </trkpt>
      <trkpt lat="45.85389" lon="4.80785">
        <ele>348</ele>
        <time>2000-01-01T04:25:31.000Z</time>
      </trkpt>
      <trkpt lat="45.85396" lon="4.80774">
        <ele>348</ele>
        <time>2000-01-01T04:25:41.000Z</time>
      </trkpt>
      <trkpt lat="45.85401" lon="4.80765">
        <ele>345.1</ele>
        <time>2000-01-01T04:25:51.000Z</time>
      </trkpt>
      <trkpt lat="45.85406" lon="4.8076">
        <ele>344</ele>
        <time>2000-01-01T04:26:01.000Z</time>
      </trkpt>
      <trkpt lat="45.85414" lon="4.80757">
        <ele>348</ele>
        <time>2000-01-01T04:26:11.000Z</time>
      </trkpt>
      <trkpt lat="45.85423" lon="4.80754">
        <ele>341.2</ele>
        <time>2000-01-01T04:26:21.000Z</time>
      </trkpt>
      <trkpt lat="45.85426" lon="4.80757">
        <ele>340.8</ele>
        <time>2000-01-01T04:26:31.000Z</time>
      </trkpt>
      <trkpt lat="45.85435" lon="4.80757">
        <ele>342</ele>
        <time>2000-01-01T04:26:41.000Z</time>
      </trkpt>
      <trkpt lat="45.85438" lon="4.80758">
        <ele>339</ele>
        <time>2000-01-01T04:26:51.000Z</time>
      </trkpt>
      <trkpt lat="45.85447" lon="4.80757">
        <ele>337.6</ele>
        <time>2000-01-01T04:27:01.000Z</time>
      </trkpt>
      <trkpt lat="45.85452" lon="4.80747">
        <ele>340</ele>
        <time>2000-01-01T04:27:11.000Z</time>
      </trkpt>
      <trkpt lat="45.85463" lon="4.80737">
        <ele>331.8</ele>
        <time>2000-01-01T04:27:21.000Z</time>
      </trkpt>
      <trkpt lat="45.85468" lon="4.8073">
        <ele>340</ele>
        <time>2000-01-01T04:27:31.000Z</time>
      </trkpt>
      <trkpt lat="45.85472" lon="4.80727">
        <ele>325.6</ele>
        <time>2000-01-01T04:27:41.000Z</time>
      </trkpt>
      <trkpt lat="45.85475" lon="4.80727">
        <ele>324.7</ele>
        <time>2000-01-01T04:27:51.000Z</time>
      </trkpt>
      <trkpt lat="45.85482" lon="4.80733">
        <ele>324</ele>
        <time>2000-01-01T04:28:01.000Z</time>
      </trkpt>
      <trkpt lat="45.85489" lon="4.80737">
        <ele>326</ele>
        <time>2000-01-01T04:28:11.000Z</time>
      </trkpt>
      <trkpt lat="45.85491" lon="4.80736">
        <ele>321.4</ele>
        <time>2000-01-01T04:28:21.000Z</time>
      </trkpt>
      <trkpt lat="45.85484" lon="4.8073">
        <ele>322.5</ele>
        <time>2000-01-01T04:28:31.000Z</time>
      </trkpt>
      <trkpt lat="45.85475" lon="4.80718">
        <ele>326</ele>
        <time>2000-01-01T04:28:41.000Z</time>
      </trkpt>
      <trkpt lat="45.85472" lon="4.80709">
        <ele>320.8</ele>
        <time>2000-01-01T04:28:51.000Z</time>
      </trkpt>
      <trkpt lat="45.85472" lon="4.80697">
        <ele>317.7</ele>
        <time>2000-01-01T04:29:01.000Z</time>
      </trkpt>
      <trkpt lat="45.85474" lon="4.80691">
        <ele>326</ele>
        <time>2000-01-01T04:29:11.000Z</time>
      </trkpt>
      <trkpt lat="45.85477" lon="4.80689">
        <ele>315.6</ele>
        <time>2000-01-01T04:29:21.000Z</time>
      </trkpt>
      <trkpt lat="45.85489" lon="4.8068">
        <ele>312.4</ele>
        <time>2000-01-01T04:29:31.000Z</time>
      </trkpt>
      <trkpt lat="45.85494" lon="4.80673">
        <ele>322</ele>
        <time>2000-01-01T04:29:41.000Z</time>
      </trkpt>
      <trkpt lat="45.85489" lon="4.80653">
        <ele>309.7</ele>
        <time>2000-01-01T04:29:51.000Z</time>
      </trkpt>
      <trkpt lat="45.85496" lon="4.80645">
        <ele>309</ele>
        <time>2000-01-01T04:30:01.000Z</time>
      </trkpt>
      <trkpt lat="45.85503" lon="4.80644">
        <ele>306.1</ele>
        <time>2000-01-01T04:30:11.000Z</time>
      </trkpt>
      <trkpt lat="45.85523" lon="4.80643">
        <ele>308</ele>
        <time>2000-01-01T04:30:21.000Z</time>
      </trkpt>
      <trkpt lat="45.85537" lon="4.80645">
        <ele>301.6</ele>
        <time>2000-01-01T04:30:31.000Z</time>
      </trkpt>
      <trkpt lat="45.85546" lon="4.80646">
        <ele>302</ele>
        <time>2000-01-01T04:30:41.000Z</time>
      </trkpt>
      <trkpt lat="45.85555" lon="4.80649">
        <ele>300.1</ele>
        <time>2000-01-01T04:30:51.000Z</time>
      </trkpt>
      <trkpt lat="45.85559" lon="4.80646">
        <ele>299.7</ele>
        <time>2000-01-01T04:31:01.000Z</time>
      </trkpt>
      <trkpt lat="45.85566" lon="4.80626">
        <ele>300</ele>
        <time>2000-01-01T04:31:11.000Z</time>
      </trkpt>
      <trkpt lat="45.85568" lon="4.80617">
        <ele>299.9</ele>
        <time>2000-01-01T04:31:21.000Z</time>
      </trkpt>
      <trkpt lat="45.85569" lon="4.80604">
        <ele>300.4</ele>
        <time>2000-01-01T04:31:31.000Z</time>
      </trkpt>
      <trkpt lat="45.85577" lon="4.80585">
        <ele>300</ele>
        <time>2000-01-01T04:31:41.000Z</time>
      </trkpt>
      <trkpt lat="45.85584" lon="4.8057">
        <ele>302.1</ele>
        <time>2000-01-01T04:31:51.000Z</time>
      </trkpt>
      <trkpt lat="45.8559" lon="4.80564">
        <ele>300</ele>
        <time>2000-01-01T04:32:01.000Z</time>
      </trkpt>
      <trkpt lat="45.85596" lon="4.80559">
        <ele>304.6</ele>
        <time>2000-01-01T04:32:11.000Z</time>
      </trkpt>
      <trkpt lat="45.85603" lon="4.80554">
        <ele>306.4</ele>
        <time>2000-01-01T04:32:21.000Z</time>
      </trkpt>
      <trkpt lat="45.85609" lon="4.80555">
        <ele>300</ele>
        <time>2000-01-01T04:32:31.000Z</time>
      </trkpt>
      <trkpt lat="45.85612" lon="4.80556">
        <ele>308.2</ele>
        <time>2000-01-01T04:32:41.000Z</time>
      </trkpt>
      <trkpt lat="45.85617" lon="4.80558">
        <ele>309.4</ele>
        <time>2000-01-01T04:32:51.000Z</time>
      </trkpt>
      <trkpt lat="45.85622" lon="4.80558">
        <ele>310.8</ele>
        <time>2000-01-01T04:33:01.000Z</time>
      </trkpt>
      <trkpt lat="45.85627" lon="4.80557">
        <ele>304</ele>
        <time>2000-01-01T04:33:11.000Z</time>
      </trkpt>
      <trkpt lat="45.85633" lon="4.80548">
        <ele>315.5</ele>
        <time>2000-01-01T04:33:21.000Z</time>
      </trkpt>
      <trkpt lat="45.85635" lon="4.80545">
        <ele>316.7</ele>
        <time>2000-01-01T04:33:31.000Z</time>
      </trkpt>
      <trkpt lat="45.85636" lon="4.80543">
        <ele>317.3</ele>
        <time>2000-01-01T04:33:41.000Z</time>
      </trkpt>
      <trkpt lat="45.85636" lon="4.8053">
        <ele>314</ele>
        <time>2000-01-01T04:33:51.000Z</time>
      </trkpt>
      <trkpt lat="45.85639" lon="4.80525">
        <ele>321.6</ele>
        <time>2000-01-01T04:34:01.000Z</time>
      </trkpt>
      <trkpt lat="45.8564" lon="4.8052">
        <ele>323</ele>
        <time>2000-01-01T04:34:11.000Z</time>
      </trkpt>
      <trkpt lat="45.85635" lon="4.80506">
        <ele>319</ele>
        <time>2000-01-01T04:34:21.000Z</time>
      </trkpt>
      <trkpt lat="45.8563" lon="4.80488">
        <ele>325.5</ele>
        <time>2000-01-01T04:34:31.000Z</time>
      </trkpt>
      <trkpt lat="45.8563" lon="4.80485">
        <ele>326.1</ele>
        <time>2000-01-01T04:34:41.000Z</time>
      </trkpt>
      <trkpt lat="45.85635" lon="4.80477">
        <ele>325</ele>
        <time>2000-01-01T04:34:51.000Z</time>
      </trkpt>
      <trkpt lat="45.85635" lon="4.80473">
        <ele>330.9</ele>
        <time>2000-01-01T04:35:01.000Z</time>
      </trkpt>
      <trkpt lat="45.85633" lon="4.80464">
        <ele>331.2</ele>
        <time>2000-01-01T04:35:11.000Z</time>
      </trkpt>
      <trkpt lat="45.85637" lon="4.80458">
        <ele>334.1</ele>
        <time>2000-01-01T04:35:21.000Z</time>
      </trkpt>
      <trkpt lat="45.85638" lon="4.8045">
        <ele>329</ele>
        <time>2000-01-01T04:35:31.000Z</time>
      </trkpt>
      <trkpt lat="45.85642" lon="4.80444">
        <ele>338.2</ele>
        <time>2000-01-01T04:35:41.000Z</time>
      </trkpt>
      <trkpt lat="45.85645" lon="4.80431">
        <ele>341</ele>
        <time>2000-01-01T04:35:51.000Z</time>
      </trkpt>
      <trkpt lat="45.85646" lon="4.80424">
        <ele>334</ele>
        <time>2000-01-01T04:36:01.000Z</time>
      </trkpt>
      <trkpt lat="45.85648" lon="4.8041">
        <ele>344.7</ele>
        <time>2000-01-01T04:36:11.000Z</time>
      </trkpt>
      <trkpt lat="45.85648" lon="4.80404">
        <ele>345.3</ele>
        <time>2000-01-01T04:36:21.000Z</time>
      </trkpt>
      <trkpt lat="45.85649" lon="4.80397">
        <ele>338</ele>
        <time>2000-01-01T04:36:31.000Z</time>
      </trkpt>
      <trkpt lat="45.85647" lon="4.80388">
        <ele>346.7</ele>
        <time>2000-01-01T04:36:41.000Z</time>
      </trkpt>
      <trkpt lat="45.85646" lon="4.80384">
        <ele>346.6</ele>
        <time>2000-01-01T04:36:51.000Z</time>
      </trkpt>
      <trkpt lat="45.85646" lon="4.80368">
        <ele>341</ele>
        <time>2000-01-01T04:37:01.000Z</time>
      </trkpt>
      <trkpt lat="45.85647" lon="4.80357">
        <ele>348.6</ele>
        <time>2000-01-01T04:37:11.000Z</time>
      </trkpt>
      <trkpt lat="45.85645" lon="4.80348">
        <ele>348.6</ele>
        <time>2000-01-01T04:37:21.000Z</time>
      </trkpt>
      <trkpt lat="45.85647" lon="4.80335">
        <ele>347</ele>
        <time>2000-01-01T04:37:31.000Z</time>
      </trkpt>
      <trkpt lat="45.8565" lon="4.80332">
        <ele>352.3</ele>
        <time>2000-01-01T04:37:41.000Z</time>
      </trkpt>
      <trkpt lat="45.85653" lon="4.80328">
        <ele>353.9</ele>
        <time>2000-01-01T04:37:51.000Z</time>
      </trkpt>
      <trkpt lat="45.85658" lon="4.80326">
        <ele>356.3</ele>
        <time>2000-01-01T04:38:01.000Z</time>
      </trkpt>
      <trkpt lat="45.85659" lon="4.80324">
        <ele>356.8</ele>
        <time>2000-01-01T04:38:11.000Z</time>
      </trkpt>
      <trkpt lat="45.85664" lon="4.80319">
        <ele>350</ele>
        <time>2000-01-01T04:38:21.000Z</time>
      </trkpt>
      <trkpt lat="45.85667" lon="4.80315">
        <ele>360.8</ele>
        <time>2000-01-01T04:38:31.000Z</time>
      </trkpt>
      <trkpt lat="45.85672" lon="4.80308">
        <ele>363.3</ele>
        <time>2000-01-01T04:38:41.000Z</time>
      </trkpt>
      <trkpt lat="45.85675" lon="4.80306">
        <ele>364.9</ele>
        <time>2000-01-01T04:38:51.000Z</time>
      </trkpt>
      <trkpt lat="45.85679" lon="4.80306">
        <ele>366.7</ele>
        <time>2000-01-01T04:39:01.000Z</time>
      </trkpt>
      <trkpt lat="45.85684" lon="4.80303">
        <ele>365</ele>
        <time>2000-01-01T04:39:11.000Z</time>
      </trkpt>
      <trkpt lat="45.85689" lon="4.80291">
        <ele>371.9</ele>
        <time>2000-01-01T04:39:21.000Z</time>
      </trkpt>
      <trkpt lat="45.8569" lon="4.80282">
        <ele>372.6</ele>
        <time>2000-01-01T04:39:31.000Z</time>
      </trkpt>
      <trkpt lat="45.85691" lon="4.80274">
        <ele>374</ele>
        <time>2000-01-01T04:39:41.000Z</time>
      </trkpt>
      <trkpt lat="45.85692" lon="4.80266">
        <ele>374.2</ele>
        <time>2000-01-01T04:39:51.000Z</time>
      </trkpt>
      <trkpt lat="45.85699" lon="4.80258">
        <ele>377.2</ele>
        <time>2000-01-01T04:40:01.000Z</time>
      </trkpt>
      <trkpt lat="45.85702" lon="4.80255">
        <ele>378.4</ele>
        <time>2000-01-01T04:40:11.000Z</time>
      </trkpt>
      <trkpt lat="45.85704" lon="4.80253">
        <ele>379</ele>
        <time>2000-01-01T04:40:21.000Z</time>
      </trkpt>
      <trkpt lat="45.85707" lon="4.80252">
        <ele>380.4</ele>
        <time>2000-01-01T04:40:31.000Z</time>
      </trkpt>
      <trkpt lat="45.8571" lon="4.80244">
        <ele>382</ele>
        <time>2000-01-01T04:40:41.000Z</time>
      </trkpt>
      <trkpt lat="45.85711" lon="4.80234">
        <ele>383</ele>
        <time>2000-01-01T04:40:51.000Z</time>
      </trkpt>
      <trkpt lat="45.85712" lon="4.80226">
        <ele>381</ele>
        <time>2000-01-01T04:41:01.000Z</time>
      </trkpt>
      <trkpt lat="45.85712" lon="4.80213">
        <ele>384.6</ele>
        <time>2000-01-01T04:41:11.000Z</time>
      </trkpt>
      <trkpt lat="45.85713" lon="4.80206">
        <ele>385.3</ele>
        <time>2000-01-01T04:41:21.000Z</time>
      </trkpt>
      <trkpt lat="45.8572" lon="4.80211">
        <ele>389</ele>
        <time>2000-01-01T04:41:31.000Z</time>
      </trkpt>
      <trkpt lat="45.85723" lon="4.80213">
        <ele>387.7</ele>
        <time>2000-01-01T04:41:41.000Z</time>
      </trkpt>
      <trkpt lat="45.85731" lon="4.80219">
        <ele>387.9</ele>
        <time>2000-01-01T04:41:51.000Z</time>
      </trkpt>
      <trkpt lat="45.85738" lon="4.80225">
        <ele>389</ele>
        <time>2000-01-01T04:42:01.000Z</time>
      </trkpt>
      <trkpt lat="45.85746" lon="4.80229">
        <ele>388.3</ele>
        <time>2000-01-01T04:42:11.000Z</time>
      </trkpt>
      <trkpt lat="45.85754" lon="4.80238">
        <ele>389.5</ele>
        <time>2000-01-01T04:42:21.000Z</time>
      </trkpt>
      <trkpt lat="45.85759" lon="4.80242">
        <ele>388</ele>
        <time>2000-01-01T04:42:31.000Z</time>
      </trkpt>
      <trkpt lat="45.85771" lon="4.80254">
        <ele>387.7</ele>
        <time>2000-01-01T04:42:41.000Z</time>
      </trkpt>
      <trkpt lat="45.85776" lon="4.80258">
        <ele>387.4</ele>
        <time>2000-01-01T04:42:51.000Z</time>
      </trkpt>
      <trkpt lat="45.85781" lon="4.80261">
        <ele>387.3</ele>
        <time>2000-01-01T04:43:01.000Z</time>
      </trkpt>
      <trkpt lat="45.85784" lon="4.80266">
        <ele>387.1</ele>
        <time>2000-01-01T04:43:11.000Z</time>
      </trkpt>
      <trkpt lat="45.85792" lon="4.80272">
        <ele>386</ele>
        <time>2000-01-01T04:43:21.000Z</time>
      </trkpt>
      <trkpt lat="45.85804" lon="4.80281">
        <ele>386.6</ele>
        <time>2000-01-01T04:43:31.000Z</time>
      </trkpt>
      <trkpt lat="45.85816" lon="4.8029">
        <ele>381</ele>
        <time>2000-01-01T04:43:41.000Z</time>
      </trkpt>
      <trkpt lat="45.85828" lon="4.80297">
        <ele>385.7</ele>
        <time>2000-01-01T04:43:51.000Z</time>
      </trkpt>
      <trkpt lat="45.85842" lon="4.80305">
        <ele>381</ele>
        <time>2000-01-01T04:44:01.000Z</time>
      </trkpt>
      <trkpt lat="45.85855" lon="4.80314">
        <ele>385.4</ele>
        <time>2000-01-01T04:44:11.000Z</time>
      </trkpt>
      <trkpt lat="45.85862" lon="4.80319">
        <ele>381</ele>
        <time>2000-01-01T04:44:21.000Z</time>
      </trkpt>
      <trkpt lat="45.85877" lon="4.80329">
        <ele>384.2</ele>
        <time>2000-01-01T04:44:31.000Z</time>
      </trkpt>
      <trkpt lat="45.85882" lon="4.80333">
        <ele>381</ele>
        <time>2000-01-01T04:44:41.000Z</time>
      </trkpt>
      <trkpt lat="45.85891" lon="4.80338">
        <ele>383.4</ele>
        <time>2000-01-01T04:44:51.000Z</time>
      </trkpt>
      <trkpt lat="45.85902" lon="4.80348">
        <ele>380</ele>
        <time>2000-01-01T04:45:01.000Z</time>
      </trkpt>
      <trkpt lat="45.85911" lon="4.80352">
        <ele>382.1</ele>
        <time>2000-01-01T04:45:11.000Z</time>
      </trkpt>
      <trkpt lat="45.85917" lon="4.80358">
        <ele>381.5</ele>
        <time>2000-01-01T04:45:21.000Z</time>
      </trkpt>
      <trkpt lat="45.85932" lon="4.80367">
        <ele>382</ele>
        <time>2000-01-01T04:45:31.000Z</time>
      </trkpt>
      <trkpt lat="45.85947" lon="4.80376">
        <ele>379.3</ele>
        <time>2000-01-01T04:45:41.000Z</time>
      </trkpt>
      <trkpt lat="45.85956" lon="4.80383">
        <ele>380</ele>
        <time>2000-01-01T04:45:51.000Z</time>
      </trkpt>
      <trkpt lat="45.8597" lon="4.80394">
        <ele>376.2</ele>
        <time>2000-01-01T04:46:01.000Z</time>
      </trkpt>
      <trkpt lat="45.85984" lon="4.80406">
        <ele>378</ele>
        <time>2000-01-01T04:46:11.000Z</time>
      </trkpt>
      <trkpt lat="45.85996" lon="4.80419">
        <ele>375.1</ele>
        <time>2000-01-01T04:46:21.000Z</time>
      </trkpt>
      <trkpt lat="45.86011" lon="4.80433">
        <ele>375</ele>
        <time>2000-01-01T04:46:31.000Z</time>
      </trkpt>
      <trkpt lat="45.86025" lon="4.80448">
        <ele>373.1</ele>
        <time>2000-01-01T04:46:41.000Z</time>
      </trkpt>
      <trkpt lat="45.86034" lon="4.80455">
        <ele>374</ele>
        <time>2000-01-01T04:46:51.000Z</time>
      </trkpt>
      <trkpt lat="45.8604" lon="4.80461">
        <ele>371.9</ele>
        <time>2000-01-01T04:47:01.000Z</time>
      </trkpt>
      <trkpt lat="45.86048" lon="4.80467">
        <ele>371.4</ele>
        <time>2000-01-01T04:47:11.000Z</time>
      </trkpt>
      <trkpt lat="45.86062" lon="4.80477">
        <ele>374</ele>
        <time>2000-01-01T04:47:21.000Z</time>
      </trkpt>
      <trkpt lat="45.86075" lon="4.80487">
        <ele>369.6</ele>
        <time>2000-01-01T04:47:31.000Z</time>
      </trkpt>
      <trkpt lat="45.8609" lon="4.80495">
        <ele>374</ele>
        <time>2000-01-01T04:47:41.000Z</time>
      </trkpt>
      <trkpt lat="45.86105" lon="4.80504">
        <ele>368.1</ele>
        <time>2000-01-01T04:47:51.000Z</time>
      </trkpt>
      <trkpt lat="45.8612" lon="4.80508">
        <ele>369</ele>
        <time>2000-01-01T04:48:01.000Z</time>
      </trkpt>
      <trkpt lat="45.86137" lon="4.80513">
        <ele>366.7</ele>
        <time>2000-01-01T04:48:11.000Z</time>
      </trkpt>
      <trkpt lat="45.86147" lon="4.80518">
        <ele>368</ele>
        <time>2000-01-01T04:48:21.000Z</time>
      </trkpt>
      <trkpt lat="45.86162" lon="4.80525">
        <ele>365.3</ele>
        <time>2000-01-01T04:48:31.000Z</time>
      </trkpt>
      <trkpt lat="45.86176" lon="4.80529">
        <ele>364.5</ele>
        <time>2000-01-01T04:48:41.000Z</time>
      </trkpt>
      <trkpt lat="45.86185" lon="4.80533">
        <ele>363.4</ele>
        <time>2000-01-01T04:48:51.000Z</time>
      </trkpt>
      <trkpt lat="45.86202" lon="4.80534">
        <ele>361</ele>
        <time>2000-01-01T04:49:01.000Z</time>
      </trkpt>
      <trkpt lat="45.86208" lon="4.80534">
        <ele>361.3</ele>
        <time>2000-01-01T04:49:11.000Z</time>
      </trkpt>
      <trkpt lat="45.86223" lon="4.8053">
        <ele>360</ele>
        <time>2000-01-01T04:49:21.000Z</time>
      </trkpt>
      <trkpt lat="45.86232" lon="4.80526">
        <ele>358.9</ele>
        <time>2000-01-01T04:49:31.000Z</time>
      </trkpt>
      <trkpt lat="45.86247" lon="4.80518">
        <ele>356</ele>
        <time>2000-01-01T04:49:41.000Z</time>
      </trkpt>
      <trkpt lat="45.86254" lon="4.80511">
        <ele>356.2</ele>
        <time>2000-01-01T04:49:51.000Z</time>
      </trkpt>
      <trkpt lat="45.86259" lon="4.80507">
        <ele>356.6</ele>
        <time>2000-01-01T04:50:01.000Z</time>
      </trkpt>
      <trkpt lat="45.86267" lon="4.80505">
        <ele>355</ele>
        <time>2000-01-01T04:50:11.000Z</time>
      </trkpt>
      <trkpt lat="45.86274" lon="4.80505">
        <ele>356.3</ele>
        <time>2000-01-01T04:50:21.000Z</time>
      </trkpt>
      <trkpt lat="45.86286" lon="4.80513">
        <ele>355</ele>
        <time>2000-01-01T04:50:31.000Z</time>
      </trkpt>
      <trkpt lat="45.86293" lon="4.80516">
        <ele>354.2</ele>
        <time>2000-01-01T04:50:41.000Z</time>
      </trkpt>
      <trkpt lat="45.86298" lon="4.80519">
        <ele>353.8</ele>
        <time>2000-01-01T04:50:51.000Z</time>
      </trkpt>
      <trkpt lat="45.86308" lon="4.80534">
        <ele>355</ele>
        <time>2000-01-01T04:51:01.000Z</time>
      </trkpt>
      <trkpt lat="45.86319" lon="4.80551">
        <ele>352.9</ele>
        <time>2000-01-01T04:51:11.000Z</time>
      </trkpt>
      <trkpt lat="45.86332" lon="4.80565">
        <ele>353</ele>
        <time>2000-01-01T04:51:21.000Z</time>
      </trkpt>
      <trkpt lat="45.86342" lon="4.80572">
        <ele>353.3</ele>
        <time>2000-01-01T04:51:31.000Z</time>
      </trkpt>
      <trkpt lat="45.86351" lon="4.80577">
        <ele>353</ele>
        <time>2000-01-01T04:51:41.000Z</time>
      </trkpt>
      <trkpt lat="45.86361" lon="4.80589">
        <ele>353.2</ele>
        <time>2000-01-01T04:51:51.000Z</time>
      </trkpt>
      <trkpt lat="45.86366" lon="4.80603">
        <ele>353</ele>
        <time>2000-01-01T04:52:01.000Z</time>
      </trkpt>
      <trkpt lat="45.86368" lon="4.8061">
        <ele>351.6</ele>
        <time>2000-01-01T04:52:11.000Z</time>
      </trkpt>
      <trkpt lat="45.86375" lon="4.80623">
        <ele>351.3</ele>
        <time>2000-01-01T04:52:21.000Z</time>
      </trkpt>
      <trkpt lat="45.86379" lon="4.80631">
        <ele>351.5</ele>
        <time>2000-01-01T04:52:31.000Z</time>
      </trkpt>
      <trkpt lat="45.86387" lon="4.80651">
        <ele>349.8</ele>
        <time>2000-01-01T04:52:41.000Z</time>
      </trkpt>
      <trkpt lat="45.8639" lon="4.8067">
        <ele>350</ele>
        <time>2000-01-01T04:52:51.000Z</time>
      </trkpt>
      <trkpt lat="45.86391" lon="4.80685">
        <ele>346.7</ele>
        <time>2000-01-01T04:53:01.000Z</time>
      </trkpt>
      <trkpt lat="45.86388" lon="4.80706">
        <ele>347</ele>
        <time>2000-01-01T04:53:11.000Z</time>
      </trkpt>
      <trkpt lat="45.86385" lon="4.80728">
        <ele>343.3</ele>
        <time>2000-01-01T04:53:21.000Z</time>
      </trkpt>
      <trkpt lat="45.86386" lon="4.8075">
        <ele>343</ele>
        <time>2000-01-01T04:53:31.000Z</time>
      </trkpt>
      <trkpt lat="45.86391" lon="4.80773">
        <ele>342.1</ele>
        <time>2000-01-01T04:53:41.000Z</time>
      </trkpt>
      <trkpt lat="45.86394" lon="4.80786">
        <ele>341</ele>
        <time>2000-01-01T04:53:51.000Z</time>
      </trkpt>
      <trkpt lat="45.86397" lon="4.80787">
        <ele>341.6</ele>
        <time>2000-01-01T04:54:01.000Z</time>
      </trkpt>
      <trkpt lat="45.86401" lon="4.80782">
        <ele>344.3</ele>
        <time>2000-01-01T04:54:11.000Z</time>
      </trkpt>
      <trkpt lat="45.86405" lon="4.80764">
        <ele>343.5</ele>
        <time>2000-01-01T04:54:21.000Z</time>
      </trkpt>
      <trkpt lat="45.8641" lon="4.8075">
        <ele>349.1</ele>
        <time>2000-01-01T04:54:31.000Z</time>
      </trkpt>
      <trkpt lat="45.86411" lon="4.80736">
        <ele>346</ele>
        <time>2000-01-01T04:54:41.000Z</time>
      </trkpt>
      <trkpt lat="45.86413" lon="4.80725">
        <ele>351.7</ele>
        <time>2000-01-01T04:54:51.000Z</time>
      </trkpt>
      <trkpt lat="45.86416" lon="4.80716">
        <ele>353</ele>
        <time>2000-01-01T04:55:01.000Z</time>
      </trkpt>
      <trkpt lat="45.86419" lon="4.80707">
        <ele>352</ele>
        <time>2000-01-01T04:55:11.000Z</time>
      </trkpt>
      <trkpt lat="45.86421" lon="4.80698">
        <ele>354.8</ele>
        <time>2000-01-01T04:55:21.000Z</time>
      </trkpt>
      <trkpt lat="45.86421" lon="4.80679">
        <ele>354</ele>
        <time>2000-01-01T04:55:31.000Z</time>
      </trkpt>
      <trkpt lat="45.86418" lon="4.80667">
        <ele>357.3</ele>
        <time>2000-01-01T04:55:41.000Z</time>
      </trkpt>
      <trkpt lat="45.86417" lon="4.80656">
        <ele>358.6</ele>
        <time>2000-01-01T04:55:51.000Z</time>
      </trkpt>
      <trkpt lat="45.86414" lon="4.80643">
        <ele>356</ele>
        <time>2000-01-01T04:56:01.000Z</time>
      </trkpt>
      <trkpt lat="45.86413" lon="4.80639">
        <ele>359.8</ele>
        <time>2000-01-01T04:56:11.000Z</time>
      </trkpt>
      <trkpt lat="45.8641" lon="4.8063">
        <ele>360.1</ele>
        <time>2000-01-01T04:56:21.000Z</time>
      </trkpt>
      <trkpt lat="45.86405" lon="4.8061">
        <ele>360</ele>
        <time>2000-01-01T04:56:31.000Z</time>
      </trkpt>
      <trkpt lat="45.86403" lon="4.80599">
        <ele>362.3</ele>
        <time>2000-01-01T04:56:41.000Z</time>
      </trkpt>
      <trkpt lat="45.864" lon="4.80589">
        <ele>362.8</ele>
        <time>2000-01-01T04:56:51.000Z</time>
      </trkpt>
      <trkpt lat="45.86397" lon="4.8058">
        <ele>361.5</ele>
        <time>2000-01-01T04:57:01.000Z</time>
      </trkpt>
      <trkpt lat="45.86395" lon="4.80566">
        <ele>365</ele>
        <time>2000-01-01T04:57:11.000Z</time>
      </trkpt>
      <trkpt lat="45.86391" lon="4.80554">
        <ele>363</ele>
        <time>2000-01-01T04:57:21.000Z</time>
      </trkpt>
      <trkpt lat="45.86389" lon="4.80543">
        <ele>367.3</ele>
        <time>2000-01-01T04:57:31.000Z</time>
      </trkpt>
      <trkpt lat="45.86385" lon="4.80532">
        <ele>368.3</ele>
        <time>2000-01-01T04:57:41.000Z</time>
      </trkpt>
      <trkpt lat="45.86382" lon="4.8052">
        <ele>367</ele>
        <time>2000-01-01T04:57:51.000Z</time>
      </trkpt>
      <trkpt lat="45.86379" lon="4.80507">
        <ele>371.7</ele>
        <time>2000-01-01T04:58:01.000Z</time>
      </trkpt>
      <trkpt lat="45.86376" lon="4.80497">
        <ele>373</ele>
        <time>2000-01-01T04:58:11.000Z</time>
      </trkpt>
      <trkpt lat="45.86373" lon="4.80489">
        <ele>367.5</ele>
        <time>2000-01-01T04:58:21.000Z</time>
      </trkpt>
      <trkpt lat="45.86367" lon="4.80473">
        <ele>375.7</ele>
        <time>2000-01-01T04:58:31.000Z</time>
      </trkpt>
      <trkpt lat="45.86366" lon="4.80469">
        <ele>376.4</ele>
        <time>2000-01-01T04:58:41.000Z</time>
      </trkpt>
      <trkpt lat="45.86362" lon="4.80457">
        <ele>368</ele>
        <time>2000-01-01T04:58:51.000Z</time>
      </trkpt>
      <trkpt lat="45.86358" lon="4.80444">
        <ele>380</ele>
        <time>2000-01-01T04:59:01.000Z</time>
      </trkpt>
      <trkpt lat="45.86355" lon="4.80432">
        <ele>378</ele>
        <time>2000-01-01T04:59:11.000Z</time>
      </trkpt>
      <trkpt lat="45.86352" lon="4.80424">
        <ele>382.1</ele>
        <time>2000-01-01T04:59:21.000Z</time>
      </trkpt>
      <trkpt lat="45.86348" lon="4.80413">
        <ele>382.9</ele>
        <time>2000-01-01T04:59:31.000Z</time>
      </trkpt>
      <trkpt lat="45.86344" lon="4.80405">
        <ele>378</ele>
        <time>2000-01-01T04:59:41.000Z</time>
      </trkpt>
      <trkpt lat="45.86342" lon="4.804">
        <ele>383.1</ele>
        <time>2000-01-01T04:59:51.000Z</time>
      </trkpt>
      <trkpt lat="45.86338" lon="4.80385">
        <ele>384.5</ele>
        <time>2000-01-01T05:00:01.000Z</time>
      </trkpt>
      <trkpt lat="45.86336" lon="4.80376">
        <ele>381</ele>
        <time>2000-01-01T05:00:11.000Z</time>
      </trkpt>
      <trkpt lat="45.86331" lon="4.80366">
        <ele>386</ele>
        <time>2000-01-01T05:00:21.000Z</time>
      </trkpt>
      <trkpt lat="45.86328" lon="4.80359">
        <ele>386.2</ele>
        <time>2000-01-01T05:00:31.000Z</time>
      </trkpt>
      <trkpt lat="45.86324" lon="4.8034">
        <ele>384</ele>
        <time>2000-01-01T05:00:41.000Z</time>
      </trkpt>
      <trkpt lat="45.86323" lon="4.80336">
        <ele>387.9</ele>
        <time>2000-01-01T05:00:51.000Z</time>
      </trkpt>
      <trkpt lat="45.8632" lon="4.80321">
        <ele>389.4</ele>
        <time>2000-01-01T05:01:01.000Z</time>
      </trkpt>
      <trkpt lat="45.86315" lon="4.80312">
        <ele>390</ele>
        <time>2000-01-01T05:01:11.000Z</time>
      </trkpt>
      <trkpt lat="45.86311" lon="4.80303">
        <ele>390.6</ele>
        <time>2000-01-01T05:01:21.000Z</time>
      </trkpt>
      <trkpt lat="45.86306" lon="4.80296">
        <ele>390.8</ele>
        <time>2000-01-01T05:01:31.000Z</time>
      </trkpt>
      <trkpt lat="45.863" lon="4.80287">
        <ele>396</ele>
        <time>2000-01-01T05:01:41.000Z</time>
      </trkpt>
      <trkpt lat="45.86298" lon="4.80279">
        <ele>392.7</ele>
        <time>2000-01-01T05:01:51.000Z</time>
      </trkpt>
      <trkpt lat="45.86295" lon="4.80264">
        <ele>394.8</ele>
        <time>2000-01-01T05:02:01.000Z</time>
      </trkpt>
      <trkpt lat="45.86294" lon="4.80257">
        <ele>396</ele>
        <time>2000-01-01T05:02:11.000Z</time>
      </trkpt>
      <trkpt lat="45.86292" lon="4.80247">
        <ele>397</ele>
        <time>2000-01-01T05:02:21.000Z</time>
      </trkpt>
      <trkpt lat="45.8629" lon="4.80238">
        <ele>397.9</ele>
        <time>2000-01-01T05:02:31.000Z</time>
      </trkpt>
      <trkpt lat="45.86288" lon="4.80226">
        <ele>399</ele>
        <time>2000-01-01T05:02:41.000Z</time>
      </trkpt>
      <trkpt lat="45.86287" lon="4.80214">
        <ele>400.9</ele>
        <time>2000-01-01T05:02:51.000Z</time>
      </trkpt>
      <trkpt lat="45.86284" lon="4.80205">
        <ele>401.9</ele>
        <time>2000-01-01T05:03:01.000Z</time>
      </trkpt>
      <trkpt lat="45.86283" lon="4.80202">
        <ele>402.3</ele>
        <time>2000-01-01T05:03:11.000Z</time>
      </trkpt>
      <trkpt lat="45.86274" lon="4.8019">
        <ele>401</ele>
        <time>2000-01-01T05:03:21.000Z</time>
      </trkpt>
      <trkpt lat="45.86268" lon="4.80181">
        <ele>404.5</ele>
        <time>2000-01-01T05:03:31.000Z</time>
      </trkpt>
      <trkpt lat="45.86264" lon="4.80171">
        <ele>405.6</ele>
        <time>2000-01-01T05:03:41.000Z</time>
      </trkpt>
      <trkpt lat="45.86262" lon="4.8016">
        <ele>406</ele>
        <time>2000-01-01T05:03:51.000Z</time>
      </trkpt>
      <trkpt lat="45.86259" lon="4.8015">
        <ele>408.4</ele>
        <time>2000-01-01T05:04:01.000Z</time>
      </trkpt>
      <trkpt lat="45.86257" lon="4.80142">
        <ele>409.6</ele>
        <time>2000-01-01T05:04:11.000Z</time>
      </trkpt>
      <trkpt lat="45.86257" lon="4.80132">
        <ele>411</ele>
        <time>2000-01-01T05:04:21.000Z</time>
      </trkpt>
      <trkpt lat="45.86254" lon="4.80118">
        <ele>412.8</ele>
        <time>2000-01-01T05:04:31.000Z</time>
      </trkpt>
      <trkpt lat="45.8625" lon="4.80107">
        <ele>414.4</ele>
        <time>2000-01-01T05:04:41.000Z</time>
      </trkpt>
      <trkpt lat="45.86247" lon="4.80094">
        <ele>414</ele>
        <time>2000-01-01T05:04:51.000Z</time>
      </trkpt>
      <trkpt lat="45.86245" lon="4.80084">
        <ele>417.5</ele>
        <time>2000-01-01T05:05:01.000Z</time>
      </trkpt>
      <trkpt lat="45.86242" lon="4.80076">
        <ele>418.7</ele>
        <time>2000-01-01T05:05:11.000Z</time>
      </trkpt>
      <trkpt lat="45.86236" lon="4.80065">
        <ele>417</ele>
        <time>2000-01-01T05:05:21.000Z</time>
      </trkpt>
      <trkpt lat="45.86234" lon="4.80055">
        <ele>421.8</ele>
        <time>2000-01-01T05:05:31.000Z</time>
      </trkpt>
      <trkpt lat="45.86234" lon="4.80045">
        <ele>422.9</ele>
        <time>2000-01-01T05:05:41.000Z</time>
      </trkpt>
      <trkpt lat="45.86235" lon="4.80031">
        <ele>424</ele>
        <time>2000-01-01T05:05:51.000Z</time>
      </trkpt>
      <trkpt lat="45.86236" lon="4.80017">
        <ele>425.7</ele>
        <time>2000-01-01T05:06:01.000Z</time>
      </trkpt>
      <trkpt lat="45.86235" lon="4.80007">
        <ele>426.9</ele>
        <time>2000-01-01T05:06:11.000Z</time>
      </trkpt>
      <trkpt lat="45.86234" lon="4.79999">
        <ele>426</ele>
        <time>2000-01-01T05:06:21.000Z</time>
      </trkpt>
      <trkpt lat="45.86233" lon="4.79992">
        <ele>429.3</ele>
        <time>2000-01-01T05:06:31.000Z</time>
      </trkpt>
      <trkpt lat="45.86228" lon="4.79978">
        <ele>432.3</ele>
        <time>2000-01-01T05:06:41.000Z</time>
      </trkpt>
      <trkpt lat="45.8622" lon="4.79972">
        <ele>430</ele>
        <time>2000-01-01T05:06:51.000Z</time>
      </trkpt>
      <trkpt lat="45.86212" lon="4.79964">
        <ele>435.1</ele>
        <time>2000-01-01T05:07:01.000Z</time>
      </trkpt>
      <trkpt lat="45.86212" lon="4.7995">
        <ele>435</ele>
        <time>2000-01-01T05:07:11.000Z</time>
      </trkpt>
      <trkpt lat="45.86213" lon="4.79939">
        <ele>437.7</ele>
        <time>2000-01-01T05:07:21.000Z</time>
      </trkpt>
      <trkpt lat="45.86215" lon="4.79927">
        <ele>439</ele>
        <time>2000-01-01T05:07:31.000Z</time>
      </trkpt>
      <trkpt lat="45.86215" lon="4.79922">
        <ele>438</ele>
        <time>2000-01-01T05:07:41.000Z</time>
      </trkpt>
      <trkpt lat="45.86218" lon="4.79912">
        <ele>441</ele>
        <time>2000-01-01T05:07:51.000Z</time>
      </trkpt>
      <trkpt lat="45.86225" lon="4.79905">
        <ele>442</ele>
        <time>2000-01-01T05:08:01.000Z</time>
      </trkpt>
      <trkpt lat="45.86234" lon="4.79901">
        <ele>439</ele>
        <time>2000-01-01T05:08:11.000Z</time>
      </trkpt>
      <trkpt lat="45.86243" lon="4.79897">
        <ele>443.3</ele>
        <time>2000-01-01T05:08:21.000Z</time>
      </trkpt>
      <trkpt lat="45.86251" lon="4.79889">
        <ele>440</ele>
        <time>2000-01-01T05:08:31.000Z</time>
      </trkpt>
      <trkpt lat="45.8626" lon="4.79887">
        <ele>444.3</ele>
        <time>2000-01-01T05:08:41.000Z</time>
      </trkpt>
      <trkpt lat="45.86263" lon="4.79885">
        <ele>444.3</ele>
        <time>2000-01-01T05:08:51.000Z</time>
      </trkpt>
      <trkpt lat="45.86271" lon="4.79878">
        <ele>441</ele>
        <time>2000-01-01T05:09:01.000Z</time>
      </trkpt>
      <trkpt lat="45.8628" lon="4.79873">
        <ele>444.6</ele>
        <time>2000-01-01T05:09:11.000Z</time>
      </trkpt>
      <trkpt lat="45.86287" lon="4.79866">
        <ele>445.1</ele>
        <time>2000-01-01T05:09:21.000Z</time>
      </trkpt>
      <trkpt lat="45.86294" lon="4.79862">
        <ele>441.5</ele>
        <time>2000-01-01T05:09:31.000Z</time>
      </trkpt>
      <trkpt lat="45.86297" lon="4.79861">
        <ele>444.9</ele>
        <time>2000-01-01T05:09:41.000Z</time>
      </trkpt>
      <trkpt lat="45.863" lon="4.7986">
        <ele>444.8</ele>
        <time>2000-01-01T05:09:51.000Z</time>
      </trkpt>
      <trkpt lat="45.86313" lon="4.7986">
        <ele>442</ele>
        <time>2000-01-01T05:10:01.000Z</time>
      </trkpt>
      <trkpt lat="45.86321" lon="4.79857">
        <ele>444.6</ele>
        <time>2000-01-01T05:10:11.000Z</time>
      </trkpt>
      <trkpt lat="45.86336" lon="4.79853">
        <ele>442</ele>
        <time>2000-01-01T05:10:21.000Z</time>
      </trkpt>
      <trkpt lat="45.86343" lon="4.79853">
        <ele>445.2</ele>
        <time>2000-01-01T05:10:31.000Z</time>
      </trkpt>
      <trkpt lat="45.86348" lon="4.79852">
        <ele>445.3</ele>
        <time>2000-01-01T05:10:41.000Z</time>
      </trkpt>
      <trkpt lat="45.8636" lon="4.79855">
        <ele>443</ele>
        <time>2000-01-01T05:10:51.000Z</time>
      </trkpt>
      <trkpt lat="45.86368" lon="4.79857">
        <ele>445.3</ele>
        <time>2000-01-01T05:11:01.000Z</time>
      </trkpt>
      <trkpt lat="45.86381" lon="4.79857">
        <ele>446</ele>
        <time>2000-01-01T05:11:11.000Z</time>
      </trkpt>
      <trkpt lat="45.86393" lon="4.79859">
        <ele>447.4</ele>
        <time>2000-01-01T05:11:21.000Z</time>
      </trkpt>
      <trkpt lat="45.86405" lon="4.79863">
        <ele>446.5</ele>
        <time>2000-01-01T05:11:31.000Z</time>
      </trkpt>
      <trkpt lat="45.8641" lon="4.79865">
        <ele>447.3</ele>
        <time>2000-01-01T05:11:41.000Z</time>
      </trkpt>
      <trkpt lat="45.86418" lon="4.79869">
        <ele>447.2</ele>
        <time>2000-01-01T05:11:51.000Z</time>
      </trkpt>
      <trkpt lat="45.8643" lon="4.79878">
        <ele>443.2</ele>
        <time>2000-01-01T05:12:01.000Z</time>
      </trkpt>
      <trkpt lat="45.86442" lon="4.79883">
        <ele>447.5</ele>
        <time>2000-01-01T05:12:11.000Z</time>
      </trkpt>
      <trkpt lat="45.86453" lon="4.79887">
        <ele>442.6</ele>
        <time>2000-01-01T05:12:21.000Z</time>
      </trkpt>
      <trkpt lat="45.86465" lon="4.79893">
        <ele>448</ele>
        <time>2000-01-01T05:12:31.000Z</time>
      </trkpt>
      <trkpt lat="45.86477" lon="4.79897">
        <ele>444.3</ele>
        <time>2000-01-01T05:12:41.000Z</time>
      </trkpt>
      <trkpt lat="45.86482" lon="4.79899">
        <ele>448.7</ele>
        <time>2000-01-01T05:12:51.000Z</time>
      </trkpt>
      <trkpt lat="45.86494" lon="4.79904">
        <ele>449.4</ele>
        <time>2000-01-01T05:13:01.000Z</time>
      </trkpt>
      <trkpt lat="45.86505" lon="4.79908">
        <ele>446</ele>
        <time>2000-01-01T05:13:11.000Z</time>
      </trkpt>
      <trkpt lat="45.86517" lon="4.79907">
        <ele>450.3</ele>
        <time>2000-01-01T05:13:21.000Z</time>
      </trkpt>
      <trkpt lat="45.8653" lon="4.79908">
        <ele>447</ele>
        <time>2000-01-01T05:13:31.000Z</time>
      </trkpt>
      <trkpt lat="45.86541" lon="4.79909">
        <ele>451</ele>
        <time>2000-01-01T05:13:41.000Z</time>
      </trkpt>
      <trkpt lat="45.86553" lon="4.79907">
        <ele>448</ele>
        <time>2000-01-01T05:13:51.000Z</time>
      </trkpt>
      <trkpt lat="45.86557" lon="4.79906">
        <ele>451.7</ele>
        <time>2000-01-01T05:14:01.000Z</time>
      </trkpt>
      <trkpt lat="45.86569" lon="4.79901">
        <ele>451.9</ele>
        <time>2000-01-01T05:14:11.000Z</time>
      </trkpt>
      <trkpt lat="45.86581" lon="4.79894">
        <ele>449</ele>
        <time>2000-01-01T05:14:21.000Z</time>
      </trkpt>
      <trkpt lat="45.86592" lon="4.79886">
        <ele>451.5</ele>
        <time>2000-01-01T05:14:31.000Z</time>
      </trkpt>
      <trkpt lat="45.86603" lon="4.79877">
        <ele>448</ele>
        <time>2000-01-01T05:14:41.000Z</time>
      </trkpt>
      <trkpt lat="45.86611" lon="4.79868">
        <ele>450</ele>
        <time>2000-01-01T05:14:51.000Z</time>
      </trkpt>
      <trkpt lat="45.8662" lon="4.79853">
        <ele>448</ele>
        <time>2000-01-01T05:15:01.000Z</time>
      </trkpt>
      <trkpt lat="45.86626" lon="4.79839">
        <ele>446.3</ele>
        <time>2000-01-01T05:15:11.000Z</time>
      </trkpt>
      <trkpt lat="45.86633" lon="4.79822">
        <ele>448</ele>
        <time>2000-01-01T05:15:21.000Z</time>
      </trkpt>
      <trkpt lat="45.8664" lon="4.79806">
        <ele>443.5</ele>
        <time>2000-01-01T05:15:31.000Z</time>
      </trkpt>
      <trkpt lat="45.86646" lon="4.79793">
        <ele>448</ele>
        <time>2000-01-01T05:15:41.000Z</time>
      </trkpt>
      <trkpt lat="45.86649" lon="4.79786">
        <ele>442.4</ele>
        <time>2000-01-01T05:15:51.000Z</time>
      </trkpt>
      <trkpt lat="45.86658" lon="4.79772">
        <ele>443.5</ele>
        <time>2000-01-01T05:16:01.000Z</time>
      </trkpt>
      <trkpt lat="45.86665" lon="4.79762">
        <ele>439</ele>
        <time>2000-01-01T05:16:11.000Z</time>
      </trkpt>
      <trkpt lat="45.8667" lon="4.79748">
        <ele>442.2</ele>
        <time>2000-01-01T05:16:21.000Z</time>
      </trkpt>
      <trkpt lat="45.86676" lon="4.79726">
        <ele>439.3</ele>
        <time>2000-01-01T05:16:31.000Z</time>
      </trkpt>
      <trkpt lat="45.86677" lon="4.79709">
        <ele>443.1</ele>
        <time>2000-01-01T05:16:41.000Z</time>
      </trkpt>
      <trkpt lat="45.86674" lon="4.79687">
        <ele>441.4</ele>
        <time>2000-01-01T05:16:51.000Z</time>
      </trkpt>
      <trkpt lat="45.86669" lon="4.79669">
        <ele>444</ele>
        <time>2000-01-01T05:17:01.000Z</time>
      </trkpt>
      <trkpt lat="45.86663" lon="4.7965">
        <ele>443.7</ele>
        <time>2000-01-01T05:17:11.000Z</time>
      </trkpt>
      <trkpt lat="45.8666" lon="4.79632">
        <ele>447</ele>
        <time>2000-01-01T05:17:21.000Z</time>
      </trkpt>
      <trkpt lat="45.86657" lon="4.79611">
        <ele>443.1</ele>
        <time>2000-01-01T05:17:31.000Z</time>
      </trkpt>
      <trkpt lat="45.86652" lon="4.79591">
        <ele>449</ele>
        <time>2000-01-01T05:17:41.000Z</time>
      </trkpt>
      <trkpt lat="45.8665" lon="4.7958">
        <ele>443.4</ele>
        <time>2000-01-01T05:17:51.000Z</time>
      </trkpt>
      <trkpt lat="45.86648" lon="4.79562">
        <ele>452.5</ele>
        <time>2000-01-01T05:18:01.000Z</time>
      </trkpt>
      <trkpt lat="45.86649" lon="4.79542">
        <ele>443.4</ele>
        <time>2000-01-01T05:18:11.000Z</time>
      </trkpt>
      <trkpt lat="45.86652" lon="4.79524">
        <ele>451.2</ele>
        <time>2000-01-01T05:18:21.000Z</time>
      </trkpt>
      <trkpt lat="45.86652" lon="4.79502">
        <ele>441.8</ele>
        <time>2000-01-01T05:18:31.000Z</time>
      </trkpt>
      <trkpt lat="45.86656" lon="4.79481">
        <ele>450</ele>
        <time>2000-01-01T05:18:41.000Z</time>
      </trkpt>
      <trkpt lat="45.86656" lon="4.79468">
        <ele>439.6</ele>
        <time>2000-01-01T05:18:51.000Z</time>
      </trkpt>
      <trkpt lat="45.86659" lon="4.79445">
        <ele>441</ele>
        <time>2000-01-01T05:19:01.000Z</time>
      </trkpt>
      <trkpt lat="45.86656" lon="4.79423">
        <ele>437.4</ele>
        <time>2000-01-01T05:19:11.000Z</time>
      </trkpt>
      <trkpt lat="45.86655" lon="4.7941">
        <ele>440</ele>
        <time>2000-01-01T05:19:21.000Z</time>
      </trkpt>
      <trkpt lat="45.86654" lon="4.794">
        <ele>436.5</ele>
        <time>2000-01-01T05:19:31.000Z</time>
      </trkpt>
      <trkpt lat="45.86654" lon="4.79376">
        <ele>439</ele>
        <time>2000-01-01T05:19:41.000Z</time>
      </trkpt>
      <trkpt lat="45.86652" lon="4.79359">
        <ele>434.1</ele>
        <time>2000-01-01T05:19:51.000Z</time>
      </trkpt>
      <trkpt lat="45.86653" lon="4.79334">
        <ele>437</ele>
        <time>2000-01-01T05:20:01.000Z</time>
      </trkpt>
      <trkpt lat="45.86654" lon="4.79325">
        <ele>432</ele>
        <time>2000-01-01T05:20:11.000Z</time>
      </trkpt>
      <trkpt lat="45.86655" lon="4.79314">
        <ele>431.4</ele>
        <time>2000-01-01T05:20:21.000Z</time>
      </trkpt>
      <trkpt lat="45.86656" lon="4.79292">
        <ele>436.5</ele>
        <time>2000-01-01T05:20:31.000Z</time>
      </trkpt>
      <trkpt lat="45.86657" lon="4.7927">
        <ele>429.6</ele>
        <time>2000-01-01T05:20:41.000Z</time>
      </trkpt>
      <trkpt lat="45.86658" lon="4.79259">
        <ele>436</ele>
        <time>2000-01-01T05:20:51.000Z</time>
      </trkpt>
      <trkpt lat="45.86658" lon="4.79248">
        <ele>428.9</ele>
        <time>2000-01-01T05:21:01.000Z</time>
      </trkpt>
      <trkpt lat="45.86658" lon="4.79224">
        <ele>433</ele>
        <time>2000-01-01T05:21:11.000Z</time>
      </trkpt>
      <trkpt lat="45.86663" lon="4.79202">
        <ele>428.3</ele>
        <time>2000-01-01T05:21:21.000Z</time>
      </trkpt>
      <trkpt lat="45.86668" lon="4.79179">
        <ele>432</ele>
        <time>2000-01-01T05:21:31.000Z</time>
      </trkpt>
      <trkpt lat="45.8667" lon="4.79165">
        <ele>427.5</ele>
        <time>2000-01-01T05:21:41.000Z</time>
      </trkpt>
      <trkpt lat="45.86673" lon="4.79145">
        <ele>432</ele>
        <time>2000-01-01T05:21:51.000Z</time>
      </trkpt>
      <trkpt lat="45.86679" lon="4.79124">
        <ele>427.6</ele>
        <time>2000-01-01T05:22:01.000Z</time>
      </trkpt>
      <trkpt lat="45.86688" lon="4.79106">
        <ele>432</ele>
        <time>2000-01-01T05:22:11.000Z</time>
      </trkpt>
      <trkpt lat="45.86698" lon="4.79087">
        <ele>427</ele>
        <time>2000-01-01T05:22:21.000Z</time>
      </trkpt>
      <trkpt lat="45.86709" lon="4.79071">
        <ele>427</ele>
        <time>2000-01-01T05:22:31.000Z</time>
      </trkpt>
      <trkpt lat="45.86718" lon="4.79055">
        <ele>424.8</ele>
        <time>2000-01-01T05:22:41.000Z</time>
      </trkpt>
      <trkpt lat="45.8673" lon="4.79038">
        <ele>420</ele>
        <time>2000-01-01T05:22:51.000Z</time>
      </trkpt>
      <trkpt lat="45.86735" lon="4.79027">
        <ele>420.9</ele>
        <time>2000-01-01T05:23:01.000Z</time>
      </trkpt>
      <trkpt lat="45.86738" lon="4.79006">
        <ele>417</ele>
        <time>2000-01-01T05:23:11.000Z</time>
      </trkpt>
      <trkpt lat="45.8674" lon="4.78986">
        <ele>418.6</ele>
        <time>2000-01-01T05:23:21.000Z</time>
      </trkpt>
      <trkpt lat="45.86745" lon="4.78964">
        <ele>409</ele>
        <time>2000-01-01T05:23:31.000Z</time>
      </trkpt>
      <trkpt lat="45.86752" lon="4.78946">
        <ele>414.6</ele>
        <time>2000-01-01T05:23:41.000Z</time>
      </trkpt>
      <trkpt lat="45.86758" lon="4.78935">
        <ele>409</ele>
        <time>2000-01-01T05:23:51.000Z</time>
      </trkpt>
      <trkpt lat="45.86764" lon="4.78914">
        <ele>410.8</ele>
        <time>2000-01-01T05:24:01.000Z</time>
      </trkpt>
      <trkpt lat="45.86768" lon="4.78894">
        <ele>409</ele>
        <time>2000-01-01T05:24:11.000Z</time>
      </trkpt>
      <trkpt lat="45.86769" lon="4.78873">
        <ele>406.4</ele>
        <time>2000-01-01T05:24:21.000Z</time>
      </trkpt>
      <trkpt lat="45.86763" lon="4.78851">
        <ele>407</ele>
        <time>2000-01-01T05:24:31.000Z</time>
      </trkpt>
      <trkpt lat="45.86765" lon="4.78834">
        <ele>401</ele>
        <time>2000-01-01T05:24:41.000Z</time>
      </trkpt>
      <trkpt lat="45.86773" lon="4.7883">
        <ele>404</ele>
        <time>2000-01-01T05:24:51.000Z</time>
      </trkpt>
      <trkpt lat="45.8678" lon="4.78826">
        <ele>397.6</ele>
        <time>2000-01-01T05:25:01.000Z</time>
      </trkpt>
      <trkpt lat="45.86791" lon="4.78822">
        <ele>397</ele>
        <time>2000-01-01T05:25:11.000Z</time>
      </trkpt>
      <trkpt lat="45.86796" lon="4.78822">
        <ele>395</ele>
        <time>2000-01-01T05:25:21.000Z</time>
      </trkpt>
      <trkpt lat="45.86811" lon="4.78816">
        <ele>397</ele>
        <time>2000-01-01T05:25:31.000Z</time>
      </trkpt>
      <trkpt lat="45.86817" lon="4.78815">
        <ele>391.5</ele>
        <time>2000-01-01T05:25:41.000Z</time>
      </trkpt>
      <trkpt lat="45.86831" lon="4.78807">
        <ele>389</ele>
        <time>2000-01-01T05:25:51.000Z</time>
      </trkpt>
      <trkpt lat="45.86843" lon="4.78803">
        <ele>388.2</ele>
        <time>2000-01-01T05:26:01.000Z</time>
      </trkpt>
      <trkpt lat="45.86857" lon="4.78795">
        <ele>387</ele>
        <time>2000-01-01T05:26:11.000Z</time>
      </trkpt>
      <trkpt lat="45.86867" lon="4.78789">
        <ele>385.9</ele>
        <time>2000-01-01T05:26:21.000Z</time>
      </trkpt>
      <trkpt lat="45.86878" lon="4.78779">
        <ele>384</ele>
        <time>2000-01-01T05:26:31.000Z</time>
      </trkpt>
      <trkpt lat="45.86883" lon="4.78778">
        <ele>384.4</ele>
        <time>2000-01-01T05:26:41.000Z</time>
      </trkpt>
      <trkpt lat="45.86889" lon="4.78773">
        <ele>383.6</ele>
        <time>2000-01-01T05:26:51.000Z</time>
      </trkpt>
      <trkpt lat="45.86897" lon="4.78771">
        <ele>382</ele>
        <time>2000-01-01T05:27:01.000Z</time>
      </trkpt>
      <trkpt lat="45.86902" lon="4.78772">
        <ele>381.2</ele>
        <time>2000-01-01T05:27:11.000Z</time>
      </trkpt>
      <trkpt lat="45.86917" lon="4.78765">
        <ele>382</ele>
        <time>2000-01-01T05:27:21.000Z</time>
      </trkpt>
      <trkpt lat="45.86932" lon="4.78758">
        <ele>374.8</ele>
        <time>2000-01-01T05:27:31.000Z</time>
      </trkpt>
      <trkpt lat="45.86946" lon="4.78753">
        <ele>383</ele>
        <time>2000-01-01T05:27:41.000Z</time>
      </trkpt>
      <trkpt lat="45.86955" lon="4.7875">
        <ele>370.9</ele>
        <time>2000-01-01T05:27:51.000Z</time>
      </trkpt>
      <trkpt lat="45.8696" lon="4.78749">
        <ele>370.2</ele>
        <time>2000-01-01T05:28:01.000Z</time>
      </trkpt>
      <trkpt lat="45.86963" lon="4.78728">
        <ele>383</ele>
        <time>2000-01-01T05:28:11.000Z</time>
      </trkpt>
      <trkpt lat="45.86962" lon="4.78712">
        <ele>364.8</ele>
        <time>2000-01-01T05:28:21.000Z</time>
      </trkpt>
      <trkpt lat="45.86959" lon="4.78705">
        <ele>363.1</ele>
        <time>2000-01-01T05:28:31.000Z</time>
      </trkpt>
      <trkpt lat="45.86955" lon="4.78701">
        <ele>373</ele>
        <time>2000-01-01T05:28:41.000Z</time>
      </trkpt>
      <trkpt lat="45.86948" lon="4.78698">
        <ele>361.8</ele>
        <time>2000-01-01T05:28:51.000Z</time>
      </trkpt>
      <trkpt lat="45.86943" lon="4.78696">
        <ele>361.6</ele>
        <time>2000-01-01T05:29:01.000Z</time>
      </trkpt>
      <trkpt lat="45.86932" lon="4.78687">
        <ele>361</ele>
        <time>2000-01-01T05:29:11.000Z</time>
      </trkpt>
      <trkpt lat="45.86924" lon="4.78684">
        <ele>359.8</ele>
        <time>2000-01-01T05:29:21.000Z</time>
      </trkpt>
      <trkpt lat="45.86917" lon="4.78681">
        <ele>359.6</ele>
        <time>2000-01-01T05:29:31.000Z</time>
      </trkpt>
      <trkpt lat="45.86908" lon="4.78676">
        <ele>361</ele>
        <time>2000-01-01T05:29:41.000Z</time>
      </trkpt>
      <trkpt lat="45.86902" lon="4.78675">
        <ele>357.9</ele>
        <time>2000-01-01T05:29:51.000Z</time>
      </trkpt>
      <trkpt lat="45.86893" lon="4.7867">
        <ele>356.2</ele>
        <time>2000-01-01T05:30:01.000Z</time>
      </trkpt>
      <trkpt lat="45.86886" lon="4.78667">
        <ele>349</ele>
        <time>2000-01-01T05:30:11.000Z</time>
      </trkpt>
      <trkpt lat="45.86876" lon="4.78664">
        <ele>353.5</ele>
        <time>2000-01-01T05:30:21.000Z</time>
      </trkpt>
      <trkpt lat="45.86862" lon="4.7866">
        <ele>346</ele>
        <time>2000-01-01T05:30:31.000Z</time>
      </trkpt>
      <trkpt lat="45.86853" lon="4.78655">
        <ele>348.9</ele>
        <time>2000-01-01T05:30:41.000Z</time>
      </trkpt>
      <trkpt lat="45.86847" lon="4.78652">
        <ele>347.4</ele>
        <time>2000-01-01T05:30:51.000Z</time>
      </trkpt>
      <trkpt lat="45.86839" lon="4.78651">
        <ele>343</ele>
        <time>2000-01-01T05:31:01.000Z</time>
      </trkpt>
      <trkpt lat="45.86832" lon="4.7865">
        <ele>345.9</ele>
        <time>2000-01-01T05:31:11.000Z</time>
      </trkpt>
      <trkpt lat="45.86819" lon="4.78642">
        <ele>345</ele>
        <time>2000-01-01T05:31:21.000Z</time>
      </trkpt>
      <trkpt lat="45.86805" lon="4.78635">
        <ele>338.5</ele>
        <time>2000-01-01T05:31:31.000Z</time>
      </trkpt>
      <trkpt lat="45.86797" lon="4.78633">
        <ele>347</ele>
        <time>2000-01-01T05:31:41.000Z</time>
      </trkpt>
      <trkpt lat="45.86789" lon="4.7863">
        <ele>337.2</ele>
        <time>2000-01-01T05:31:51.000Z</time>
      </trkpt>
      <trkpt lat="45.86782" lon="4.78626">
        <ele>336.5</ele>
        <time>2000-01-01T05:32:01.000Z</time>
      </trkpt>
      <trkpt lat="45.8677" lon="4.78621">
        <ele>347</ele>
        <time>2000-01-01T05:32:11.000Z</time>
      </trkpt>
      <trkpt lat="45.86772" lon="4.78613">
        <ele>334.5</ele>
        <time>2000-01-01T05:32:21.000Z</time>
      </trkpt>
      <trkpt lat="45.86787" lon="4.786">
        <ele>352</ele>
        <time>2000-01-01T05:32:31.000Z</time>
      </trkpt>
      <trkpt lat="45.868" lon="4.78595">
        <ele>327.6</ele>
        <time>2000-01-01T05:32:41.000Z</time>
      </trkpt>
      <trkpt lat="45.86813" lon="4.78592">
        <ele>352</ele>
        <time>2000-01-01T05:32:51.000Z</time>
      </trkpt>
      <trkpt lat="45.8683" lon="4.78584">
        <ele>321.7</ele>
        <time>2000-01-01T05:33:01.000Z</time>
      </trkpt>
      <trkpt lat="45.86838" lon="4.78578">
        <ele>339</ele>
        <time>2000-01-01T05:33:11.000Z</time>
      </trkpt>
      <trkpt lat="45.86847" lon="4.78575">
        <ele>319.7</ele>
        <time>2000-01-01T05:33:21.000Z</time>
      </trkpt>
      <trkpt lat="45.86854" lon="4.78572">
        <ele>318.9</ele>
        <time>2000-01-01T05:33:31.000Z</time>
      </trkpt>
      <trkpt lat="45.86862" lon="4.78566">
        <ele>329</ele>
        <time>2000-01-01T05:33:41.000Z</time>
      </trkpt>
      <trkpt lat="45.8687" lon="4.7856">
        <ele>315.6</ele>
        <time>2000-01-01T05:33:51.000Z</time>
      </trkpt>
      <trkpt lat="45.86885" lon="4.78549">
        <ele>323</ele>
        <time>2000-01-01T05:34:01.000Z</time>
      </trkpt>
      <trkpt lat="45.86901" lon="4.78539">
        <ele>310.4</ele>
        <time>2000-01-01T05:34:11.000Z</time>
      </trkpt>
      <trkpt lat="45.86911" lon="4.78535">
        <ele>320</ele>
        <time>2000-01-01T05:34:21.000Z</time>
      </trkpt>
      <trkpt lat="45.86918" lon="4.78528">
        <ele>307.1</ele>
        <time>2000-01-01T05:34:31.000Z</time>
      </trkpt>
      <trkpt lat="45.86927" lon="4.78518">
        <ele>311</ele>
        <time>2000-01-01T05:34:41.000Z</time>
      </trkpt>
      <trkpt lat="45.86933" lon="4.78512">
        <ele>304.3</ele>
        <time>2000-01-01T05:34:51.000Z</time>
      </trkpt>
      <trkpt lat="45.86942" lon="4.78503">
        <ele>301.9</ele>
        <time>2000-01-01T05:35:01.000Z</time>
      </trkpt>
      <trkpt lat="45.86949" lon="4.78497">
        <ele>311</ele>
        <time>2000-01-01T05:35:11.000Z</time>
      </trkpt>
      <trkpt lat="45.8696" lon="4.78493">
        <ele>299.7</ele>
        <time>2000-01-01T05:35:21.000Z</time>
      </trkpt>
      <trkpt lat="45.86976" lon="4.78483">
        <ele>308</ele>
        <time>2000-01-01T05:35:31.000Z</time>
      </trkpt>
      <trkpt lat="45.86987" lon="4.78477">
        <ele>295.8</ele>
        <time>2000-01-01T05:35:41.000Z</time>
      </trkpt>
      <trkpt lat="45.86995" lon="4.78473">
        <ele>305</ele>
        <time>2000-01-01T05:35:51.000Z</time>
      </trkpt>
      <trkpt lat="45.87009" lon="4.7847">
        <ele>294</ele>
        <time>2000-01-01T05:36:01.000Z</time>
      </trkpt>
      <trkpt lat="45.87015" lon="4.78464">
        <ele>297</ele>
        <time>2000-01-01T05:36:11.000Z</time>
      </trkpt>
      <trkpt lat="45.8703" lon="4.78452">
        <ele>291.4</ele>
        <time>2000-01-01T05:36:21.000Z</time>
      </trkpt>
      <trkpt lat="45.87043" lon="4.78435">
        <ele>293</ele>
        <time>2000-01-01T05:36:31.000Z</time>
      </trkpt>
      <trkpt lat="45.87057" lon="4.78417">
        <ele>287</ele>
        <time>2000-01-01T05:36:41.000Z</time>
      </trkpt>
      <trkpt lat="45.87065" lon="4.78407">
        <ele>289</ele>
        <time>2000-01-01T05:36:51.000Z</time>
      </trkpt>
      <trkpt lat="45.87076" lon="4.78392">
        <ele>283.4</ele>
        <time>2000-01-01T05:37:01.000Z</time>
      </trkpt>
      <trkpt lat="45.87085" lon="4.78383">
        <ele>281</ele>
        <time>2000-01-01T05:37:11.000Z</time>
      </trkpt>
      <trkpt lat="45.87092" lon="4.78376">
        <ele>281</ele>
        <time>2000-01-01T05:37:21.000Z</time>
      </trkpt>
      <trkpt lat="45.87102" lon="4.78367">
        <ele>277</ele>
        <time>2000-01-01T05:37:31.000Z</time>
      </trkpt>
      <trkpt lat="45.87109" lon="4.78362">
        <ele>278.2</ele>
        <time>2000-01-01T05:37:41.000Z</time>
      </trkpt>
      <trkpt lat="45.87125" lon="4.78352">
        <ele>277</ele>
        <time>2000-01-01T05:37:51.000Z</time>
      </trkpt>
      <trkpt lat="45.87144" lon="4.78345">
        <ele>278</ele>
        <time>2000-01-01T05:38:01.000Z</time>
      </trkpt>
      <trkpt lat="45.87152" lon="4.7833">
        <ele>273.4</ele>
        <time>2000-01-01T05:38:11.000Z</time>
      </trkpt>
      <trkpt lat="45.87154" lon="4.78312">
        <ele>278</ele>
        <time>2000-01-01T05:38:21.000Z</time>
      </trkpt>
      <trkpt lat="45.87156" lon="4.78287">
        <ele>270.7</ele>
        <time>2000-01-01T05:38:31.000Z</time>
      </trkpt>
      <trkpt lat="45.8716" lon="4.78265">
        <ele>272</ele>
        <time>2000-01-01T05:38:41.000Z</time>
      </trkpt>
      <trkpt lat="45.87161" lon="4.78243">
        <ele>267.9</ele>
        <time>2000-01-01T05:38:51.000Z</time>
      </trkpt>
      <trkpt lat="45.87166" lon="4.7823">
        <ele>270</ele>
        <time>2000-01-01T05:39:01.000Z</time>
      </trkpt>
      <trkpt lat="45.87168" lon="4.78219">
        <ele>265.9</ele>
        <time>2000-01-01T05:39:11.000Z</time>
      </trkpt>
      <trkpt lat="45.87168" lon="4.78193">
        <ele>270</ele>
        <time>2000-01-01T05:39:21.000Z</time>
      </trkpt>
      <trkpt lat="45.87166" lon="4.7817">
        <ele>265.2</ele>
        <time>2000-01-01T05:39:31.000Z</time>
      </trkpt>
      <trkpt lat="45.87171" lon="4.78154">
        <ele>271.5</ele>
        <time>2000-01-01T05:39:41.000Z</time>
      </trkpt>
      <trkpt lat="45.87175" lon="4.78149">
        <ele>266</ele>
        <time>2000-01-01T05:39:51.000Z</time>
      </trkpt>
      <trkpt lat="45.87189" lon="4.78141">
        <ele>271.2</ele>
        <time>2000-01-01T05:40:01.000Z</time>
      </trkpt>
      <trkpt lat="45.87203" lon="4.78132">
        <ele>264.4</ele>
        <time>2000-01-01T05:40:11.000Z</time>
      </trkpt>
      <trkpt lat="45.87217" lon="4.78119">
        <ele>271</ele>
        <time>2000-01-01T05:40:21.000Z</time>
      </trkpt>
      <trkpt lat="45.87231" lon="4.78105">
        <ele>263.9</ele>
        <time>2000-01-01T05:40:31.000Z</time>
      </trkpt>
      <trkpt lat="45.87243" lon="4.78093">
        <ele>271</ele>
        <time>2000-01-01T05:40:41.000Z</time>
      </trkpt>
      <trkpt lat="45.87251" lon="4.78086">
        <ele>263.4</ele>
        <time>2000-01-01T05:40:51.000Z</time>
      </trkpt>
      <trkpt lat="45.87261" lon="4.78072">
        <ele>268</ele>
        <time>2000-01-01T05:41:01.000Z</time>
      </trkpt>
      <trkpt lat="45.87274" lon="4.7806">
        <ele>264.8</ele>
        <time>2000-01-01T05:41:11.000Z</time>
      </trkpt>
      <trkpt lat="45.87281" lon="4.78053">
        <ele>268</ele>
        <time>2000-01-01T05:41:21.000Z</time>
      </trkpt>
      <trkpt lat="45.87287" lon="4.7804">
        <ele>266.3</ele>
        <time>2000-01-01T05:41:31.000Z</time>
      </trkpt>
      <trkpt lat="45.87291" lon="4.78033">
        <ele>266.7</ele>
        <time>2000-01-01T05:41:41.000Z</time>
      </trkpt>
      <trkpt lat="45.87294" lon="4.78011">
        <ele>267</ele>
        <time>2000-01-01T05:41:51.000Z</time>
      </trkpt>
      <trkpt lat="45.87293" lon="4.77999">
        <ele>268.2</ele>
        <time>2000-01-01T05:42:01.000Z</time>
      </trkpt>
      <trkpt lat="45.8729" lon="4.77979">
        <ele>269.5</ele>
        <time>2000-01-01T05:42:11.000Z</time>
      </trkpt>
      <trkpt lat="45.87289" lon="4.7796">
        <ele>267.1</ele>
        <time>2000-01-01T05:42:21.000Z</time>
      </trkpt>
      <trkpt lat="45.87288" lon="4.7794">
        <ele>272</ele>
        <time>2000-01-01T05:42:31.000Z</time>
      </trkpt>
      <trkpt lat="45.87284" lon="4.77923">
        <ele>265.3</ele>
        <time>2000-01-01T05:42:41.000Z</time>
      </trkpt>
      <trkpt lat="45.87281" lon="4.77904">
        <ele>273</ele>
        <time>2000-01-01T05:42:51.000Z</time>
      </trkpt>
      <trkpt lat="45.87278" lon="4.77881">
        <ele>263.7</ele>
        <time>2000-01-01T05:43:01.000Z</time>
      </trkpt>
      <trkpt lat="45.87272" lon="4.77858">
        <ele>273</ele>
        <time>2000-01-01T05:43:11.000Z</time>
      </trkpt>
      <trkpt lat="45.87268" lon="4.77838">
        <ele>264.6</ele>
        <time>2000-01-01T05:43:21.000Z</time>
      </trkpt>
      <trkpt lat="45.87267" lon="4.77825">
        <ele>270</ele>
        <time>2000-01-01T05:43:31.000Z</time>
      </trkpt>
      <trkpt lat="45.87267" lon="4.77805">
        <ele>264.3</ele>
        <time>2000-01-01T05:43:41.000Z</time>
      </trkpt>
      <trkpt lat="45.8727" lon="4.77797">
        <ele>267</ele>
        <time>2000-01-01T05:43:51.000Z</time>
      </trkpt>
      <trkpt lat="45.87275" lon="4.77793">
        <ele>262.1</ele>
        <time>2000-01-01T05:44:01.000Z</time>
      </trkpt>
      <trkpt lat="45.87287" lon="4.77793">
        <ele>259.7</ele>
        <time>2000-01-01T05:44:11.000Z</time>
      </trkpt>
      <trkpt lat="45.87299" lon="4.77794">
        <ele>263</ele>
        <time>2000-01-01T05:44:21.000Z</time>
      </trkpt>
      <trkpt lat="45.87314" lon="4.77797">
        <ele>254.5</ele>
        <time>2000-01-01T05:44:31.000Z</time>
      </trkpt>
      <trkpt lat="45.87328" lon="4.77799">
        <ele>258</ele>
        <time>2000-01-01T05:44:41.000Z</time>
      </trkpt>
      <trkpt lat="45.87337" lon="4.77799">
        <ele>250.5</ele>
        <time>2000-01-01T05:44:51.000Z</time>
      </trkpt>
      <trkpt lat="45.87348" lon="4.77801">
        <ele>253</ele>
        <time>2000-01-01T05:45:01.000Z</time>
      </trkpt>
      <trkpt lat="45.87356" lon="4.77803">
        <ele>247.7</ele>
        <time>2000-01-01T05:45:11.000Z</time>
      </trkpt>
      <trkpt lat="45.87368" lon="4.778">
        <ele>249</ele>
        <time>2000-01-01T05:45:21.000Z</time>
      </trkpt>
      <trkpt lat="45.87376" lon="4.77797">
        <ele>245</ele>
        <time>2000-01-01T05:45:31.000Z</time>
      </trkpt>
      <trkpt lat="45.87393" lon="4.77794">
        <ele>249</ele>
        <time>2000-01-01T05:45:41.000Z</time>
      </trkpt>
      <trkpt lat="45.87403" lon="4.77795">
        <ele>242</ele>
        <time>2000-01-01T05:45:51.000Z</time>
      </trkpt>
      <trkpt lat="45.8741" lon="4.77791">
        <ele>241.2</ele>
        <time>2000-01-01T05:46:01.000Z</time>
      </trkpt>
      <trkpt lat="45.87425" lon="4.77794">
        <ele>246</ele>
        <time>2000-01-01T05:46:11.000Z</time>
      </trkpt>
      <trkpt lat="45.87433" lon="4.77795">
        <ele>239.3</ele>
        <time>2000-01-01T05:46:21.000Z</time>
      </trkpt>
      <trkpt lat="45.87441" lon="4.77798">
        <ele>238.6</ele>
        <time>2000-01-01T05:46:31.000Z</time>
      </trkpt>
      <trkpt lat="45.87453" lon="4.77797">
        <ele>244.5</ele>
        <time>2000-01-01T05:46:41.000Z</time>
      </trkpt>
      <trkpt lat="45.87459" lon="4.77787">
        <ele>237.3</ele>
        <time>2000-01-01T05:46:51.000Z</time>
      </trkpt>
      <trkpt lat="45.87457" lon="4.77776">
        <ele>237.6</ele>
        <time>2000-01-01T05:47:01.000Z</time>
      </trkpt>
      <trkpt lat="45.87456" lon="4.77756">
        <ele>245.7</ele>
        <time>2000-01-01T05:47:11.000Z</time>
      </trkpt>
      <trkpt lat="45.87456" lon="4.77744">
        <ele>237.6</ele>
        <time>2000-01-01T05:47:21.000Z</time>
      </trkpt>
      <trkpt lat="45.87453" lon="4.77719">
        <ele>247</ele>
        <time>2000-01-01T05:47:31.000Z</time>
      </trkpt>
      <trkpt lat="45.8745" lon="4.77693">
        <ele>237.6</ele>
        <time>2000-01-01T05:47:41.000Z</time>
      </trkpt>
      <trkpt lat="45.87447" lon="4.7767">
        <ele>249</ele>
        <time>2000-01-01T05:47:51.000Z</time>
      </trkpt>
      <trkpt lat="45.87443" lon="4.7765">
        <ele>237.1</ele>
        <time>2000-01-01T05:48:01.000Z</time>
      </trkpt>
      <trkpt lat="45.87442" lon="4.77636">
        <ele>249</ele>
        <time>2000-01-01T05:48:11.000Z</time>
      </trkpt>
      <trkpt lat="45.8744" lon="4.77622">
        <ele>237.3</ele>
        <time>2000-01-01T05:48:21.000Z</time>
      </trkpt>
      <trkpt lat="45.87438" lon="4.77611">
        <ele>237.5</ele>
        <time>2000-01-01T05:48:31.000Z</time>
      </trkpt>
      <trkpt lat="45.87433" lon="4.77588">
        <ele>247</ele>
        <time>2000-01-01T05:48:41.000Z</time>
      </trkpt>
      <trkpt lat="45.87426" lon="4.77564">
        <ele>237.9</ele>
        <time>2000-01-01T05:48:51.000Z</time>
      </trkpt>
      <trkpt lat="45.87425" lon="4.7755">
        <ele>244</ele>
        <time>2000-01-01T05:49:01.000Z</time>
      </trkpt>
      <trkpt lat="45.87423" lon="4.7754">
        <ele>237.2</ele>
        <time>2000-01-01T05:49:11.000Z</time>
      </trkpt>
      <trkpt lat="45.87422" lon="4.77526">
        <ele>236.8</ele>
        <time>2000-01-01T05:49:21.000Z</time>
      </trkpt>
      <trkpt lat="45.87418" lon="4.77504">
        <ele>241</ele>
        <time>2000-01-01T05:49:31.000Z</time>
      </trkpt>
      <trkpt lat="45.87417" lon="4.77495">
        <ele>236.8</ele>
        <time>2000-01-01T05:49:41.000Z</time>
      </trkpt>
      <trkpt lat="45.87415" lon="4.77482">
        <ele>236.5</ele>
        <time>2000-01-01T05:49:51.000Z</time>
      </trkpt>
      <trkpt lat="45.87413" lon="4.77457">
        <ele>240</ele>
        <time>2000-01-01T05:50:01.000Z</time>
      </trkpt>
      <trkpt lat="45.87412" lon="4.77438">
        <ele>236.1</ele>
        <time>2000-01-01T05:50:11.000Z</time>
      </trkpt>
      <trkpt lat="45.87412" lon="4.77417">
        <ele>240</ele>
        <time>2000-01-01T05:50:21.000Z</time>
      </trkpt>
      <trkpt lat="45.87412" lon="4.77393">
        <ele>235.4</ele>
        <time>2000-01-01T05:50:31.000Z</time>
      </trkpt>
      <trkpt lat="45.87415" lon="4.77372">
        <ele>243</ele>
        <time>2000-01-01T05:50:41.000Z</time>
      </trkpt>
      <trkpt lat="45.87414" lon="4.77353">
        <ele>235.2</ele>
        <time>2000-01-01T05:50:51.000Z</time>
      </trkpt>
      <trkpt lat="45.87413" lon="4.77339">
        <ele>242</ele>
        <time>2000-01-01T05:51:01.000Z</time>
      </trkpt>
      <trkpt lat="45.87408" lon="4.77315">
        <ele>235</ele>
        <time>2000-01-01T05:51:11.000Z</time>
      </trkpt>
      <trkpt lat="45.87402" lon="4.77293">
        <ele>243</ele>
        <time>2000-01-01T05:51:21.000Z</time>
      </trkpt>
      <trkpt lat="45.87396" lon="4.77276">
        <ele>234.7</ele>
        <time>2000-01-01T05:51:31.000Z</time>
      </trkpt>
      <trkpt lat="45.87393" lon="4.77254">
        <ele>242.5</ele>
        <time>2000-01-01T05:51:41.000Z</time>
      </trkpt>
      <trkpt lat="45.87393" lon="4.77237">
        <ele>234.5</ele>
        <time>2000-01-01T05:51:51.000Z</time>
      </trkpt>
      <trkpt lat="45.8739" lon="4.77209">
        <ele>242</ele>
        <time>2000-01-01T05:52:01.000Z</time>
      </trkpt>
      <trkpt lat="45.8739" lon="4.77198">
        <ele>233.1</ele>
        <time>2000-01-01T05:52:11.000Z</time>
      </trkpt>
      <trkpt lat="45.8739" lon="4.77184">
        <ele>233</ele>
        <time>2000-01-01T05:52:21.000Z</time>
      </trkpt>
      <trkpt lat="45.87389" lon="4.7717">
        <ele>242</ele>
        <time>2000-01-01T05:52:31.000Z</time>
      </trkpt>
      <trkpt lat="45.87388" lon="4.77159">
        <ele>233</ele>
        <time>2000-01-01T05:52:41.000Z</time>
      </trkpt>
      <trkpt lat="45.87386" lon="4.77145">
        <ele>233.2</ele>
        <time>2000-01-01T05:52:51.000Z</time>
      </trkpt>
      <trkpt lat="45.87384" lon="4.77134">
        <ele>240</ele>
        <time>2000-01-01T05:53:01.000Z</time>
      </trkpt>
      <trkpt lat="45.87384" lon="4.7712">
        <ele>233.2</ele>
        <time>2000-01-01T05:53:11.000Z</time>
      </trkpt>
      <trkpt lat="45.87383" lon="4.77108">
        <ele>233.1</ele>
        <time>2000-01-01T05:53:21.000Z</time>
      </trkpt>
      <trkpt lat="45.87384" lon="4.7709">
        <ele>238</ele>
        <time>2000-01-01T05:53:31.000Z</time>
      </trkpt>
      <trkpt lat="45.87385" lon="4.77081">
        <ele>232.1</ele>
        <time>2000-01-01T05:53:41.000Z</time>
      </trkpt>
      <trkpt lat="45.87394" lon="4.7707">
        <ele>231.8</ele>
        <time>2000-01-01T05:53:51.000Z</time>
      </trkpt>
      <trkpt lat="45.87401" lon="4.77063">
        <ele>231</ele>
        <time>2000-01-01T05:54:01.000Z</time>
      </trkpt>
      <trkpt lat="45.87412" lon="4.77052">
        <ele>231.2</ele>
        <time>2000-01-01T05:54:11.000Z</time>
      </trkpt>
      <trkpt lat="45.87421" lon="4.77048">
        <ele>230</ele>
        <time>2000-01-01T05:54:21.000Z</time>
      </trkpt>
      <trkpt lat="45.87432" lon="4.77042">
        <ele>230.2</ele>
        <time>2000-01-01T05:54:31.000Z</time>
      </trkpt>
      <trkpt lat="45.87441" lon="4.77038">
        <ele>229</ele>
        <time>2000-01-01T05:54:41.000Z</time>
      </trkpt>
      <trkpt lat="45.87452" lon="4.77034">
        <ele>229.2</ele>
        <time>2000-01-01T05:54:51.000Z</time>
      </trkpt>
      <trkpt lat="45.8746" lon="4.77015">
        <ele>231</ele>
        <time>2000-01-01T05:55:01.000Z</time>
      </trkpt>
      <trkpt lat="45.87461" lon="4.77005">
        <ele>229</ele>
        <time>2000-01-01T05:55:11.000Z</time>
      </trkpt>
      <trkpt lat="45.8746" lon="4.77001">
        <ele>229</ele>
        <time>2000-01-01T05:55:21.000Z</time>
      </trkpt>
      <trkpt lat="45.87462" lon="4.76994">
        <ele>233</ele>
        <time>2000-01-01T05:55:31.000Z</time>
      </trkpt>
    </trkseg>
  </trk>
</gpx>